<?xml version="1.0" encoding="UTF-8" standalone="no" ?>
<gpx xmlns="http://www.topografix.com/GPX/1/1" xmlns:xsi="http://www.w3.org/2001/XMLSchema-instance" xsi:schemaLocation="http://www.topografix.com/GPX/1/1 http://www.topografix.com/GPX/1/1/gpx.xsd" version="1.1" creator="VisuGPX - https://www.visugpx.com">
  <metadata>
    <name>2015-04-29-VTT_FIRMI (12)</name>
    <desc><![CDATA[2015-04-29-VTT_FIRMI (12)]]></desc>
  </metadata>
  <trk>
    <name><![CDATA[2015-04-29-VTT_FIRMI]]></name>
    <trkseg>
      <trkpt lat="44.54508" lon="2.32223">
        <ele>192.9</ele>
        <time>2015-04-29T16:11:02Z</time>
      </trkpt>
      <trkpt lat="44.54509" lon="2.32223">
        <ele>228.1</ele>
        <time>2015-04-29T16:11:03Z</time>
      </trkpt>
      <trkpt lat="44.5451" lon="2.32235">
        <ele>334.6</ele>
        <time>2015-04-29T16:13:39Z</time>
      </trkpt>
      <trkpt lat="44.54511" lon="2.32222">
        <ele>333.2</ele>
        <time>2015-04-29T16:15:36Z</time>
      </trkpt>
      <trkpt lat="44.54505" lon="2.32232">
        <ele>333.4</ele>
        <time>2015-04-29T16:19:13Z</time>
      </trkpt>
      <trkpt lat="44.54497" lon="2.32239">
        <ele>333.7</ele>
        <time>2015-04-29T16:19:23Z</time>
      </trkpt>
      <trkpt lat="44.54506" lon="2.32234">
        <ele>333.9</ele>
        <time>2015-04-29T16:19:35Z</time>
      </trkpt>
      <trkpt lat="44.54515" lon="2.32229">
        <ele>332.3</ele>
        <time>2015-04-29T16:19:53Z</time>
      </trkpt>
      <trkpt lat="44.54507" lon="2.32236">
        <ele>333.8</ele>
        <time>2015-04-29T16:21:30Z</time>
      </trkpt>
      <trkpt lat="44.54502" lon="2.32247">
        <ele>334.1</ele>
        <time>2015-04-29T16:23:08Z</time>
      </trkpt>
      <trkpt lat="44.54508" lon="2.32237">
        <ele>332.9</ele>
        <time>2015-04-29T16:24:56Z</time>
      </trkpt>
      <trkpt lat="44.54511" lon="2.32224">
        <ele>333.1</ele>
        <time>2015-04-29T16:25:30Z</time>
      </trkpt>
      <trkpt lat="44.54518" lon="2.32215">
        <ele>333.5</ele>
        <time>2015-04-29T16:25:34Z</time>
      </trkpt>
      <trkpt lat="44.54526" lon="2.32207">
        <ele>334.4</ele>
        <time>2015-04-29T16:25:38Z</time>
      </trkpt>
      <trkpt lat="44.54529" lon="2.32191">
        <ele>335</ele>
        <time>2015-04-29T16:25:42Z</time>
      </trkpt>
      <trkpt lat="44.54531" lon="2.32178">
        <ele>335.2</ele>
        <time>2015-04-29T16:25:45Z</time>
      </trkpt>
      <trkpt lat="44.54532" lon="2.32164">
        <ele>335.3</ele>
        <time>2015-04-29T16:25:48Z</time>
      </trkpt>
      <trkpt lat="44.54533" lon="2.3215">
        <ele>335.6</ele>
        <time>2015-04-29T16:25:51Z</time>
      </trkpt>
      <trkpt lat="44.54534" lon="2.32137">
        <ele>335.9</ele>
        <time>2015-04-29T16:25:54Z</time>
      </trkpt>
      <trkpt lat="44.54534" lon="2.32123">
        <ele>336.1</ele>
        <time>2015-04-29T16:25:57Z</time>
      </trkpt>
      <trkpt lat="44.54536" lon="2.32107">
        <ele>336.3</ele>
        <time>2015-04-29T16:26:00Z</time>
      </trkpt>
      <trkpt lat="44.54539" lon="2.32092">
        <ele>336.8</ele>
        <time>2015-04-29T16:26:03Z</time>
      </trkpt>
      <trkpt lat="44.54544" lon="2.32077">
        <ele>337.7</ele>
        <time>2015-04-29T16:26:06Z</time>
      </trkpt>
      <trkpt lat="44.5455" lon="2.32061">
        <ele>337.3</ele>
        <time>2015-04-29T16:26:09Z</time>
      </trkpt>
      <trkpt lat="44.54555" lon="2.3205">
        <ele>337.6</ele>
        <time>2015-04-29T16:26:11Z</time>
      </trkpt>
      <trkpt lat="44.54563" lon="2.32035">
        <ele>338</ele>
        <time>2015-04-29T16:26:14Z</time>
      </trkpt>
      <trkpt lat="44.54571" lon="2.3202">
        <ele>339.1</ele>
        <time>2015-04-29T16:26:17Z</time>
      </trkpt>
      <trkpt lat="44.5458" lon="2.32009">
        <ele>339.7</ele>
        <time>2015-04-29T16:26:20Z</time>
      </trkpt>
      <trkpt lat="44.54591" lon="2.31998">
        <ele>339.8</ele>
        <time>2015-04-29T16:26:23Z</time>
      </trkpt>
      <trkpt lat="44.54601" lon="2.31988">
        <ele>339.7</ele>
        <time>2015-04-29T16:26:26Z</time>
      </trkpt>
      <trkpt lat="44.54611" lon="2.31978">
        <ele>339.8</ele>
        <time>2015-04-29T16:26:29Z</time>
      </trkpt>
      <trkpt lat="44.54622" lon="2.3197">
        <ele>340.1</ele>
        <time>2015-04-29T16:26:32Z</time>
      </trkpt>
      <trkpt lat="44.5463" lon="2.31964">
        <ele>340.9</ele>
        <time>2015-04-29T16:26:37Z</time>
      </trkpt>
      <trkpt lat="44.54639" lon="2.31955">
        <ele>340.6</ele>
        <time>2015-04-29T16:26:40Z</time>
      </trkpt>
      <trkpt lat="44.5465" lon="2.31944">
        <ele>340.8</ele>
        <time>2015-04-29T16:26:43Z</time>
      </trkpt>
      <trkpt lat="44.5466" lon="2.31933">
        <ele>341.1</ele>
        <time>2015-04-29T16:26:46Z</time>
      </trkpt>
      <trkpt lat="44.54669" lon="2.31921">
        <ele>340.6</ele>
        <time>2015-04-29T16:26:49Z</time>
      </trkpt>
      <trkpt lat="44.54679" lon="2.31909">
        <ele>340.4</ele>
        <time>2015-04-29T16:26:52Z</time>
      </trkpt>
      <trkpt lat="44.54685" lon="2.319">
        <ele>340.3</ele>
        <time>2015-04-29T16:26:54Z</time>
      </trkpt>
      <trkpt lat="44.54692" lon="2.31892">
        <ele>340.2</ele>
        <time>2015-04-29T16:26:56Z</time>
      </trkpt>
      <trkpt lat="44.547" lon="2.31882">
        <ele>340</ele>
        <time>2015-04-29T16:26:58Z</time>
      </trkpt>
      <trkpt lat="44.54716" lon="2.31863">
        <ele>340.1</ele>
        <time>2015-04-29T16:27:02Z</time>
      </trkpt>
      <trkpt lat="44.54723" lon="2.31849">
        <ele>339.7</ele>
        <time>2015-04-29T16:27:04Z</time>
      </trkpt>
      <trkpt lat="44.54725" lon="2.31831">
        <ele>339.2</ele>
        <time>2015-04-29T16:27:06Z</time>
      </trkpt>
      <trkpt lat="44.54723" lon="2.31812">
        <ele>338.2</ele>
        <time>2015-04-29T16:27:08Z</time>
      </trkpt>
      <trkpt lat="44.5472" lon="2.31796">
        <ele>337.6</ele>
        <time>2015-04-29T16:27:10Z</time>
      </trkpt>
      <trkpt lat="44.54716" lon="2.3178">
        <ele>336.4</ele>
        <time>2015-04-29T16:27:12Z</time>
      </trkpt>
      <trkpt lat="44.54725" lon="2.31775">
        <ele>332.8</ele>
        <time>2015-04-29T16:27:31Z</time>
      </trkpt>
      <trkpt lat="44.54734" lon="2.3178">
        <ele>333.3</ele>
        <time>2015-04-29T16:27:37Z</time>
      </trkpt>
      <trkpt lat="44.54743" lon="2.31789">
        <ele>332.2</ele>
        <time>2015-04-29T16:27:42Z</time>
      </trkpt>
      <trkpt lat="44.54753" lon="2.31798">
        <ele>333.3</ele>
        <time>2015-04-29T16:27:47Z</time>
      </trkpt>
      <trkpt lat="44.54761" lon="2.31809">
        <ele>333.6</ele>
        <time>2015-04-29T16:27:51Z</time>
      </trkpt>
      <trkpt lat="44.54767" lon="2.3182">
        <ele>333.6</ele>
        <time>2015-04-29T16:27:54Z</time>
      </trkpt>
      <trkpt lat="44.54773" lon="2.31832">
        <ele>332.8</ele>
        <time>2015-04-29T16:27:57Z</time>
      </trkpt>
      <trkpt lat="44.54779" lon="2.31843">
        <ele>332.9</ele>
        <time>2015-04-29T16:28:00Z</time>
      </trkpt>
      <trkpt lat="44.54795" lon="2.3186">
        <ele>332.8</ele>
        <time>2015-04-29T16:28:06Z</time>
      </trkpt>
      <trkpt lat="44.54805" lon="2.31866">
        <ele>332.7</ele>
        <time>2015-04-29T16:28:09Z</time>
      </trkpt>
      <trkpt lat="44.54815" lon="2.31871">
        <ele>332.5</ele>
        <time>2015-04-29T16:28:12Z</time>
      </trkpt>
      <trkpt lat="44.54824" lon="2.31873">
        <ele>332.7</ele>
        <time>2015-04-29T16:28:22Z</time>
      </trkpt>
      <trkpt lat="44.54833" lon="2.31878">
        <ele>332.4</ele>
        <time>2015-04-29T16:28:42Z</time>
      </trkpt>
      <trkpt lat="44.54843" lon="2.31882">
        <ele>333.6</ele>
        <time>2015-04-29T16:28:46Z</time>
      </trkpt>
      <trkpt lat="44.54853" lon="2.31884">
        <ele>334.6</ele>
        <time>2015-04-29T16:28:50Z</time>
      </trkpt>
      <trkpt lat="44.54863" lon="2.31889">
        <ele>336.2</ele>
        <time>2015-04-29T16:28:54Z</time>
      </trkpt>
      <trkpt lat="44.54874" lon="2.31895">
        <ele>336</ele>
        <time>2015-04-29T16:28:58Z</time>
      </trkpt>
      <trkpt lat="44.54883" lon="2.31899">
        <ele>335.9</ele>
        <time>2015-04-29T16:29:01Z</time>
      </trkpt>
      <trkpt lat="44.54901" lon="2.31913">
        <ele>335.2</ele>
        <time>2015-04-29T16:29:07Z</time>
      </trkpt>
      <trkpt lat="44.5491" lon="2.31919">
        <ele>334.5</ele>
        <time>2015-04-29T16:29:10Z</time>
      </trkpt>
      <trkpt lat="44.54919" lon="2.31925">
        <ele>333.4</ele>
        <time>2015-04-29T16:29:13Z</time>
      </trkpt>
      <trkpt lat="44.54926" lon="2.31934">
        <ele>332.2</ele>
        <time>2015-04-29T16:29:18Z</time>
      </trkpt>
      <trkpt lat="44.54921" lon="2.31946">
        <ele>331.8</ele>
        <time>2015-04-29T16:29:29Z</time>
      </trkpt>
      <trkpt lat="44.54922" lon="2.3196">
        <ele>330.4</ele>
        <time>2015-04-29T16:29:34Z</time>
      </trkpt>
      <trkpt lat="44.54917" lon="2.31969">
        <ele>327</ele>
        <time>2015-04-29T16:29:45Z</time>
      </trkpt>
      <trkpt lat="44.54916" lon="2.31982">
        <ele>321.8</ele>
        <time>2015-04-29T16:29:55Z</time>
      </trkpt>
      <trkpt lat="44.54919" lon="2.31995">
        <ele>320.2</ele>
        <time>2015-04-29T16:30:10Z</time>
      </trkpt>
      <trkpt lat="44.54912" lon="2.32019">
        <ele>309.7</ele>
        <time>2015-04-29T16:30:37Z</time>
      </trkpt>
      <trkpt lat="44.54904" lon="2.32028">
        <ele>306</ele>
        <time>2015-04-29T16:30:48Z</time>
      </trkpt>
      <trkpt lat="44.54905" lon="2.32041">
        <ele>303.9</ele>
        <time>2015-04-29T16:31:05Z</time>
      </trkpt>
      <trkpt lat="44.54897" lon="2.32048">
        <ele>301.3</ele>
        <time>2015-04-29T16:31:33Z</time>
      </trkpt>
      <trkpt lat="44.54906" lon="2.32072">
        <ele>295.3</ele>
        <time>2015-04-29T16:32:12Z</time>
      </trkpt>
      <trkpt lat="44.54917" lon="2.32077">
        <ele>292.5</ele>
        <time>2015-04-29T16:32:17Z</time>
      </trkpt>
      <trkpt lat="44.54927" lon="2.32079">
        <ele>291.3</ele>
        <time>2015-04-29T16:32:21Z</time>
      </trkpt>
      <trkpt lat="44.54936" lon="2.32082">
        <ele>290.2</ele>
        <time>2015-04-29T16:32:27Z</time>
      </trkpt>
      <trkpt lat="44.54946" lon="2.32086">
        <ele>289.6</ele>
        <time>2015-04-29T16:32:33Z</time>
      </trkpt>
      <trkpt lat="44.54957" lon="2.32092">
        <ele>287.5</ele>
        <time>2015-04-29T16:32:37Z</time>
      </trkpt>
      <trkpt lat="44.54973" lon="2.32109">
        <ele>284.1</ele>
        <time>2015-04-29T16:32:55Z</time>
      </trkpt>
      <trkpt lat="44.54984" lon="2.32113">
        <ele>283.2</ele>
        <time>2015-04-29T16:32:59Z</time>
      </trkpt>
      <trkpt lat="44.54994" lon="2.32118">
        <ele>282.3</ele>
        <time>2015-04-29T16:33:03Z</time>
      </trkpt>
      <trkpt lat="44.55003" lon="2.32124">
        <ele>281.1</ele>
        <time>2015-04-29T16:33:06Z</time>
      </trkpt>
      <trkpt lat="44.55012" lon="2.3213">
        <ele>280.3</ele>
        <time>2015-04-29T16:33:09Z</time>
      </trkpt>
      <trkpt lat="44.55022" lon="2.32136">
        <ele>279.7</ele>
        <time>2015-04-29T16:33:12Z</time>
      </trkpt>
      <trkpt lat="44.55033" lon="2.32144">
        <ele>278.9</ele>
        <time>2015-04-29T16:33:15Z</time>
      </trkpt>
      <trkpt lat="44.55041" lon="2.32152">
        <ele>277.4</ele>
        <time>2015-04-29T16:33:18Z</time>
      </trkpt>
      <trkpt lat="44.55046" lon="2.32167">
        <ele>275.4</ele>
        <time>2015-04-29T16:33:22Z</time>
      </trkpt>
      <trkpt lat="44.55054" lon="2.32175">
        <ele>274.9</ele>
        <time>2015-04-29T16:33:25Z</time>
      </trkpt>
      <trkpt lat="44.55062" lon="2.32182">
        <ele>275.1</ele>
        <time>2015-04-29T16:33:28Z</time>
      </trkpt>
      <trkpt lat="44.55074" lon="2.32186">
        <ele>275.2</ele>
        <time>2015-04-29T16:33:32Z</time>
      </trkpt>
      <trkpt lat="44.55084" lon="2.32192">
        <ele>274.7</ele>
        <time>2015-04-29T16:33:35Z</time>
      </trkpt>
      <trkpt lat="44.55092" lon="2.32201">
        <ele>275.2</ele>
        <time>2015-04-29T16:33:38Z</time>
      </trkpt>
      <trkpt lat="44.55105" lon="2.32225">
        <ele>276.9</ele>
        <time>2015-04-29T16:33:44Z</time>
      </trkpt>
      <trkpt lat="44.55109" lon="2.3224">
        <ele>277.4</ele>
        <time>2015-04-29T16:33:47Z</time>
      </trkpt>
      <trkpt lat="44.5511" lon="2.32256">
        <ele>277.5</ele>
        <time>2015-04-29T16:33:50Z</time>
      </trkpt>
      <trkpt lat="44.5511" lon="2.32275">
        <ele>277.6</ele>
        <time>2015-04-29T16:33:53Z</time>
      </trkpt>
      <trkpt lat="44.55112" lon="2.32289">
        <ele>277.8</ele>
        <time>2015-04-29T16:33:55Z</time>
      </trkpt>
      <trkpt lat="44.55113" lon="2.32303">
        <ele>277.4</ele>
        <time>2015-04-29T16:33:57Z</time>
      </trkpt>
      <trkpt lat="44.55117" lon="2.32317">
        <ele>277.3</ele>
        <time>2015-04-29T16:33:59Z</time>
      </trkpt>
      <trkpt lat="44.55121" lon="2.32332">
        <ele>277.3</ele>
        <time>2015-04-29T16:34:01Z</time>
      </trkpt>
      <trkpt lat="44.55125" lon="2.32347">
        <ele>277</ele>
        <time>2015-04-29T16:34:03Z</time>
      </trkpt>
      <trkpt lat="44.55129" lon="2.32363">
        <ele>276.8</ele>
        <time>2015-04-29T16:34:05Z</time>
      </trkpt>
      <trkpt lat="44.55133" lon="2.32377">
        <ele>276.2</ele>
        <time>2015-04-29T16:34:07Z</time>
      </trkpt>
      <trkpt lat="44.55137" lon="2.32393">
        <ele>276.1</ele>
        <time>2015-04-29T16:34:09Z</time>
      </trkpt>
      <trkpt lat="44.55141" lon="2.32407">
        <ele>276.3</ele>
        <time>2015-04-29T16:34:11Z</time>
      </trkpt>
      <trkpt lat="44.55145" lon="2.32421">
        <ele>276.1</ele>
        <time>2015-04-29T16:34:13Z</time>
      </trkpt>
      <trkpt lat="44.55148" lon="2.32434">
        <ele>276.1</ele>
        <time>2015-04-29T16:34:15Z</time>
      </trkpt>
      <trkpt lat="44.55152" lon="2.32448">
        <ele>276.1</ele>
        <time>2015-04-29T16:34:17Z</time>
      </trkpt>
      <trkpt lat="44.55155" lon="2.32462">
        <ele>276.4</ele>
        <time>2015-04-29T16:34:19Z</time>
      </trkpt>
      <trkpt lat="44.55159" lon="2.32476">
        <ele>276.6</ele>
        <time>2015-04-29T16:34:21Z</time>
      </trkpt>
      <trkpt lat="44.55163" lon="2.3249">
        <ele>276.2</ele>
        <time>2015-04-29T16:34:23Z</time>
      </trkpt>
      <trkpt lat="44.55167" lon="2.32505">
        <ele>276.1</ele>
        <time>2015-04-29T16:34:25Z</time>
      </trkpt>
      <trkpt lat="44.55171" lon="2.3252">
        <ele>276.1</ele>
        <time>2015-04-29T16:34:27Z</time>
      </trkpt>
      <trkpt lat="44.55174" lon="2.32535">
        <ele>275.5</ele>
        <time>2015-04-29T16:34:29Z</time>
      </trkpt>
      <trkpt lat="44.55177" lon="2.32551">
        <ele>275.5</ele>
        <time>2015-04-29T16:34:31Z</time>
      </trkpt>
      <trkpt lat="44.55178" lon="2.32567">
        <ele>275.7</ele>
        <time>2015-04-29T16:34:33Z</time>
      </trkpt>
      <trkpt lat="44.55176" lon="2.32583">
        <ele>275.5</ele>
        <time>2015-04-29T16:34:35Z</time>
      </trkpt>
      <trkpt lat="44.55173" lon="2.32601">
        <ele>275.3</ele>
        <time>2015-04-29T16:34:38Z</time>
      </trkpt>
      <trkpt lat="44.55171" lon="2.3262">
        <ele>275.6</ele>
        <time>2015-04-29T16:34:41Z</time>
      </trkpt>
      <trkpt lat="44.55172" lon="2.32651">
        <ele>276.6</ele>
        <time>2015-04-29T16:34:45Z</time>
      </trkpt>
      <trkpt lat="44.55173" lon="2.32667">
        <ele>276.8</ele>
        <time>2015-04-29T16:34:47Z</time>
      </trkpt>
      <trkpt lat="44.55174" lon="2.32682">
        <ele>276.8</ele>
        <time>2015-04-29T16:34:49Z</time>
      </trkpt>
      <trkpt lat="44.55176" lon="2.32696">
        <ele>276.8</ele>
        <time>2015-04-29T16:34:51Z</time>
      </trkpt>
      <trkpt lat="44.55176" lon="2.32709">
        <ele>277.3</ele>
        <time>2015-04-29T16:34:53Z</time>
      </trkpt>
      <trkpt lat="44.55177" lon="2.32723">
        <ele>277.8</ele>
        <time>2015-04-29T16:34:55Z</time>
      </trkpt>
      <trkpt lat="44.55178" lon="2.32738">
        <ele>277.7</ele>
        <time>2015-04-29T16:34:57Z</time>
      </trkpt>
      <trkpt lat="44.55179" lon="2.32753">
        <ele>277.4</ele>
        <time>2015-04-29T16:34:59Z</time>
      </trkpt>
      <trkpt lat="44.5518" lon="2.32767">
        <ele>277.7</ele>
        <time>2015-04-29T16:35:01Z</time>
      </trkpt>
      <trkpt lat="44.55181" lon="2.32782">
        <ele>278</ele>
        <time>2015-04-29T16:35:03Z</time>
      </trkpt>
      <trkpt lat="44.55182" lon="2.32796">
        <ele>278.2</ele>
        <time>2015-04-29T16:35:05Z</time>
      </trkpt>
      <trkpt lat="44.55182" lon="2.32809">
        <ele>278.9</ele>
        <time>2015-04-29T16:35:07Z</time>
      </trkpt>
      <trkpt lat="44.55183" lon="2.32826">
        <ele>279.7</ele>
        <time>2015-04-29T16:35:10Z</time>
      </trkpt>
      <trkpt lat="44.55183" lon="2.32841">
        <ele>280.3</ele>
        <time>2015-04-29T16:35:13Z</time>
      </trkpt>
      <trkpt lat="44.55184" lon="2.32859">
        <ele>280.2</ele>
        <time>2015-04-29T16:35:16Z</time>
      </trkpt>
      <trkpt lat="44.55183" lon="2.32878">
        <ele>280.1</ele>
        <time>2015-04-29T16:35:19Z</time>
      </trkpt>
      <trkpt lat="44.55183" lon="2.32896">
        <ele>280.8</ele>
        <time>2015-04-29T16:35:22Z</time>
      </trkpt>
      <trkpt lat="44.55183" lon="2.32914">
        <ele>281.5</ele>
        <time>2015-04-29T16:35:25Z</time>
      </trkpt>
      <trkpt lat="44.55184" lon="2.32932">
        <ele>282</ele>
        <time>2015-04-29T16:35:28Z</time>
      </trkpt>
      <trkpt lat="44.55186" lon="2.32951">
        <ele>282.4</ele>
        <time>2015-04-29T16:35:31Z</time>
      </trkpt>
      <trkpt lat="44.55189" lon="2.32969">
        <ele>281.9</ele>
        <time>2015-04-29T16:35:34Z</time>
      </trkpt>
      <trkpt lat="44.55192" lon="2.32981">
        <ele>282.6</ele>
        <time>2015-04-29T16:35:36Z</time>
      </trkpt>
      <trkpt lat="44.55195" lon="2.32994">
        <ele>283</ele>
        <time>2015-04-29T16:35:38Z</time>
      </trkpt>
      <trkpt lat="44.55198" lon="2.33006">
        <ele>283.3</ele>
        <time>2015-04-29T16:35:40Z</time>
      </trkpt>
      <trkpt lat="44.55201" lon="2.33019">
        <ele>283.4</ele>
        <time>2015-04-29T16:35:42Z</time>
      </trkpt>
      <trkpt lat="44.55205" lon="2.33045">
        <ele>284.5</ele>
        <time>2015-04-29T16:35:46Z</time>
      </trkpt>
      <trkpt lat="44.55208" lon="2.33058">
        <ele>284.6</ele>
        <time>2015-04-29T16:35:48Z</time>
      </trkpt>
      <trkpt lat="44.55211" lon="2.33072">
        <ele>284.1</ele>
        <time>2015-04-29T16:35:50Z</time>
      </trkpt>
      <trkpt lat="44.55213" lon="2.33086">
        <ele>283.5</ele>
        <time>2015-04-29T16:35:52Z</time>
      </trkpt>
      <trkpt lat="44.55214" lon="2.331">
        <ele>283.7</ele>
        <time>2015-04-29T16:35:54Z</time>
      </trkpt>
      <trkpt lat="44.55215" lon="2.33113">
        <ele>284.1</ele>
        <time>2015-04-29T16:35:56Z</time>
      </trkpt>
      <trkpt lat="44.55216" lon="2.33127">
        <ele>285</ele>
        <time>2015-04-29T16:35:58Z</time>
      </trkpt>
      <trkpt lat="44.55217" lon="2.3314">
        <ele>285.1</ele>
        <time>2015-04-29T16:36:00Z</time>
      </trkpt>
      <trkpt lat="44.55216" lon="2.33154">
        <ele>284.8</ele>
        <time>2015-04-29T16:36:02Z</time>
      </trkpt>
      <trkpt lat="44.55214" lon="2.33168">
        <ele>285.3</ele>
        <time>2015-04-29T16:36:04Z</time>
      </trkpt>
      <trkpt lat="44.55212" lon="2.33186">
        <ele>285</ele>
        <time>2015-04-29T16:36:06Z</time>
      </trkpt>
      <trkpt lat="44.55206" lon="2.33217">
        <ele>285</ele>
        <time>2015-04-29T16:36:10Z</time>
      </trkpt>
      <trkpt lat="44.55203" lon="2.33236">
        <ele>285.7</ele>
        <time>2015-04-29T16:36:13Z</time>
      </trkpt>
      <trkpt lat="44.55201" lon="2.33253">
        <ele>285.6</ele>
        <time>2015-04-29T16:36:15Z</time>
      </trkpt>
      <trkpt lat="44.55198" lon="2.3327">
        <ele>285.2</ele>
        <time>2015-04-29T16:36:17Z</time>
      </trkpt>
      <trkpt lat="44.55196" lon="2.33289">
        <ele>285</ele>
        <time>2015-04-29T16:36:19Z</time>
      </trkpt>
      <trkpt lat="44.55194" lon="2.33306">
        <ele>284.4</ele>
        <time>2015-04-29T16:36:21Z</time>
      </trkpt>
      <trkpt lat="44.55193" lon="2.33322">
        <ele>284.7</ele>
        <time>2015-04-29T16:36:23Z</time>
      </trkpt>
      <trkpt lat="44.55191" lon="2.33337">
        <ele>285.4</ele>
        <time>2015-04-29T16:36:25Z</time>
      </trkpt>
      <trkpt lat="44.55189" lon="2.33354">
        <ele>284.9</ele>
        <time>2015-04-29T16:36:27Z</time>
      </trkpt>
      <trkpt lat="44.55186" lon="2.3337">
        <ele>284.7</ele>
        <time>2015-04-29T16:36:29Z</time>
      </trkpt>
      <trkpt lat="44.55184" lon="2.33386">
        <ele>284.6</ele>
        <time>2015-04-29T16:36:31Z</time>
      </trkpt>
      <trkpt lat="44.55181" lon="2.33402">
        <ele>285.8</ele>
        <time>2015-04-29T16:36:33Z</time>
      </trkpt>
      <trkpt lat="44.55178" lon="2.33417">
        <ele>286.5</ele>
        <time>2015-04-29T16:36:35Z</time>
      </trkpt>
      <trkpt lat="44.55175" lon="2.33431">
        <ele>287.4</ele>
        <time>2015-04-29T16:36:37Z</time>
      </trkpt>
      <trkpt lat="44.55172" lon="2.33447">
        <ele>288.1</ele>
        <time>2015-04-29T16:36:40Z</time>
      </trkpt>
      <trkpt lat="44.5517" lon="2.33461">
        <ele>288.4</ele>
        <time>2015-04-29T16:36:43Z</time>
      </trkpt>
      <trkpt lat="44.55167" lon="2.33462">
        <ele>289.2</ele>
        <time>2015-04-29T16:36:58Z</time>
      </trkpt>
      <trkpt lat="44.55177" lon="2.33465">
        <ele>289.1</ele>
        <time>2015-04-29T16:37:05Z</time>
      </trkpt>
      <trkpt lat="44.55185" lon="2.3347">
        <ele>289.9</ele>
        <time>2015-04-29T16:37:11Z</time>
      </trkpt>
      <trkpt lat="44.55195" lon="2.33475">
        <ele>291.1</ele>
        <time>2015-04-29T16:37:17Z</time>
      </trkpt>
      <trkpt lat="44.55204" lon="2.33476">
        <ele>292.5</ele>
        <time>2015-04-29T16:37:23Z</time>
      </trkpt>
      <trkpt lat="44.55214" lon="2.33475">
        <ele>294</ele>
        <time>2015-04-29T16:37:31Z</time>
      </trkpt>
      <trkpt lat="44.55224" lon="2.33475">
        <ele>295.4</ele>
        <time>2015-04-29T16:37:40Z</time>
      </trkpt>
      <trkpt lat="44.55233" lon="2.33473">
        <ele>297.2</ele>
        <time>2015-04-29T16:37:48Z</time>
      </trkpt>
      <trkpt lat="44.55252" lon="2.33469">
        <ele>299.4</ele>
        <time>2015-04-29T16:38:03Z</time>
      </trkpt>
      <trkpt lat="44.55262" lon="2.33468">
        <ele>301.4</ele>
        <time>2015-04-29T16:38:12Z</time>
      </trkpt>
      <trkpt lat="44.55271" lon="2.3347">
        <ele>302.1</ele>
        <time>2015-04-29T16:38:21Z</time>
      </trkpt>
      <trkpt lat="44.55281" lon="2.33471">
        <ele>305.1</ele>
        <time>2015-04-29T16:38:31Z</time>
      </trkpt>
      <trkpt lat="44.5529" lon="2.33475">
        <ele>305.1</ele>
        <time>2015-04-29T16:38:42Z</time>
      </trkpt>
      <trkpt lat="44.553" lon="2.33479">
        <ele>307.5</ele>
        <time>2015-04-29T16:38:53Z</time>
      </trkpt>
      <trkpt lat="44.55318" lon="2.33487">
        <ele>311.9</ele>
        <time>2015-04-29T16:39:15Z</time>
      </trkpt>
      <trkpt lat="44.55326" lon="2.33495">
        <ele>313.3</ele>
        <time>2015-04-29T16:39:27Z</time>
      </trkpt>
      <trkpt lat="44.55322" lon="2.33506">
        <ele>316.5</ele>
        <time>2015-04-29T16:39:41Z</time>
      </trkpt>
      <trkpt lat="44.55315" lon="2.33515">
        <ele>317.9</ele>
        <time>2015-04-29T16:39:52Z</time>
      </trkpt>
      <trkpt lat="44.5532" lon="2.33525">
        <ele>318.4</ele>
        <time>2015-04-29T16:40:04Z</time>
      </trkpt>
      <trkpt lat="44.55337" lon="2.33539">
        <ele>322.3</ele>
        <time>2015-04-29T16:40:48Z</time>
      </trkpt>
      <trkpt lat="44.55344" lon="2.33549">
        <ele>324</ele>
        <time>2015-04-29T16:40:58Z</time>
      </trkpt>
      <trkpt lat="44.55351" lon="2.33558">
        <ele>325.9</ele>
        <time>2015-04-29T16:41:06Z</time>
      </trkpt>
      <trkpt lat="44.55363" lon="2.33579">
        <ele>329</ele>
        <time>2015-04-29T16:41:26Z</time>
      </trkpt>
      <trkpt lat="44.55369" lon="2.3359">
        <ele>330.8</ele>
        <time>2015-04-29T16:41:35Z</time>
      </trkpt>
      <trkpt lat="44.55374" lon="2.33601">
        <ele>332</ele>
        <time>2015-04-29T16:41:44Z</time>
      </trkpt>
      <trkpt lat="44.5538" lon="2.33612">
        <ele>333.8</ele>
        <time>2015-04-29T16:41:53Z</time>
      </trkpt>
      <trkpt lat="44.55388" lon="2.3362">
        <ele>334.1</ele>
        <time>2015-04-29T16:42:03Z</time>
      </trkpt>
      <trkpt lat="44.55396" lon="2.33627">
        <ele>334.7</ele>
        <time>2015-04-29T16:42:10Z</time>
      </trkpt>
      <trkpt lat="44.55411" lon="2.33644">
        <ele>337</ele>
        <time>2015-04-29T16:42:23Z</time>
      </trkpt>
      <trkpt lat="44.55418" lon="2.33654">
        <ele>337.6</ele>
        <time>2015-04-29T16:42:30Z</time>
      </trkpt>
      <trkpt lat="44.55425" lon="2.33665">
        <ele>338.6</ele>
        <time>2015-04-29T16:42:36Z</time>
      </trkpt>
      <trkpt lat="44.55431" lon="2.33676">
        <ele>340.6</ele>
        <time>2015-04-29T16:42:41Z</time>
      </trkpt>
      <trkpt lat="44.55437" lon="2.33687">
        <ele>340.8</ele>
        <time>2015-04-29T16:42:46Z</time>
      </trkpt>
      <trkpt lat="44.55442" lon="2.33699">
        <ele>342.1</ele>
        <time>2015-04-29T16:42:51Z</time>
      </trkpt>
      <trkpt lat="44.55446" lon="2.33711">
        <ele>341.9</ele>
        <time>2015-04-29T16:42:56Z</time>
      </trkpt>
      <trkpt lat="44.55449" lon="2.33724">
        <ele>342.7</ele>
        <time>2015-04-29T16:43:01Z</time>
      </trkpt>
      <trkpt lat="44.55453" lon="2.33738">
        <ele>344.5</ele>
        <time>2015-04-29T16:43:06Z</time>
      </trkpt>
      <trkpt lat="44.55457" lon="2.3375">
        <ele>345.9</ele>
        <time>2015-04-29T16:43:10Z</time>
      </trkpt>
      <trkpt lat="44.5546" lon="2.33763">
        <ele>345.2</ele>
        <time>2015-04-29T16:43:14Z</time>
      </trkpt>
      <trkpt lat="44.55469" lon="2.33786">
        <ele>346</ele>
        <time>2015-04-29T16:43:22Z</time>
      </trkpt>
      <trkpt lat="44.55476" lon="2.33795">
        <ele>345.3</ele>
        <time>2015-04-29T16:43:26Z</time>
      </trkpt>
      <trkpt lat="44.55484" lon="2.33804">
        <ele>345.9</ele>
        <time>2015-04-29T16:43:30Z</time>
      </trkpt>
      <trkpt lat="44.55495" lon="2.33809">
        <ele>346.1</ele>
        <time>2015-04-29T16:43:34Z</time>
      </trkpt>
      <trkpt lat="44.55507" lon="2.33813">
        <ele>347.4</ele>
        <time>2015-04-29T16:43:38Z</time>
      </trkpt>
      <trkpt lat="44.55518" lon="2.33816">
        <ele>347.4</ele>
        <time>2015-04-29T16:43:42Z</time>
      </trkpt>
      <trkpt lat="44.55528" lon="2.33819">
        <ele>348.1</ele>
        <time>2015-04-29T16:43:46Z</time>
      </trkpt>
      <trkpt lat="44.55538" lon="2.33824">
        <ele>348.9</ele>
        <time>2015-04-29T16:43:52Z</time>
      </trkpt>
      <trkpt lat="44.55547" lon="2.3383">
        <ele>350.2</ele>
        <time>2015-04-29T16:43:57Z</time>
      </trkpt>
      <trkpt lat="44.55555" lon="2.33839">
        <ele>351.9</ele>
        <time>2015-04-29T16:44:02Z</time>
      </trkpt>
      <trkpt lat="44.55562" lon="2.3385">
        <ele>351.7</ele>
        <time>2015-04-29T16:44:06Z</time>
      </trkpt>
      <trkpt lat="44.55568" lon="2.33863">
        <ele>351.9</ele>
        <time>2015-04-29T16:44:10Z</time>
      </trkpt>
      <trkpt lat="44.55573" lon="2.33877">
        <ele>351.5</ele>
        <time>2015-04-29T16:44:13Z</time>
      </trkpt>
      <trkpt lat="44.55578" lon="2.33893">
        <ele>352</ele>
        <time>2015-04-29T16:44:16Z</time>
      </trkpt>
      <trkpt lat="44.55586" lon="2.3392">
        <ele>351</ele>
        <time>2015-04-29T16:44:20Z</time>
      </trkpt>
      <trkpt lat="44.5559" lon="2.33934">
        <ele>350.6</ele>
        <time>2015-04-29T16:44:22Z</time>
      </trkpt>
      <trkpt lat="44.55594" lon="2.33947">
        <ele>350.3</ele>
        <time>2015-04-29T16:44:24Z</time>
      </trkpt>
      <trkpt lat="44.556" lon="2.33963">
        <ele>348.7</ele>
        <time>2015-04-29T16:44:27Z</time>
      </trkpt>
      <trkpt lat="44.55607" lon="2.33976">
        <ele>348.7</ele>
        <time>2015-04-29T16:44:30Z</time>
      </trkpt>
      <trkpt lat="44.55616" lon="2.33988">
        <ele>348</ele>
        <time>2015-04-29T16:44:33Z</time>
      </trkpt>
      <trkpt lat="44.55626" lon="2.34">
        <ele>346.7</ele>
        <time>2015-04-29T16:44:36Z</time>
      </trkpt>
      <trkpt lat="44.55633" lon="2.34009">
        <ele>347.3</ele>
        <time>2015-04-29T16:44:38Z</time>
      </trkpt>
      <trkpt lat="44.55638" lon="2.3402">
        <ele>347.6</ele>
        <time>2015-04-29T16:44:40Z</time>
      </trkpt>
      <trkpt lat="44.55643" lon="2.34037">
        <ele>347.7</ele>
        <time>2015-04-29T16:44:43Z</time>
      </trkpt>
      <trkpt lat="44.55647" lon="2.34052">
        <ele>347.5</ele>
        <time>2015-04-29T16:44:46Z</time>
      </trkpt>
      <trkpt lat="44.55648" lon="2.34067">
        <ele>348.1</ele>
        <time>2015-04-29T16:44:49Z</time>
      </trkpt>
      <trkpt lat="44.55649" lon="2.34082">
        <ele>349.7</ele>
        <time>2015-04-29T16:44:52Z</time>
      </trkpt>
      <trkpt lat="44.5565" lon="2.34096">
        <ele>349.8</ele>
        <time>2015-04-29T16:44:55Z</time>
      </trkpt>
      <trkpt lat="44.55651" lon="2.34113">
        <ele>351.5</ele>
        <time>2015-04-29T16:44:59Z</time>
      </trkpt>
      <trkpt lat="44.55652" lon="2.34129">
        <ele>352.3</ele>
        <time>2015-04-29T16:45:03Z</time>
      </trkpt>
      <trkpt lat="44.55656" lon="2.34144">
        <ele>352.8</ele>
        <time>2015-04-29T16:45:07Z</time>
      </trkpt>
      <trkpt lat="44.55662" lon="2.34157">
        <ele>353.4</ele>
        <time>2015-04-29T16:45:11Z</time>
      </trkpt>
      <trkpt lat="44.55671" lon="2.34164">
        <ele>355.2</ele>
        <time>2015-04-29T16:45:16Z</time>
      </trkpt>
      <trkpt lat="44.55681" lon="2.34166">
        <ele>356.9</ele>
        <time>2015-04-29T16:45:23Z</time>
      </trkpt>
      <trkpt lat="44.55701" lon="2.34161">
        <ele>357.4</ele>
        <time>2015-04-29T16:45:32Z</time>
      </trkpt>
      <trkpt lat="44.55712" lon="2.34159">
        <ele>358</ele>
        <time>2015-04-29T16:45:37Z</time>
      </trkpt>
      <trkpt lat="44.55722" lon="2.34161">
        <ele>360</ele>
        <time>2015-04-29T16:45:42Z</time>
      </trkpt>
      <trkpt lat="44.55732" lon="2.34165">
        <ele>360.8</ele>
        <time>2015-04-29T16:45:47Z</time>
      </trkpt>
      <trkpt lat="44.55741" lon="2.3417">
        <ele>362.2</ele>
        <time>2015-04-29T16:45:52Z</time>
      </trkpt>
      <trkpt lat="44.5575" lon="2.34173">
        <ele>362.7</ele>
        <time>2015-04-29T16:45:56Z</time>
      </trkpt>
      <trkpt lat="44.55761" lon="2.34174">
        <ele>363</ele>
        <time>2015-04-29T16:46:01Z</time>
      </trkpt>
      <trkpt lat="44.5577" lon="2.34173">
        <ele>364</ele>
        <time>2015-04-29T16:46:05Z</time>
      </trkpt>
      <trkpt lat="44.5578" lon="2.34173">
        <ele>364.2</ele>
        <time>2015-04-29T16:46:09Z</time>
      </trkpt>
      <trkpt lat="44.5579" lon="2.34175">
        <ele>365.9</ele>
        <time>2015-04-29T16:46:13Z</time>
      </trkpt>
      <trkpt lat="44.55799" lon="2.3418">
        <ele>366.1</ele>
        <time>2015-04-29T16:46:18Z</time>
      </trkpt>
      <trkpt lat="44.55808" lon="2.34188">
        <ele>367.7</ele>
        <time>2015-04-29T16:46:24Z</time>
      </trkpt>
      <trkpt lat="44.55827" lon="2.34196">
        <ele>369.5</ele>
        <time>2015-04-29T16:46:34Z</time>
      </trkpt>
      <trkpt lat="44.55837" lon="2.34198">
        <ele>370.5</ele>
        <time>2015-04-29T16:46:39Z</time>
      </trkpt>
      <trkpt lat="44.55847" lon="2.34197">
        <ele>371.7</ele>
        <time>2015-04-29T16:46:44Z</time>
      </trkpt>
      <trkpt lat="44.55856" lon="2.34196">
        <ele>372.5</ele>
        <time>2015-04-29T16:46:49Z</time>
      </trkpt>
      <trkpt lat="44.55866" lon="2.342">
        <ele>372.5</ele>
        <time>2015-04-29T16:46:54Z</time>
      </trkpt>
      <trkpt lat="44.55872" lon="2.3421">
        <ele>374.1</ele>
        <time>2015-04-29T16:46:59Z</time>
      </trkpt>
      <trkpt lat="44.55871" lon="2.34224">
        <ele>374.4</ele>
        <time>2015-04-29T16:47:06Z</time>
      </trkpt>
      <trkpt lat="44.55866" lon="2.34235">
        <ele>375.5</ele>
        <time>2015-04-29T16:47:11Z</time>
      </trkpt>
      <trkpt lat="44.5586" lon="2.34244">
        <ele>375.6</ele>
        <time>2015-04-29T16:47:16Z</time>
      </trkpt>
      <trkpt lat="44.55854" lon="2.34254">
        <ele>376.2</ele>
        <time>2015-04-29T16:47:21Z</time>
      </trkpt>
      <trkpt lat="44.55846" lon="2.34264">
        <ele>377</ele>
        <time>2015-04-29T16:47:26Z</time>
      </trkpt>
      <trkpt lat="44.55832" lon="2.34284">
        <ele>379</ele>
        <time>2015-04-29T16:47:34Z</time>
      </trkpt>
      <trkpt lat="44.55825" lon="2.34295">
        <ele>380.2</ele>
        <time>2015-04-29T16:47:38Z</time>
      </trkpt>
      <trkpt lat="44.55819" lon="2.34307">
        <ele>380.8</ele>
        <time>2015-04-29T16:47:42Z</time>
      </trkpt>
      <trkpt lat="44.55815" lon="2.34321">
        <ele>381.4</ele>
        <time>2015-04-29T16:47:47Z</time>
      </trkpt>
      <trkpt lat="44.55814" lon="2.34334">
        <ele>381.4</ele>
        <time>2015-04-29T16:47:51Z</time>
      </trkpt>
      <trkpt lat="44.55817" lon="2.34347">
        <ele>382</ele>
        <time>2015-04-29T16:47:55Z</time>
      </trkpt>
      <trkpt lat="44.55824" lon="2.34357">
        <ele>383.1</ele>
        <time>2015-04-29T16:48:00Z</time>
      </trkpt>
      <trkpt lat="44.55835" lon="2.34357">
        <ele>384.3</ele>
        <time>2015-04-29T16:48:05Z</time>
      </trkpt>
      <trkpt lat="44.55845" lon="2.34352">
        <ele>385.6</ele>
        <time>2015-04-29T16:48:11Z</time>
      </trkpt>
      <trkpt lat="44.55854" lon="2.34346">
        <ele>386.7</ele>
        <time>2015-04-29T16:48:16Z</time>
      </trkpt>
      <trkpt lat="44.55864" lon="2.34341">
        <ele>386.9</ele>
        <time>2015-04-29T16:48:21Z</time>
      </trkpt>
      <trkpt lat="44.55873" lon="2.34335">
        <ele>386.4</ele>
        <time>2015-04-29T16:48:26Z</time>
      </trkpt>
      <trkpt lat="44.55883" lon="2.34329">
        <ele>388.4</ele>
        <time>2015-04-29T16:48:31Z</time>
      </trkpt>
      <trkpt lat="44.55901" lon="2.34318">
        <ele>390.3</ele>
        <time>2015-04-29T16:48:40Z</time>
      </trkpt>
      <trkpt lat="44.55909" lon="2.34313">
        <ele>390.8</ele>
        <time>2015-04-29T16:48:44Z</time>
      </trkpt>
      <trkpt lat="44.55919" lon="2.34309">
        <ele>391</ele>
        <time>2015-04-29T16:48:49Z</time>
      </trkpt>
      <trkpt lat="44.55928" lon="2.34307">
        <ele>392.5</ele>
        <time>2015-04-29T16:48:54Z</time>
      </trkpt>
      <trkpt lat="44.55924" lon="2.34295">
        <ele>394.7</ele>
        <time>2015-04-29T16:49:08Z</time>
      </trkpt>
      <trkpt lat="44.55923" lon="2.34282">
        <ele>396.3</ele>
        <time>2015-04-29T16:49:17Z</time>
      </trkpt>
      <trkpt lat="44.55932" lon="2.34281">
        <ele>397.2</ele>
        <time>2015-04-29T16:49:24Z</time>
      </trkpt>
      <trkpt lat="44.55942" lon="2.34281">
        <ele>398.9</ele>
        <time>2015-04-29T16:49:31Z</time>
      </trkpt>
      <trkpt lat="44.55951" lon="2.34278">
        <ele>400.5</ele>
        <time>2015-04-29T16:49:39Z</time>
      </trkpt>
      <trkpt lat="44.5597" lon="2.34278">
        <ele>404.2</ele>
        <time>2015-04-29T16:49:58Z</time>
      </trkpt>
      <trkpt lat="44.55979" lon="2.34279">
        <ele>407.1</ele>
        <time>2015-04-29T16:50:09Z</time>
      </trkpt>
      <trkpt lat="44.55988" lon="2.34279">
        <ele>410.3</ele>
        <time>2015-04-29T16:50:21Z</time>
      </trkpt>
      <trkpt lat="44.55998" lon="2.34281">
        <ele>412.3</ele>
        <time>2015-04-29T16:50:30Z</time>
      </trkpt>
      <trkpt lat="44.56007" lon="2.34281">
        <ele>415.6</ele>
        <time>2015-04-29T16:50:45Z</time>
      </trkpt>
      <trkpt lat="44.56025" lon="2.34287">
        <ele>419.9</ele>
        <time>2015-04-29T16:51:32Z</time>
      </trkpt>
      <trkpt lat="44.56034" lon="2.34286">
        <ele>422.4</ele>
        <time>2015-04-29T16:51:44Z</time>
      </trkpt>
      <trkpt lat="44.56042" lon="2.34278">
        <ele>424.3</ele>
        <time>2015-04-29T16:52:17Z</time>
      </trkpt>
      <trkpt lat="44.56054" lon="2.34259">
        <ele>427.3</ele>
        <time>2015-04-29T16:52:37Z</time>
      </trkpt>
      <trkpt lat="44.56061" lon="2.3425">
        <ele>429.8</ele>
        <time>2015-04-29T16:52:48Z</time>
      </trkpt>
      <trkpt lat="44.5607" lon="2.3425">
        <ele>433.6</ele>
        <time>2015-04-29T16:53:10Z</time>
      </trkpt>
      <trkpt lat="44.56077" lon="2.34258">
        <ele>434.3</ele>
        <time>2015-04-29T16:53:19Z</time>
      </trkpt>
      <trkpt lat="44.5609" lon="2.34279">
        <ele>435.6</ele>
        <time>2015-04-29T16:53:37Z</time>
      </trkpt>
      <trkpt lat="44.56095" lon="2.34289">
        <ele>436.7</ele>
        <time>2015-04-29T16:53:46Z</time>
      </trkpt>
      <trkpt lat="44.56101" lon="2.34299">
        <ele>436.7</ele>
        <time>2015-04-29T16:53:54Z</time>
      </trkpt>
      <trkpt lat="44.56105" lon="2.3431">
        <ele>439</ele>
        <time>2015-04-29T16:54:02Z</time>
      </trkpt>
      <trkpt lat="44.5611" lon="2.34322">
        <ele>440.5</ele>
        <time>2015-04-29T16:54:10Z</time>
      </trkpt>
      <trkpt lat="44.56118" lon="2.34331">
        <ele>441.3</ele>
        <time>2015-04-29T16:54:17Z</time>
      </trkpt>
      <trkpt lat="44.56128" lon="2.34338">
        <ele>441.9</ele>
        <time>2015-04-29T16:54:24Z</time>
      </trkpt>
      <trkpt lat="44.56139" lon="2.34361">
        <ele>443.5</ele>
        <time>2015-04-29T16:54:38Z</time>
      </trkpt>
      <trkpt lat="44.56147" lon="2.34369">
        <ele>443.6</ele>
        <time>2015-04-29T16:54:45Z</time>
      </trkpt>
      <trkpt lat="44.56147" lon="2.34355">
        <ele>445.9</ele>
        <time>2015-04-29T16:54:55Z</time>
      </trkpt>
      <trkpt lat="44.56144" lon="2.34343">
        <ele>445.7</ele>
        <time>2015-04-29T16:55:02Z</time>
      </trkpt>
      <trkpt lat="44.56139" lon="2.3433">
        <ele>447.2</ele>
        <time>2015-04-29T16:55:09Z</time>
      </trkpt>
      <trkpt lat="44.56137" lon="2.34318">
        <ele>448.1</ele>
        <time>2015-04-29T16:55:15Z</time>
      </trkpt>
      <trkpt lat="44.56137" lon="2.34306">
        <ele>447.7</ele>
        <time>2015-04-29T16:55:22Z</time>
      </trkpt>
      <trkpt lat="44.56139" lon="2.34292">
        <ele>448.3</ele>
        <time>2015-04-29T16:55:30Z</time>
      </trkpt>
      <trkpt lat="44.56139" lon="2.34263">
        <ele>450.9</ele>
        <time>2015-04-29T16:55:43Z</time>
      </trkpt>
      <trkpt lat="44.56136" lon="2.34248">
        <ele>452.1</ele>
        <time>2015-04-29T16:55:49Z</time>
      </trkpt>
      <trkpt lat="44.56133" lon="2.34236">
        <ele>452.4</ele>
        <time>2015-04-29T16:55:54Z</time>
      </trkpt>
      <trkpt lat="44.56132" lon="2.34221">
        <ele>453.6</ele>
        <time>2015-04-29T16:56:00Z</time>
      </trkpt>
      <trkpt lat="44.56132" lon="2.34208">
        <ele>454.3</ele>
        <time>2015-04-29T16:56:06Z</time>
      </trkpt>
      <trkpt lat="44.56135" lon="2.34195">
        <ele>455.1</ele>
        <time>2015-04-29T16:56:12Z</time>
      </trkpt>
      <trkpt lat="44.56138" lon="2.34183">
        <ele>456.2</ele>
        <time>2015-04-29T16:56:18Z</time>
      </trkpt>
      <trkpt lat="44.56144" lon="2.34172">
        <ele>456.5</ele>
        <time>2015-04-29T16:56:25Z</time>
      </trkpt>
      <trkpt lat="44.56151" lon="2.34162">
        <ele>458.5</ele>
        <time>2015-04-29T16:56:31Z</time>
      </trkpt>
      <trkpt lat="44.56167" lon="2.34143">
        <ele>460.2</ele>
        <time>2015-04-29T16:56:44Z</time>
      </trkpt>
      <trkpt lat="44.56174" lon="2.34136">
        <ele>460.8</ele>
        <time>2015-04-29T16:56:50Z</time>
      </trkpt>
      <trkpt lat="44.56174" lon="2.34149">
        <ele>460.2</ele>
        <time>2015-04-29T16:57:01Z</time>
      </trkpt>
      <trkpt lat="44.56165" lon="2.34153">
        <ele>461</ele>
        <time>2015-04-29T16:57:08Z</time>
      </trkpt>
      <trkpt lat="44.5616" lon="2.34164">
        <ele>462.1</ele>
        <time>2015-04-29T16:57:14Z</time>
      </trkpt>
      <trkpt lat="44.56159" lon="2.34178">
        <ele>463.6</ele>
        <time>2015-04-29T16:57:20Z</time>
      </trkpt>
      <trkpt lat="44.56165" lon="2.3419">
        <ele>464.5</ele>
        <time>2015-04-29T16:57:26Z</time>
      </trkpt>
      <trkpt lat="44.56171" lon="2.34199">
        <ele>465.6</ele>
        <time>2015-04-29T16:57:32Z</time>
      </trkpt>
      <trkpt lat="44.56186" lon="2.34219">
        <ele>467.1</ele>
        <time>2015-04-29T16:57:46Z</time>
      </trkpt>
      <trkpt lat="44.56191" lon="2.34231">
        <ele>467.9</ele>
        <time>2015-04-29T16:57:53Z</time>
      </trkpt>
      <trkpt lat="44.56194" lon="2.34243">
        <ele>469.6</ele>
        <time>2015-04-29T16:58:00Z</time>
      </trkpt>
      <trkpt lat="44.56197" lon="2.34256">
        <ele>470.5</ele>
        <time>2015-04-29T16:58:06Z</time>
      </trkpt>
      <trkpt lat="44.56199" lon="2.34269">
        <ele>471.5</ele>
        <time>2015-04-29T16:58:12Z</time>
      </trkpt>
      <trkpt lat="44.562" lon="2.34283">
        <ele>471.5</ele>
        <time>2015-04-29T16:58:18Z</time>
      </trkpt>
      <trkpt lat="44.56201" lon="2.34297">
        <ele>473</ele>
        <time>2015-04-29T16:58:24Z</time>
      </trkpt>
      <trkpt lat="44.56206" lon="2.3431">
        <ele>474.5</ele>
        <time>2015-04-29T16:58:30Z</time>
      </trkpt>
      <trkpt lat="44.56212" lon="2.3432">
        <ele>474.5</ele>
        <time>2015-04-29T16:58:35Z</time>
      </trkpt>
      <trkpt lat="44.56225" lon="2.34341">
        <ele>476</ele>
        <time>2015-04-29T16:58:47Z</time>
      </trkpt>
      <trkpt lat="44.56231" lon="2.34351">
        <ele>477.4</ele>
        <time>2015-04-29T16:58:53Z</time>
      </trkpt>
      <trkpt lat="44.56238" lon="2.3436">
        <ele>478.2</ele>
        <time>2015-04-29T16:58:58Z</time>
      </trkpt>
      <trkpt lat="44.56244" lon="2.34372">
        <ele>478.9</ele>
        <time>2015-04-29T16:59:04Z</time>
      </trkpt>
      <trkpt lat="44.56247" lon="2.34385">
        <ele>478.4</ele>
        <time>2015-04-29T16:59:10Z</time>
      </trkpt>
      <trkpt lat="44.56252" lon="2.34398">
        <ele>479.3</ele>
        <time>2015-04-29T16:59:16Z</time>
      </trkpt>
      <trkpt lat="44.56256" lon="2.3441">
        <ele>481.1</ele>
        <time>2015-04-29T16:59:23Z</time>
      </trkpt>
      <trkpt lat="44.56257" lon="2.34423">
        <ele>481.8</ele>
        <time>2015-04-29T16:59:31Z</time>
      </trkpt>
      <trkpt lat="44.56256" lon="2.34438">
        <ele>483.4</ele>
        <time>2015-04-29T16:59:38Z</time>
      </trkpt>
      <trkpt lat="44.56259" lon="2.34465">
        <ele>485.2</ele>
        <time>2015-04-29T16:59:51Z</time>
      </trkpt>
      <trkpt lat="44.56263" lon="2.34477">
        <ele>485.7</ele>
        <time>2015-04-29T16:59:57Z</time>
      </trkpt>
      <trkpt lat="44.56267" lon="2.34488">
        <ele>486.7</ele>
        <time>2015-04-29T17:00:03Z</time>
      </trkpt>
      <trkpt lat="44.5627" lon="2.34501">
        <ele>487.7</ele>
        <time>2015-04-29T17:00:09Z</time>
      </trkpt>
      <trkpt lat="44.56272" lon="2.34514">
        <ele>487.8</ele>
        <time>2015-04-29T17:00:15Z</time>
      </trkpt>
      <trkpt lat="44.56278" lon="2.34526">
        <ele>489.7</ele>
        <time>2015-04-29T17:00:22Z</time>
      </trkpt>
      <trkpt lat="44.56282" lon="2.34513">
        <ele>490.9</ele>
        <time>2015-04-29T17:00:32Z</time>
      </trkpt>
      <trkpt lat="44.56282" lon="2.345">
        <ele>492.4</ele>
        <time>2015-04-29T17:00:40Z</time>
      </trkpt>
      <trkpt lat="44.56287" lon="2.34474">
        <ele>494.3</ele>
        <time>2015-04-29T17:00:54Z</time>
      </trkpt>
      <trkpt lat="44.56291" lon="2.34461">
        <ele>496</ele>
        <time>2015-04-29T17:01:02Z</time>
      </trkpt>
      <trkpt lat="44.56296" lon="2.34448">
        <ele>497.4</ele>
        <time>2015-04-29T17:01:10Z</time>
      </trkpt>
      <trkpt lat="44.56301" lon="2.34438">
        <ele>497.4</ele>
        <time>2015-04-29T17:01:17Z</time>
      </trkpt>
      <trkpt lat="44.56305" lon="2.34426">
        <ele>499.6</ele>
        <time>2015-04-29T17:01:24Z</time>
      </trkpt>
      <trkpt lat="44.56304" lon="2.34412">
        <ele>499.6</ele>
        <time>2015-04-29T17:01:31Z</time>
      </trkpt>
      <trkpt lat="44.563" lon="2.34399">
        <ele>500.9</ele>
        <time>2015-04-29T17:01:38Z</time>
      </trkpt>
      <trkpt lat="44.56296" lon="2.34385">
        <ele>501.8</ele>
        <time>2015-04-29T17:01:45Z</time>
      </trkpt>
      <trkpt lat="44.56297" lon="2.34358">
        <ele>503.3</ele>
        <time>2015-04-29T17:01:57Z</time>
      </trkpt>
      <trkpt lat="44.56297" lon="2.34343">
        <ele>505.6</ele>
        <time>2015-04-29T17:02:04Z</time>
      </trkpt>
      <trkpt lat="44.56298" lon="2.34329">
        <ele>506.6</ele>
        <time>2015-04-29T17:02:10Z</time>
      </trkpt>
      <trkpt lat="44.563" lon="2.34317">
        <ele>506.7</ele>
        <time>2015-04-29T17:02:16Z</time>
      </trkpt>
      <trkpt lat="44.56304" lon="2.34305">
        <ele>508.3</ele>
        <time>2015-04-29T17:02:23Z</time>
      </trkpt>
      <trkpt lat="44.56308" lon="2.34293">
        <ele>508.3</ele>
        <time>2015-04-29T17:02:29Z</time>
      </trkpt>
      <trkpt lat="44.56312" lon="2.34281">
        <ele>509.2</ele>
        <time>2015-04-29T17:02:35Z</time>
      </trkpt>
      <trkpt lat="44.56318" lon="2.34268">
        <ele>511.2</ele>
        <time>2015-04-29T17:02:41Z</time>
      </trkpt>
      <trkpt lat="44.56322" lon="2.34256">
        <ele>511.2</ele>
        <time>2015-04-29T17:02:47Z</time>
      </trkpt>
      <trkpt lat="44.56333" lon="2.34234">
        <ele>513</ele>
        <time>2015-04-29T17:02:59Z</time>
      </trkpt>
      <trkpt lat="44.5634" lon="2.34224">
        <ele>514.4</ele>
        <time>2015-04-29T17:03:06Z</time>
      </trkpt>
      <trkpt lat="44.56347" lon="2.34216">
        <ele>514.4</ele>
        <time>2015-04-29T17:03:14Z</time>
      </trkpt>
      <trkpt lat="44.56356" lon="2.3421">
        <ele>516.7</ele>
        <time>2015-04-29T17:03:21Z</time>
      </trkpt>
      <trkpt lat="44.56364" lon="2.34202">
        <ele>517.8</ele>
        <time>2015-04-29T17:03:27Z</time>
      </trkpt>
      <trkpt lat="44.56372" lon="2.34193">
        <ele>518.1</ele>
        <time>2015-04-29T17:03:33Z</time>
      </trkpt>
      <trkpt lat="44.56378" lon="2.34184">
        <ele>518.4</ele>
        <time>2015-04-29T17:03:39Z</time>
      </trkpt>
      <trkpt lat="44.56381" lon="2.34196">
        <ele>521.3</ele>
        <time>2015-04-29T17:03:53Z</time>
      </trkpt>
      <trkpt lat="44.56371" lon="2.3422">
        <ele>523.3</ele>
        <time>2015-04-29T17:04:11Z</time>
      </trkpt>
      <trkpt lat="44.56367" lon="2.34232">
        <ele>525</ele>
        <time>2015-04-29T17:04:19Z</time>
      </trkpt>
      <trkpt lat="44.56363" lon="2.34245">
        <ele>525.6</ele>
        <time>2015-04-29T17:04:27Z</time>
      </trkpt>
      <trkpt lat="44.56362" lon="2.34258">
        <ele>525.2</ele>
        <time>2015-04-29T17:04:34Z</time>
      </trkpt>
      <trkpt lat="44.56363" lon="2.34272">
        <ele>525.5</ele>
        <time>2015-04-29T17:04:40Z</time>
      </trkpt>
      <trkpt lat="44.56362" lon="2.34286">
        <ele>527.2</ele>
        <time>2015-04-29T17:04:46Z</time>
      </trkpt>
      <trkpt lat="44.56362" lon="2.34301">
        <ele>529.7</ele>
        <time>2015-04-29T17:04:53Z</time>
      </trkpt>
      <trkpt lat="44.56364" lon="2.34314">
        <ele>528.9</ele>
        <time>2015-04-29T17:04:59Z</time>
      </trkpt>
      <trkpt lat="44.5637" lon="2.34339">
        <ele>530.6</ele>
        <time>2015-04-29T17:05:12Z</time>
      </trkpt>
      <trkpt lat="44.56373" lon="2.34351">
        <ele>531</ele>
        <time>2015-04-29T17:05:17Z</time>
      </trkpt>
      <trkpt lat="44.56376" lon="2.34365">
        <ele>532</ele>
        <time>2015-04-29T17:05:22Z</time>
      </trkpt>
      <trkpt lat="44.56379" lon="2.34377">
        <ele>532.8</ele>
        <time>2015-04-29T17:05:27Z</time>
      </trkpt>
      <trkpt lat="44.56383" lon="2.34391">
        <ele>533.6</ele>
        <time>2015-04-29T17:05:33Z</time>
      </trkpt>
      <trkpt lat="44.56386" lon="2.34404">
        <ele>534.8</ele>
        <time>2015-04-29T17:05:38Z</time>
      </trkpt>
      <trkpt lat="44.56388" lon="2.34417">
        <ele>535.6</ele>
        <time>2015-04-29T17:05:43Z</time>
      </trkpt>
      <trkpt lat="44.56391" lon="2.34431">
        <ele>536.3</ele>
        <time>2015-04-29T17:05:49Z</time>
      </trkpt>
      <trkpt lat="44.56393" lon="2.34445">
        <ele>537.8</ele>
        <time>2015-04-29T17:05:55Z</time>
      </trkpt>
      <trkpt lat="44.56396" lon="2.3446">
        <ele>538.9</ele>
        <time>2015-04-29T17:06:01Z</time>
      </trkpt>
      <trkpt lat="44.56407" lon="2.34485">
        <ele>540.8</ele>
        <time>2015-04-29T17:06:13Z</time>
      </trkpt>
      <trkpt lat="44.56412" lon="2.34495">
        <ele>542.1</ele>
        <time>2015-04-29T17:06:20Z</time>
      </trkpt>
      <trkpt lat="44.56421" lon="2.34501">
        <ele>543.7</ele>
        <time>2015-04-29T17:06:28Z</time>
      </trkpt>
      <trkpt lat="44.56431" lon="2.345">
        <ele>546.1</ele>
        <time>2015-04-29T17:06:36Z</time>
      </trkpt>
      <trkpt lat="44.5644" lon="2.34499">
        <ele>546.9</ele>
        <time>2015-04-29T17:06:43Z</time>
      </trkpt>
      <trkpt lat="44.5645" lon="2.34498">
        <ele>547.4</ele>
        <time>2015-04-29T17:06:51Z</time>
      </trkpt>
      <trkpt lat="44.56459" lon="2.34496">
        <ele>549.1</ele>
        <time>2015-04-29T17:06:58Z</time>
      </trkpt>
      <trkpt lat="44.56469" lon="2.34496">
        <ele>549</ele>
        <time>2015-04-29T17:07:06Z</time>
      </trkpt>
      <trkpt lat="44.56487" lon="2.34503">
        <ele>551.2</ele>
        <time>2015-04-29T17:07:23Z</time>
      </trkpt>
      <trkpt lat="44.56494" lon="2.34512">
        <ele>552.5</ele>
        <time>2015-04-29T17:07:31Z</time>
      </trkpt>
      <trkpt lat="44.565" lon="2.34522">
        <ele>554.3</ele>
        <time>2015-04-29T17:07:40Z</time>
      </trkpt>
      <trkpt lat="44.56504" lon="2.34534">
        <ele>555.9</ele>
        <time>2015-04-29T17:07:49Z</time>
      </trkpt>
      <trkpt lat="44.56507" lon="2.34546">
        <ele>557.2</ele>
        <time>2015-04-29T17:07:57Z</time>
      </trkpt>
      <trkpt lat="44.56512" lon="2.34558">
        <ele>559.3</ele>
        <time>2015-04-29T17:08:06Z</time>
      </trkpt>
      <trkpt lat="44.56515" lon="2.34571">
        <ele>560.7</ele>
        <time>2015-04-29T17:08:16Z</time>
      </trkpt>
      <trkpt lat="44.56528" lon="2.34591">
        <ele>563.1</ele>
        <time>2015-04-29T17:08:34Z</time>
      </trkpt>
      <trkpt lat="44.56538" lon="2.34588">
        <ele>564.7</ele>
        <time>2015-04-29T17:08:44Z</time>
      </trkpt>
      <trkpt lat="44.56546" lon="2.34581">
        <ele>565.7</ele>
        <time>2015-04-29T17:08:54Z</time>
      </trkpt>
      <trkpt lat="44.56554" lon="2.34574">
        <ele>568.1</ele>
        <time>2015-04-29T17:09:02Z</time>
      </trkpt>
      <trkpt lat="44.56562" lon="2.34569">
        <ele>569.6</ele>
        <time>2015-04-29T17:09:10Z</time>
      </trkpt>
      <trkpt lat="44.56571" lon="2.34564">
        <ele>571</ele>
        <time>2015-04-29T17:09:20Z</time>
      </trkpt>
      <trkpt lat="44.56589" lon="2.34556">
        <ele>575</ele>
        <time>2015-04-29T17:09:38Z</time>
      </trkpt>
      <trkpt lat="44.56597" lon="2.34552">
        <ele>576.6</ele>
        <time>2015-04-29T17:09:46Z</time>
      </trkpt>
      <trkpt lat="44.56606" lon="2.34546">
        <ele>578</ele>
        <time>2015-04-29T17:09:54Z</time>
      </trkpt>
      <trkpt lat="44.56614" lon="2.3454">
        <ele>579.8</ele>
        <time>2015-04-29T17:10:03Z</time>
      </trkpt>
      <trkpt lat="44.56623" lon="2.34534">
        <ele>580</ele>
        <time>2015-04-29T17:10:08Z</time>
      </trkpt>
      <trkpt lat="44.56632" lon="2.34527">
        <ele>581.4</ele>
        <time>2015-04-29T17:10:14Z</time>
      </trkpt>
      <trkpt lat="44.56642" lon="2.34523">
        <ele>583</ele>
        <time>2015-04-29T17:10:20Z</time>
      </trkpt>
      <trkpt lat="44.56652" lon="2.3452">
        <ele>582.8</ele>
        <time>2015-04-29T17:10:25Z</time>
      </trkpt>
      <trkpt lat="44.56671" lon="2.34512">
        <ele>584.9</ele>
        <time>2015-04-29T17:10:34Z</time>
      </trkpt>
      <trkpt lat="44.5668" lon="2.34508">
        <ele>584.8</ele>
        <time>2015-04-29T17:10:38Z</time>
      </trkpt>
      <trkpt lat="44.5669" lon="2.34503">
        <ele>584.7</ele>
        <time>2015-04-29T17:10:42Z</time>
      </trkpt>
      <trkpt lat="44.567" lon="2.34495">
        <ele>584.6</ele>
        <time>2015-04-29T17:10:47Z</time>
      </trkpt>
      <trkpt lat="44.56708" lon="2.34488">
        <ele>584.6</ele>
        <time>2015-04-29T17:10:51Z</time>
      </trkpt>
      <trkpt lat="44.56716" lon="2.34482">
        <ele>584.3</ele>
        <time>2015-04-29T17:10:55Z</time>
      </trkpt>
      <trkpt lat="44.56724" lon="2.34474">
        <ele>584.5</ele>
        <time>2015-04-29T17:10:59Z</time>
      </trkpt>
      <trkpt lat="44.56732" lon="2.34467">
        <ele>585.9</ele>
        <time>2015-04-29T17:11:03Z</time>
      </trkpt>
      <trkpt lat="44.5674" lon="2.3446">
        <ele>585.9</ele>
        <time>2015-04-29T17:11:07Z</time>
      </trkpt>
      <trkpt lat="44.56749" lon="2.34455">
        <ele>586.2</ele>
        <time>2015-04-29T17:11:11Z</time>
      </trkpt>
      <trkpt lat="44.56751" lon="2.34441">
        <ele>586.6</ele>
        <time>2015-04-29T17:11:16Z</time>
      </trkpt>
      <trkpt lat="44.56746" lon="2.3443">
        <ele>586.6</ele>
        <time>2015-04-29T17:11:21Z</time>
      </trkpt>
      <trkpt lat="44.56741" lon="2.34418">
        <ele>586.7</ele>
        <time>2015-04-29T17:11:25Z</time>
      </trkpt>
      <trkpt lat="44.56735" lon="2.34405">
        <ele>586.3</ele>
        <time>2015-04-29T17:11:29Z</time>
      </trkpt>
      <trkpt lat="44.56727" lon="2.34377">
        <ele>586.5</ele>
        <time>2015-04-29T17:11:37Z</time>
      </trkpt>
      <trkpt lat="44.56725" lon="2.34361">
        <ele>586.1</ele>
        <time>2015-04-29T17:11:41Z</time>
      </trkpt>
      <trkpt lat="44.56725" lon="2.34345">
        <ele>587.3</ele>
        <time>2015-04-29T17:11:45Z</time>
      </trkpt>
      <trkpt lat="44.56726" lon="2.34328">
        <ele>588.6</ele>
        <time>2015-04-29T17:11:49Z</time>
      </trkpt>
      <trkpt lat="44.56726" lon="2.34312">
        <ele>588.9</ele>
        <time>2015-04-29T17:11:53Z</time>
      </trkpt>
      <trkpt lat="44.56726" lon="2.34296">
        <ele>588.9</ele>
        <time>2015-04-29T17:11:57Z</time>
      </trkpt>
      <trkpt lat="44.56725" lon="2.3428">
        <ele>589.6</ele>
        <time>2015-04-29T17:12:01Z</time>
      </trkpt>
      <trkpt lat="44.56723" lon="2.34264">
        <ele>590.1</ele>
        <time>2015-04-29T17:12:05Z</time>
      </trkpt>
      <trkpt lat="44.5672" lon="2.3425">
        <ele>590.8</ele>
        <time>2015-04-29T17:12:09Z</time>
      </trkpt>
      <trkpt lat="44.56717" lon="2.34235">
        <ele>591.5</ele>
        <time>2015-04-29T17:12:13Z</time>
      </trkpt>
      <trkpt lat="44.56713" lon="2.34221">
        <ele>591.3</ele>
        <time>2015-04-29T17:12:17Z</time>
      </trkpt>
      <trkpt lat="44.5671" lon="2.34206">
        <ele>591.8</ele>
        <time>2015-04-29T17:12:21Z</time>
      </trkpt>
      <trkpt lat="44.56708" lon="2.34191">
        <ele>592.8</ele>
        <time>2015-04-29T17:12:25Z</time>
      </trkpt>
      <trkpt lat="44.5671" lon="2.34175">
        <ele>592.9</ele>
        <time>2015-04-29T17:12:29Z</time>
      </trkpt>
      <trkpt lat="44.56713" lon="2.34159">
        <ele>592.5</ele>
        <time>2015-04-29T17:12:33Z</time>
      </trkpt>
      <trkpt lat="44.56722" lon="2.34135">
        <ele>594.4</ele>
        <time>2015-04-29T17:12:39Z</time>
      </trkpt>
      <trkpt lat="44.56725" lon="2.34123">
        <ele>595</ele>
        <time>2015-04-29T17:12:43Z</time>
      </trkpt>
      <trkpt lat="44.56726" lon="2.3411">
        <ele>594.7</ele>
        <time>2015-04-29T17:12:46Z</time>
      </trkpt>
      <trkpt lat="44.56728" lon="2.34095">
        <ele>594.6</ele>
        <time>2015-04-29T17:12:49Z</time>
      </trkpt>
      <trkpt lat="44.5673" lon="2.34082">
        <ele>594.9</ele>
        <time>2015-04-29T17:12:51Z</time>
      </trkpt>
      <trkpt lat="44.56731" lon="2.34068">
        <ele>593.7</ele>
        <time>2015-04-29T17:12:53Z</time>
      </trkpt>
      <trkpt lat="44.56733" lon="2.34052">
        <ele>592.9</ele>
        <time>2015-04-29T17:12:55Z</time>
      </trkpt>
      <trkpt lat="44.56735" lon="2.34035">
        <ele>592.5</ele>
        <time>2015-04-29T17:12:57Z</time>
      </trkpt>
      <trkpt lat="44.56739" lon="2.34017">
        <ele>591.5</ele>
        <time>2015-04-29T17:12:59Z</time>
      </trkpt>
      <trkpt lat="44.56742" lon="2.33999">
        <ele>590.5</ele>
        <time>2015-04-29T17:13:01Z</time>
      </trkpt>
      <trkpt lat="44.56746" lon="2.3398">
        <ele>589.6</ele>
        <time>2015-04-29T17:13:03Z</time>
      </trkpt>
      <trkpt lat="44.5675" lon="2.3396">
        <ele>588.6</ele>
        <time>2015-04-29T17:13:05Z</time>
      </trkpt>
      <trkpt lat="44.56753" lon="2.3394">
        <ele>587.7</ele>
        <time>2015-04-29T17:13:07Z</time>
      </trkpt>
      <trkpt lat="44.56757" lon="2.3392">
        <ele>585.8</ele>
        <time>2015-04-29T17:13:09Z</time>
      </trkpt>
      <trkpt lat="44.56761" lon="2.339">
        <ele>584.3</ele>
        <time>2015-04-29T17:13:11Z</time>
      </trkpt>
      <trkpt lat="44.56765" lon="2.3388">
        <ele>583.2</ele>
        <time>2015-04-29T17:13:13Z</time>
      </trkpt>
      <trkpt lat="44.56768" lon="2.3386">
        <ele>582.2</ele>
        <time>2015-04-29T17:13:15Z</time>
      </trkpt>
      <trkpt lat="44.56772" lon="2.3384">
        <ele>581.2</ele>
        <time>2015-04-29T17:13:17Z</time>
      </trkpt>
      <trkpt lat="44.56775" lon="2.3382">
        <ele>580.2</ele>
        <time>2015-04-29T17:13:19Z</time>
      </trkpt>
      <trkpt lat="44.56779" lon="2.338">
        <ele>579.4</ele>
        <time>2015-04-29T17:13:21Z</time>
      </trkpt>
      <trkpt lat="44.56782" lon="2.33781">
        <ele>578.8</ele>
        <time>2015-04-29T17:13:23Z</time>
      </trkpt>
      <trkpt lat="44.56784" lon="2.33761">
        <ele>578.4</ele>
        <time>2015-04-29T17:13:25Z</time>
      </trkpt>
      <trkpt lat="44.56784" lon="2.33743">
        <ele>578.3</ele>
        <time>2015-04-29T17:13:27Z</time>
      </trkpt>
      <trkpt lat="44.56784" lon="2.33724">
        <ele>578.4</ele>
        <time>2015-04-29T17:13:29Z</time>
      </trkpt>
      <trkpt lat="44.56785" lon="2.33706">
        <ele>578.1</ele>
        <time>2015-04-29T17:13:31Z</time>
      </trkpt>
      <trkpt lat="44.56785" lon="2.33688">
        <ele>577.8</ele>
        <time>2015-04-29T17:13:33Z</time>
      </trkpt>
      <trkpt lat="44.56785" lon="2.3367">
        <ele>577.5</ele>
        <time>2015-04-29T17:13:35Z</time>
      </trkpt>
      <trkpt lat="44.56785" lon="2.33635">
        <ele>577.3</ele>
        <time>2015-04-29T17:13:39Z</time>
      </trkpt>
      <trkpt lat="44.56783" lon="2.33618">
        <ele>577.4</ele>
        <time>2015-04-29T17:13:41Z</time>
      </trkpt>
      <trkpt lat="44.56782" lon="2.33601">
        <ele>577.3</ele>
        <time>2015-04-29T17:13:43Z</time>
      </trkpt>
      <trkpt lat="44.56779" lon="2.33585">
        <ele>577</ele>
        <time>2015-04-29T17:13:45Z</time>
      </trkpt>
      <trkpt lat="44.56774" lon="2.33569">
        <ele>576.7</ele>
        <time>2015-04-29T17:13:47Z</time>
      </trkpt>
      <trkpt lat="44.56769" lon="2.33554">
        <ele>576.5</ele>
        <time>2015-04-29T17:13:49Z</time>
      </trkpt>
      <trkpt lat="44.56765" lon="2.33539">
        <ele>577.2</ele>
        <time>2015-04-29T17:13:51Z</time>
      </trkpt>
      <trkpt lat="44.5676" lon="2.33526">
        <ele>577.6</ele>
        <time>2015-04-29T17:13:53Z</time>
      </trkpt>
      <trkpt lat="44.56755" lon="2.33514">
        <ele>577.9</ele>
        <time>2015-04-29T17:13:55Z</time>
      </trkpt>
      <trkpt lat="44.5675" lon="2.33501">
        <ele>578.9</ele>
        <time>2015-04-29T17:13:57Z</time>
      </trkpt>
      <trkpt lat="44.56747" lon="2.33489">
        <ele>579.6</ele>
        <time>2015-04-29T17:13:59Z</time>
      </trkpt>
      <trkpt lat="44.56742" lon="2.33472">
        <ele>580.6</ele>
        <time>2015-04-29T17:14:02Z</time>
      </trkpt>
      <trkpt lat="44.56741" lon="2.33455">
        <ele>581.1</ele>
        <time>2015-04-29T17:14:06Z</time>
      </trkpt>
      <trkpt lat="44.56744" lon="2.3344">
        <ele>580.6</ele>
        <time>2015-04-29T17:14:09Z</time>
      </trkpt>
      <trkpt lat="44.56749" lon="2.33422">
        <ele>580.2</ele>
        <time>2015-04-29T17:14:12Z</time>
      </trkpt>
      <trkpt lat="44.56754" lon="2.3341">
        <ele>580.1</ele>
        <time>2015-04-29T17:14:14Z</time>
      </trkpt>
      <trkpt lat="44.56759" lon="2.33396">
        <ele>579.2</ele>
        <time>2015-04-29T17:14:16Z</time>
      </trkpt>
      <trkpt lat="44.56765" lon="2.33382">
        <ele>578.4</ele>
        <time>2015-04-29T17:14:18Z</time>
      </trkpt>
      <trkpt lat="44.5677" lon="2.33367">
        <ele>577.8</ele>
        <time>2015-04-29T17:14:20Z</time>
      </trkpt>
      <trkpt lat="44.56776" lon="2.3335">
        <ele>577.6</ele>
        <time>2015-04-29T17:14:22Z</time>
      </trkpt>
      <trkpt lat="44.56783" lon="2.33334">
        <ele>577.6</ele>
        <time>2015-04-29T17:14:24Z</time>
      </trkpt>
      <trkpt lat="44.56788" lon="2.33318">
        <ele>577</ele>
        <time>2015-04-29T17:14:26Z</time>
      </trkpt>
      <trkpt lat="44.56795" lon="2.33303">
        <ele>576.5</ele>
        <time>2015-04-29T17:14:28Z</time>
      </trkpt>
      <trkpt lat="44.56803" lon="2.33291">
        <ele>576</ele>
        <time>2015-04-29T17:14:30Z</time>
      </trkpt>
      <trkpt lat="44.56812" lon="2.33281">
        <ele>575.6</ele>
        <time>2015-04-29T17:14:32Z</time>
      </trkpt>
      <trkpt lat="44.5682" lon="2.33271">
        <ele>575.6</ele>
        <time>2015-04-29T17:14:34Z</time>
      </trkpt>
      <trkpt lat="44.56828" lon="2.33261">
        <ele>575.7</ele>
        <time>2015-04-29T17:14:36Z</time>
      </trkpt>
      <trkpt lat="44.56845" lon="2.33241">
        <ele>575</ele>
        <time>2015-04-29T17:14:40Z</time>
      </trkpt>
      <trkpt lat="44.56855" lon="2.33231">
        <ele>574.7</ele>
        <time>2015-04-29T17:14:42Z</time>
      </trkpt>
      <trkpt lat="44.56864" lon="2.3322">
        <ele>574.4</ele>
        <time>2015-04-29T17:14:44Z</time>
      </trkpt>
      <trkpt lat="44.56874" lon="2.33209">
        <ele>574.2</ele>
        <time>2015-04-29T17:14:46Z</time>
      </trkpt>
      <trkpt lat="44.56885" lon="2.33197">
        <ele>573.6</ele>
        <time>2015-04-29T17:14:48Z</time>
      </trkpt>
      <trkpt lat="44.56895" lon="2.33184">
        <ele>572.9</ele>
        <time>2015-04-29T17:14:50Z</time>
      </trkpt>
      <trkpt lat="44.56906" lon="2.33171">
        <ele>572.1</ele>
        <time>2015-04-29T17:14:52Z</time>
      </trkpt>
      <trkpt lat="44.56916" lon="2.33157">
        <ele>570.7</ele>
        <time>2015-04-29T17:14:54Z</time>
      </trkpt>
      <trkpt lat="44.56925" lon="2.33141">
        <ele>569.9</ele>
        <time>2015-04-29T17:14:56Z</time>
      </trkpt>
      <trkpt lat="44.56934" lon="2.33125">
        <ele>569.4</ele>
        <time>2015-04-29T17:14:58Z</time>
      </trkpt>
      <trkpt lat="44.56942" lon="2.33107">
        <ele>568.3</ele>
        <time>2015-04-29T17:15:00Z</time>
      </trkpt>
      <trkpt lat="44.56945" lon="2.33088">
        <ele>567.1</ele>
        <time>2015-04-29T17:15:02Z</time>
      </trkpt>
      <trkpt lat="44.5694" lon="2.3307">
        <ele>566.6</ele>
        <time>2015-04-29T17:15:04Z</time>
      </trkpt>
      <trkpt lat="44.56931" lon="2.33055">
        <ele>566.1</ele>
        <time>2015-04-29T17:15:06Z</time>
      </trkpt>
      <trkpt lat="44.56918" lon="2.33045">
        <ele>565.7</ele>
        <time>2015-04-29T17:15:08Z</time>
      </trkpt>
      <trkpt lat="44.56902" lon="2.33041">
        <ele>564.9</ele>
        <time>2015-04-29T17:15:10Z</time>
      </trkpt>
      <trkpt lat="44.56887" lon="2.33046">
        <ele>564.4</ele>
        <time>2015-04-29T17:15:12Z</time>
      </trkpt>
      <trkpt lat="44.5687" lon="2.33056">
        <ele>563.4</ele>
        <time>2015-04-29T17:15:14Z</time>
      </trkpt>
      <trkpt lat="44.56862" lon="2.3306">
        <ele>563.1</ele>
        <time>2015-04-29T17:15:15Z</time>
      </trkpt>
      <trkpt lat="44.56853" lon="2.33065">
        <ele>562.3</ele>
        <time>2015-04-29T17:15:16Z</time>
      </trkpt>
      <trkpt lat="44.56844" lon="2.3307">
        <ele>561.7</ele>
        <time>2015-04-29T17:15:17Z</time>
      </trkpt>
      <trkpt lat="44.56836" lon="2.33076">
        <ele>561.3</ele>
        <time>2015-04-29T17:15:18Z</time>
      </trkpt>
      <trkpt lat="44.56827" lon="2.33083">
        <ele>560</ele>
        <time>2015-04-29T17:15:19Z</time>
      </trkpt>
      <trkpt lat="44.56819" lon="2.33091">
        <ele>559</ele>
        <time>2015-04-29T17:15:20Z</time>
      </trkpt>
      <trkpt lat="44.56812" lon="2.33101">
        <ele>558.3</ele>
        <time>2015-04-29T17:15:21Z</time>
      </trkpt>
      <trkpt lat="44.56804" lon="2.33108">
        <ele>557.9</ele>
        <time>2015-04-29T17:15:22Z</time>
      </trkpt>
      <trkpt lat="44.56796" lon="2.33114">
        <ele>557.7</ele>
        <time>2015-04-29T17:15:23Z</time>
      </trkpt>
      <trkpt lat="44.56786" lon="2.33116">
        <ele>557.5</ele>
        <time>2015-04-29T17:15:24Z</time>
      </trkpt>
      <trkpt lat="44.56772" lon="2.33106">
        <ele>555.8</ele>
        <time>2015-04-29T17:15:26Z</time>
      </trkpt>
      <trkpt lat="44.56764" lon="2.33086">
        <ele>554.9</ele>
        <time>2015-04-29T17:15:28Z</time>
      </trkpt>
      <trkpt lat="44.56757" lon="2.33065">
        <ele>554.1</ele>
        <time>2015-04-29T17:15:30Z</time>
      </trkpt>
      <trkpt lat="44.56749" lon="2.33045">
        <ele>553.6</ele>
        <time>2015-04-29T17:15:32Z</time>
      </trkpt>
      <trkpt lat="44.56737" lon="2.33028">
        <ele>553.3</ele>
        <time>2015-04-29T17:15:34Z</time>
      </trkpt>
      <trkpt lat="44.56724" lon="2.33015">
        <ele>552.2</ele>
        <time>2015-04-29T17:15:36Z</time>
      </trkpt>
      <trkpt lat="44.56709" lon="2.33005">
        <ele>551.5</ele>
        <time>2015-04-29T17:15:38Z</time>
      </trkpt>
      <trkpt lat="44.56685" lon="2.32982">
        <ele>549.6</ele>
        <time>2015-04-29T17:15:42Z</time>
      </trkpt>
      <trkpt lat="44.56676" lon="2.32974">
        <ele>547.7</ele>
        <time>2015-04-29T17:15:47Z</time>
      </trkpt>
      <trkpt lat="44.5667" lon="2.32986">
        <ele>546.6</ele>
        <time>2015-04-29T17:16:39Z</time>
      </trkpt>
      <trkpt lat="44.56651" lon="2.32998">
        <ele>546.8</ele>
        <time>2015-04-29T17:16:45Z</time>
      </trkpt>
      <trkpt lat="44.56643" lon="2.33004">
        <ele>546.9</ele>
        <time>2015-04-29T17:16:47Z</time>
      </trkpt>
      <trkpt lat="44.56634" lon="2.33011">
        <ele>545.9</ele>
        <time>2015-04-29T17:16:49Z</time>
      </trkpt>
      <trkpt lat="44.56622" lon="2.33018">
        <ele>544.6</ele>
        <time>2015-04-29T17:16:51Z</time>
      </trkpt>
      <trkpt lat="44.56609" lon="2.33024">
        <ele>543.9</ele>
        <time>2015-04-29T17:16:53Z</time>
      </trkpt>
      <trkpt lat="44.56596" lon="2.33031">
        <ele>542.5</ele>
        <time>2015-04-29T17:16:55Z</time>
      </trkpt>
      <trkpt lat="44.56587" lon="2.33038">
        <ele>541</ele>
        <time>2015-04-29T17:16:57Z</time>
      </trkpt>
      <trkpt lat="44.56581" lon="2.33049">
        <ele>539.7</ele>
        <time>2015-04-29T17:16:59Z</time>
      </trkpt>
      <trkpt lat="44.56574" lon="2.3306">
        <ele>538.9</ele>
        <time>2015-04-29T17:17:01Z</time>
      </trkpt>
      <trkpt lat="44.56566" lon="2.33073">
        <ele>538.3</ele>
        <time>2015-04-29T17:17:03Z</time>
      </trkpt>
      <trkpt lat="44.56558" lon="2.33085">
        <ele>538.2</ele>
        <time>2015-04-29T17:17:05Z</time>
      </trkpt>
      <trkpt lat="44.56551" lon="2.33097">
        <ele>538.1</ele>
        <time>2015-04-29T17:17:07Z</time>
      </trkpt>
      <trkpt lat="44.56544" lon="2.33109">
        <ele>538.8</ele>
        <time>2015-04-29T17:17:09Z</time>
      </trkpt>
      <trkpt lat="44.56538" lon="2.33124">
        <ele>538.2</ele>
        <time>2015-04-29T17:17:11Z</time>
      </trkpt>
      <trkpt lat="44.56536" lon="2.3314">
        <ele>537.1</ele>
        <time>2015-04-29T17:17:13Z</time>
      </trkpt>
      <trkpt lat="44.56533" lon="2.33157">
        <ele>536.9</ele>
        <time>2015-04-29T17:17:15Z</time>
      </trkpt>
      <trkpt lat="44.56526" lon="2.33174">
        <ele>536.3</ele>
        <time>2015-04-29T17:17:17Z</time>
      </trkpt>
      <trkpt lat="44.56515" lon="2.33186">
        <ele>535.6</ele>
        <time>2015-04-29T17:17:19Z</time>
      </trkpt>
      <trkpt lat="44.56501" lon="2.33197">
        <ele>533.9</ele>
        <time>2015-04-29T17:17:21Z</time>
      </trkpt>
      <trkpt lat="44.56491" lon="2.33213">
        <ele>531.9</ele>
        <time>2015-04-29T17:17:23Z</time>
      </trkpt>
      <trkpt lat="44.56483" lon="2.33233">
        <ele>530</ele>
        <time>2015-04-29T17:17:25Z</time>
      </trkpt>
      <trkpt lat="44.5648" lon="2.33254">
        <ele>527.6</ele>
        <time>2015-04-29T17:17:27Z</time>
      </trkpt>
      <trkpt lat="44.5648" lon="2.33268">
        <ele>525.4</ele>
        <time>2015-04-29T17:17:29Z</time>
      </trkpt>
      <trkpt lat="44.56485" lon="2.33281">
        <ele>521.3</ele>
        <time>2015-04-29T17:17:34Z</time>
      </trkpt>
      <trkpt lat="44.56487" lon="2.33293">
        <ele>521.5</ele>
        <time>2015-04-29T17:17:42Z</time>
      </trkpt>
      <trkpt lat="44.56498" lon="2.33317">
        <ele>524.9</ele>
        <time>2015-04-29T17:17:54Z</time>
      </trkpt>
      <trkpt lat="44.56507" lon="2.33324">
        <ele>525.5</ele>
        <time>2015-04-29T17:17:57Z</time>
      </trkpt>
      <trkpt lat="44.56518" lon="2.33329">
        <ele>526.8</ele>
        <time>2015-04-29T17:18:01Z</time>
      </trkpt>
      <trkpt lat="44.56528" lon="2.33331">
        <ele>527</ele>
        <time>2015-04-29T17:18:06Z</time>
      </trkpt>
      <trkpt lat="44.56536" lon="2.33338">
        <ele>529.1</ele>
        <time>2015-04-29T17:18:14Z</time>
      </trkpt>
      <trkpt lat="44.56542" lon="2.33348">
        <ele>529.6</ele>
        <time>2015-04-29T17:18:22Z</time>
      </trkpt>
      <trkpt lat="44.56544" lon="2.33361">
        <ele>532.3</ele>
        <time>2015-04-29T17:18:32Z</time>
      </trkpt>
      <trkpt lat="44.56543" lon="2.33373">
        <ele>535.3</ele>
        <time>2015-04-29T17:18:43Z</time>
      </trkpt>
      <trkpt lat="44.56544" lon="2.334">
        <ele>540</ele>
        <time>2015-04-29T17:19:19Z</time>
      </trkpt>
      <trkpt lat="44.56543" lon="2.33413">
        <ele>543.7</ele>
        <time>2015-04-29T17:19:40Z</time>
      </trkpt>
      <trkpt lat="44.56543" lon="2.33427">
        <ele>546.1</ele>
        <time>2015-04-29T17:19:51Z</time>
      </trkpt>
      <trkpt lat="44.56519" lon="2.33427">
        <ele>546.9</ele>
        <time>2015-04-29T17:20:15Z</time>
      </trkpt>
      <trkpt lat="44.56507" lon="2.33428">
        <ele>544.9</ele>
        <time>2015-04-29T17:20:17Z</time>
      </trkpt>
      <trkpt lat="44.56494" lon="2.33432">
        <ele>543.1</ele>
        <time>2015-04-29T17:20:19Z</time>
      </trkpt>
      <trkpt lat="44.56481" lon="2.33437">
        <ele>541.5</ele>
        <time>2015-04-29T17:20:21Z</time>
      </trkpt>
      <trkpt lat="44.5647" lon="2.33446">
        <ele>539.2</ele>
        <time>2015-04-29T17:20:23Z</time>
      </trkpt>
      <trkpt lat="44.56459" lon="2.33455">
        <ele>537.9</ele>
        <time>2015-04-29T17:20:25Z</time>
      </trkpt>
      <trkpt lat="44.56446" lon="2.33462">
        <ele>537.1</ele>
        <time>2015-04-29T17:20:27Z</time>
      </trkpt>
      <trkpt lat="44.56432" lon="2.33465">
        <ele>535.6</ele>
        <time>2015-04-29T17:20:29Z</time>
      </trkpt>
      <trkpt lat="44.56415" lon="2.33464">
        <ele>534</ele>
        <time>2015-04-29T17:20:31Z</time>
      </trkpt>
      <trkpt lat="44.56398" lon="2.33459">
        <ele>530.9</ele>
        <time>2015-04-29T17:20:33Z</time>
      </trkpt>
      <trkpt lat="44.56389" lon="2.33455">
        <ele>529.9</ele>
        <time>2015-04-29T17:20:34Z</time>
      </trkpt>
      <trkpt lat="44.56379" lon="2.33452">
        <ele>527.3</ele>
        <time>2015-04-29T17:20:35Z</time>
      </trkpt>
      <trkpt lat="44.5637" lon="2.3345">
        <ele>525.3</ele>
        <time>2015-04-29T17:20:36Z</time>
      </trkpt>
      <trkpt lat="44.56361" lon="2.33448">
        <ele>523.9</ele>
        <time>2015-04-29T17:20:37Z</time>
      </trkpt>
      <trkpt lat="44.56351" lon="2.33446">
        <ele>521.4</ele>
        <time>2015-04-29T17:20:38Z</time>
      </trkpt>
      <trkpt lat="44.56341" lon="2.33444">
        <ele>519.5</ele>
        <time>2015-04-29T17:20:39Z</time>
      </trkpt>
      <trkpt lat="44.56331" lon="2.3344">
        <ele>518.1</ele>
        <time>2015-04-29T17:20:40Z</time>
      </trkpt>
      <trkpt lat="44.56321" lon="2.33436">
        <ele>515.5</ele>
        <time>2015-04-29T17:20:41Z</time>
      </trkpt>
      <trkpt lat="44.5631" lon="2.33433">
        <ele>513.6</ele>
        <time>2015-04-29T17:20:42Z</time>
      </trkpt>
      <trkpt lat="44.56301" lon="2.33431">
        <ele>512.2</ele>
        <time>2015-04-29T17:20:43Z</time>
      </trkpt>
      <trkpt lat="44.56292" lon="2.33429">
        <ele>511.1</ele>
        <time>2015-04-29T17:20:44Z</time>
      </trkpt>
      <trkpt lat="44.56283" lon="2.33426">
        <ele>509.4</ele>
        <time>2015-04-29T17:20:45Z</time>
      </trkpt>
      <trkpt lat="44.56267" lon="2.33419">
        <ele>507.1</ele>
        <time>2015-04-29T17:20:47Z</time>
      </trkpt>
      <trkpt lat="44.56251" lon="2.33409">
        <ele>504.9</ele>
        <time>2015-04-29T17:20:49Z</time>
      </trkpt>
      <trkpt lat="44.56242" lon="2.33404">
        <ele>504.1</ele>
        <time>2015-04-29T17:20:50Z</time>
      </trkpt>
      <trkpt lat="44.56233" lon="2.33399">
        <ele>502.4</ele>
        <time>2015-04-29T17:20:51Z</time>
      </trkpt>
      <trkpt lat="44.56223" lon="2.33393">
        <ele>501.1</ele>
        <time>2015-04-29T17:20:52Z</time>
      </trkpt>
      <trkpt lat="44.56203" lon="2.33379">
        <ele>497.6</ele>
        <time>2015-04-29T17:20:54Z</time>
      </trkpt>
      <trkpt lat="44.56192" lon="2.33374">
        <ele>495.8</ele>
        <time>2015-04-29T17:20:55Z</time>
      </trkpt>
      <trkpt lat="44.56181" lon="2.3337">
        <ele>494.4</ele>
        <time>2015-04-29T17:20:56Z</time>
      </trkpt>
      <trkpt lat="44.5617" lon="2.33367">
        <ele>491.8</ele>
        <time>2015-04-29T17:20:57Z</time>
      </trkpt>
      <trkpt lat="44.56159" lon="2.33365">
        <ele>489.9</ele>
        <time>2015-04-29T17:20:58Z</time>
      </trkpt>
      <trkpt lat="44.56149" lon="2.33362">
        <ele>488.4</ele>
        <time>2015-04-29T17:20:59Z</time>
      </trkpt>
      <trkpt lat="44.56139" lon="2.33361">
        <ele>487.3</ele>
        <time>2015-04-29T17:21:00Z</time>
      </trkpt>
      <trkpt lat="44.56123" lon="2.33365">
        <ele>483.5</ele>
        <time>2015-04-29T17:21:02Z</time>
      </trkpt>
      <trkpt lat="44.56108" lon="2.33375">
        <ele>480.7</ele>
        <time>2015-04-29T17:21:04Z</time>
      </trkpt>
      <trkpt lat="44.56095" lon="2.33389">
        <ele>478.7</ele>
        <time>2015-04-29T17:21:06Z</time>
      </trkpt>
      <trkpt lat="44.56087" lon="2.33398">
        <ele>477.1</ele>
        <time>2015-04-29T17:21:08Z</time>
      </trkpt>
      <trkpt lat="44.56081" lon="2.33408">
        <ele>475.4</ele>
        <time>2015-04-29T17:21:10Z</time>
      </trkpt>
      <trkpt lat="44.56072" lon="2.3342">
        <ele>473.9</ele>
        <time>2015-04-29T17:21:12Z</time>
      </trkpt>
      <trkpt lat="44.56059" lon="2.33426">
        <ele>471.7</ele>
        <time>2015-04-29T17:21:14Z</time>
      </trkpt>
      <trkpt lat="44.56049" lon="2.33422">
        <ele>470.5</ele>
        <time>2015-04-29T17:21:16Z</time>
      </trkpt>
      <trkpt lat="44.56043" lon="2.33409">
        <ele>467.5</ele>
        <time>2015-04-29T17:21:18Z</time>
      </trkpt>
      <trkpt lat="44.5604" lon="2.33395">
        <ele>466</ele>
        <time>2015-04-29T17:21:20Z</time>
      </trkpt>
      <trkpt lat="44.56037" lon="2.33379">
        <ele>465.2</ele>
        <time>2015-04-29T17:21:22Z</time>
      </trkpt>
      <trkpt lat="44.56032" lon="2.33362">
        <ele>463.4</ele>
        <time>2015-04-29T17:21:24Z</time>
      </trkpt>
      <trkpt lat="44.56027" lon="2.33342">
        <ele>461.8</ele>
        <time>2015-04-29T17:21:26Z</time>
      </trkpt>
      <trkpt lat="44.56022" lon="2.33318">
        <ele>460.3</ele>
        <time>2015-04-29T17:21:28Z</time>
      </trkpt>
      <trkpt lat="44.56021" lon="2.33295">
        <ele>457.4</ele>
        <time>2015-04-29T17:21:30Z</time>
      </trkpt>
      <trkpt lat="44.5602" lon="2.33273">
        <ele>455.3</ele>
        <time>2015-04-29T17:21:32Z</time>
      </trkpt>
      <trkpt lat="44.5602" lon="2.3326">
        <ele>454.3</ele>
        <time>2015-04-29T17:21:33Z</time>
      </trkpt>
      <trkpt lat="44.56019" lon="2.33247">
        <ele>453.6</ele>
        <time>2015-04-29T17:21:34Z</time>
      </trkpt>
      <trkpt lat="44.56019" lon="2.33234">
        <ele>453.1</ele>
        <time>2015-04-29T17:21:35Z</time>
      </trkpt>
      <trkpt lat="44.56018" lon="2.33213">
        <ele>448.9</ele>
        <time>2015-04-29T17:21:37Z</time>
      </trkpt>
      <trkpt lat="44.56011" lon="2.33202">
        <ele>445.6</ele>
        <time>2015-04-29T17:21:39Z</time>
      </trkpt>
      <trkpt lat="44.55998" lon="2.33198">
        <ele>443</ele>
        <time>2015-04-29T17:21:41Z</time>
      </trkpt>
      <trkpt lat="44.55983" lon="2.33201">
        <ele>439.6</ele>
        <time>2015-04-29T17:21:43Z</time>
      </trkpt>
      <trkpt lat="44.55968" lon="2.3321">
        <ele>437.2</ele>
        <time>2015-04-29T17:21:45Z</time>
      </trkpt>
      <trkpt lat="44.55958" lon="2.33209">
        <ele>435.5</ele>
        <time>2015-04-29T17:21:47Z</time>
      </trkpt>
      <trkpt lat="44.55952" lon="2.33196">
        <ele>432.6</ele>
        <time>2015-04-29T17:21:49Z</time>
      </trkpt>
      <trkpt lat="44.55951" lon="2.3318">
        <ele>430.9</ele>
        <time>2015-04-29T17:21:51Z</time>
      </trkpt>
      <trkpt lat="44.55956" lon="2.33166">
        <ele>428.1</ele>
        <time>2015-04-29T17:21:53Z</time>
      </trkpt>
      <trkpt lat="44.55949" lon="2.33145">
        <ele>425.1</ele>
        <time>2015-04-29T17:21:59Z</time>
      </trkpt>
      <trkpt lat="44.55936" lon="2.33142">
        <ele>423.3</ele>
        <time>2015-04-29T17:22:01Z</time>
      </trkpt>
      <trkpt lat="44.55918" lon="2.33143">
        <ele>421.6</ele>
        <time>2015-04-29T17:22:03Z</time>
      </trkpt>
      <trkpt lat="44.55901" lon="2.33141">
        <ele>418.4</ele>
        <time>2015-04-29T17:22:05Z</time>
      </trkpt>
      <trkpt lat="44.55888" lon="2.33134">
        <ele>416.7</ele>
        <time>2015-04-29T17:22:07Z</time>
      </trkpt>
      <trkpt lat="44.55878" lon="2.33123">
        <ele>412.5</ele>
        <time>2015-04-29T17:22:09Z</time>
      </trkpt>
      <trkpt lat="44.55865" lon="2.33116">
        <ele>409.1</ele>
        <time>2015-04-29T17:22:11Z</time>
      </trkpt>
      <trkpt lat="44.55857" lon="2.33106">
        <ele>406.4</ele>
        <time>2015-04-29T17:22:13Z</time>
      </trkpt>
      <trkpt lat="44.55854" lon="2.3309">
        <ele>403</ele>
        <time>2015-04-29T17:22:15Z</time>
      </trkpt>
      <trkpt lat="44.55855" lon="2.33073">
        <ele>400.5</ele>
        <time>2015-04-29T17:22:17Z</time>
      </trkpt>
      <trkpt lat="44.55851" lon="2.33059">
        <ele>397.7</ele>
        <time>2015-04-29T17:22:20Z</time>
      </trkpt>
      <trkpt lat="44.55842" lon="2.33063">
        <ele>396.6</ele>
        <time>2015-04-29T17:22:22Z</time>
      </trkpt>
      <trkpt lat="44.55831" lon="2.33074">
        <ele>395.2</ele>
        <time>2015-04-29T17:22:24Z</time>
      </trkpt>
      <trkpt lat="44.55824" lon="2.3309">
        <ele>393.9</ele>
        <time>2015-04-29T17:22:26Z</time>
      </trkpt>
      <trkpt lat="44.55822" lon="2.3311">
        <ele>391.9</ele>
        <time>2015-04-29T17:22:28Z</time>
      </trkpt>
      <trkpt lat="44.55821" lon="2.33125">
        <ele>390.1</ele>
        <time>2015-04-29T17:22:30Z</time>
      </trkpt>
      <trkpt lat="44.55823" lon="2.33139">
        <ele>388.5</ele>
        <time>2015-04-29T17:22:32Z</time>
      </trkpt>
      <trkpt lat="44.55825" lon="2.33154">
        <ele>388.1</ele>
        <time>2015-04-29T17:22:34Z</time>
      </trkpt>
      <trkpt lat="44.55826" lon="2.33171">
        <ele>387.2</ele>
        <time>2015-04-29T17:22:36Z</time>
      </trkpt>
      <trkpt lat="44.55825" lon="2.33189">
        <ele>386</ele>
        <time>2015-04-29T17:22:38Z</time>
      </trkpt>
      <trkpt lat="44.5582" lon="2.33209">
        <ele>383.7</ele>
        <time>2015-04-29T17:22:40Z</time>
      </trkpt>
      <trkpt lat="44.55813" lon="2.33226">
        <ele>382.4</ele>
        <time>2015-04-29T17:22:42Z</time>
      </trkpt>
      <trkpt lat="44.55804" lon="2.33237">
        <ele>380.4</ele>
        <time>2015-04-29T17:22:44Z</time>
      </trkpt>
      <trkpt lat="44.55795" lon="2.33245">
        <ele>378.7</ele>
        <time>2015-04-29T17:22:46Z</time>
      </trkpt>
      <trkpt lat="44.55786" lon="2.33252">
        <ele>377.2</ele>
        <time>2015-04-29T17:22:48Z</time>
      </trkpt>
      <trkpt lat="44.55778" lon="2.33259">
        <ele>374.3</ele>
        <time>2015-04-29T17:22:50Z</time>
      </trkpt>
      <trkpt lat="44.55769" lon="2.33267">
        <ele>372</ele>
        <time>2015-04-29T17:22:52Z</time>
      </trkpt>
      <trkpt lat="44.5576" lon="2.33277">
        <ele>370.1</ele>
        <time>2015-04-29T17:22:54Z</time>
      </trkpt>
      <trkpt lat="44.55752" lon="2.33283">
        <ele>368.6</ele>
        <time>2015-04-29T17:22:56Z</time>
      </trkpt>
      <trkpt lat="44.55729" lon="2.333">
        <ele>365.7</ele>
        <time>2015-04-29T17:23:01Z</time>
      </trkpt>
      <trkpt lat="44.5572" lon="2.33309">
        <ele>363.9</ele>
        <time>2015-04-29T17:23:03Z</time>
      </trkpt>
      <trkpt lat="44.55711" lon="2.33322">
        <ele>362.3</ele>
        <time>2015-04-29T17:23:05Z</time>
      </trkpt>
      <trkpt lat="44.55701" lon="2.33334">
        <ele>360.8</ele>
        <time>2015-04-29T17:23:07Z</time>
      </trkpt>
      <trkpt lat="44.55693" lon="2.33339">
        <ele>359.3</ele>
        <time>2015-04-29T17:23:09Z</time>
      </trkpt>
      <trkpt lat="44.55683" lon="2.33342">
        <ele>357.9</ele>
        <time>2015-04-29T17:23:11Z</time>
      </trkpt>
      <trkpt lat="44.55672" lon="2.33349">
        <ele>356.5</ele>
        <time>2015-04-29T17:23:13Z</time>
      </trkpt>
      <trkpt lat="44.55663" lon="2.33358">
        <ele>355.1</ele>
        <time>2015-04-29T17:23:15Z</time>
      </trkpt>
      <trkpt lat="44.55654" lon="2.33371">
        <ele>353.7</ele>
        <time>2015-04-29T17:23:17Z</time>
      </trkpt>
      <trkpt lat="44.55645" lon="2.33387">
        <ele>352.3</ele>
        <time>2015-04-29T17:23:19Z</time>
      </trkpt>
      <trkpt lat="44.55637" lon="2.33405">
        <ele>351.4</ele>
        <time>2015-04-29T17:23:21Z</time>
      </trkpt>
      <trkpt lat="44.55628" lon="2.33421">
        <ele>350.9</ele>
        <time>2015-04-29T17:23:23Z</time>
      </trkpt>
      <trkpt lat="44.55623" lon="2.33441">
        <ele>349.3</ele>
        <time>2015-04-29T17:23:25Z</time>
      </trkpt>
      <trkpt lat="44.5562" lon="2.33464">
        <ele>347.4</ele>
        <time>2015-04-29T17:23:27Z</time>
      </trkpt>
      <trkpt lat="44.55623" lon="2.33488">
        <ele>345.5</ele>
        <time>2015-04-29T17:23:29Z</time>
      </trkpt>
      <trkpt lat="44.55626" lon="2.33509">
        <ele>344.1</ele>
        <time>2015-04-29T17:23:31Z</time>
      </trkpt>
      <trkpt lat="44.5562" lon="2.33518">
        <ele>343.1</ele>
        <time>2015-04-29T17:23:33Z</time>
      </trkpt>
      <trkpt lat="44.55612" lon="2.33509">
        <ele>341.5</ele>
        <time>2015-04-29T17:23:35Z</time>
      </trkpt>
      <trkpt lat="44.55604" lon="2.33495">
        <ele>340.2</ele>
        <time>2015-04-29T17:23:37Z</time>
      </trkpt>
      <trkpt lat="44.55595" lon="2.33479">
        <ele>339.1</ele>
        <time>2015-04-29T17:23:39Z</time>
      </trkpt>
      <trkpt lat="44.55588" lon="2.3346">
        <ele>337.3</ele>
        <time>2015-04-29T17:23:41Z</time>
      </trkpt>
      <trkpt lat="44.55579" lon="2.33439">
        <ele>335.5</ele>
        <time>2015-04-29T17:23:43Z</time>
      </trkpt>
      <trkpt lat="44.55571" lon="2.33416">
        <ele>334.1</ele>
        <time>2015-04-29T17:23:45Z</time>
      </trkpt>
      <trkpt lat="44.55568" lon="2.33404">
        <ele>332.9</ele>
        <time>2015-04-29T17:23:46Z</time>
      </trkpt>
      <trkpt lat="44.55566" lon="2.33391">
        <ele>332.1</ele>
        <time>2015-04-29T17:23:47Z</time>
      </trkpt>
      <trkpt lat="44.55561" lon="2.3337">
        <ele>331</ele>
        <time>2015-04-29T17:23:49Z</time>
      </trkpt>
      <trkpt lat="44.55552" lon="2.33367">
        <ele>329.7</ele>
        <time>2015-04-29T17:23:51Z</time>
      </trkpt>
      <trkpt lat="44.55549" lon="2.33381">
        <ele>328.7</ele>
        <time>2015-04-29T17:23:53Z</time>
      </trkpt>
      <trkpt lat="44.55549" lon="2.33401">
        <ele>327.8</ele>
        <time>2015-04-29T17:23:55Z</time>
      </trkpt>
      <trkpt lat="44.55549" lon="2.33423">
        <ele>326.4</ele>
        <time>2015-04-29T17:23:57Z</time>
      </trkpt>
      <trkpt lat="44.55539" lon="2.33464">
        <ele>322.8</ele>
        <time>2015-04-29T17:24:01Z</time>
      </trkpt>
      <trkpt lat="44.55528" lon="2.33465">
        <ele>321.6</ele>
        <time>2015-04-29T17:24:03Z</time>
      </trkpt>
      <trkpt lat="44.55519" lon="2.33451">
        <ele>320.9</ele>
        <time>2015-04-29T17:24:05Z</time>
      </trkpt>
      <trkpt lat="44.55509" lon="2.33434">
        <ele>319.1</ele>
        <time>2015-04-29T17:24:07Z</time>
      </trkpt>
      <trkpt lat="44.55497" lon="2.33416">
        <ele>317.1</ele>
        <time>2015-04-29T17:24:09Z</time>
      </trkpt>
      <trkpt lat="44.5549" lon="2.33407">
        <ele>316.1</ele>
        <time>2015-04-29T17:24:10Z</time>
      </trkpt>
      <trkpt lat="44.55484" lon="2.33398">
        <ele>315.3</ele>
        <time>2015-04-29T17:24:11Z</time>
      </trkpt>
      <trkpt lat="44.55477" lon="2.33389">
        <ele>314.4</ele>
        <time>2015-04-29T17:24:12Z</time>
      </trkpt>
      <trkpt lat="44.55472" lon="2.33378">
        <ele>313.6</ele>
        <time>2015-04-29T17:24:13Z</time>
      </trkpt>
      <trkpt lat="44.55467" lon="2.33367">
        <ele>313.1</ele>
        <time>2015-04-29T17:24:14Z</time>
      </trkpt>
      <trkpt lat="44.55461" lon="2.33356">
        <ele>311.9</ele>
        <time>2015-04-29T17:24:15Z</time>
      </trkpt>
      <trkpt lat="44.55455" lon="2.33346">
        <ele>311.1</ele>
        <time>2015-04-29T17:24:16Z</time>
      </trkpt>
      <trkpt lat="44.55448" lon="2.33336">
        <ele>310.4</ele>
        <time>2015-04-29T17:24:17Z</time>
      </trkpt>
      <trkpt lat="44.55441" lon="2.33327">
        <ele>309.7</ele>
        <time>2015-04-29T17:24:18Z</time>
      </trkpt>
      <trkpt lat="44.55436" lon="2.33316">
        <ele>309.1</ele>
        <time>2015-04-29T17:24:19Z</time>
      </trkpt>
      <trkpt lat="44.55433" lon="2.33304">
        <ele>308.7</ele>
        <time>2015-04-29T17:24:20Z</time>
      </trkpt>
      <trkpt lat="44.55433" lon="2.33291">
        <ele>308.4</ele>
        <time>2015-04-29T17:24:21Z</time>
      </trkpt>
      <trkpt lat="44.55436" lon="2.33279">
        <ele>307</ele>
        <time>2015-04-29T17:24:22Z</time>
      </trkpt>
      <trkpt lat="44.55441" lon="2.33268">
        <ele>305.9</ele>
        <time>2015-04-29T17:24:23Z</time>
      </trkpt>
      <trkpt lat="44.55449" lon="2.3326">
        <ele>305.1</ele>
        <time>2015-04-29T17:24:24Z</time>
      </trkpt>
      <trkpt lat="44.55458" lon="2.33254">
        <ele>304.2</ele>
        <time>2015-04-29T17:24:25Z</time>
      </trkpt>
      <trkpt lat="44.55466" lon="2.33249">
        <ele>303.6</ele>
        <time>2015-04-29T17:24:26Z</time>
      </trkpt>
      <trkpt lat="44.55476" lon="2.33237">
        <ele>302.3</ele>
        <time>2015-04-29T17:24:28Z</time>
      </trkpt>
      <trkpt lat="44.55467" lon="2.33228">
        <ele>301.4</ele>
        <time>2015-04-29T17:24:30Z</time>
      </trkpt>
      <trkpt lat="44.55453" lon="2.33229">
        <ele>299.5</ele>
        <time>2015-04-29T17:24:32Z</time>
      </trkpt>
      <trkpt lat="44.55437" lon="2.33228">
        <ele>297.9</ele>
        <time>2015-04-29T17:24:34Z</time>
      </trkpt>
      <trkpt lat="44.5542" lon="2.33222">
        <ele>296.5</ele>
        <time>2015-04-29T17:24:36Z</time>
      </trkpt>
      <trkpt lat="44.55411" lon="2.33219">
        <ele>296.1</ele>
        <time>2015-04-29T17:24:37Z</time>
      </trkpt>
      <trkpt lat="44.55402" lon="2.33216">
        <ele>295.1</ele>
        <time>2015-04-29T17:24:38Z</time>
      </trkpt>
      <trkpt lat="44.55392" lon="2.33212">
        <ele>294.4</ele>
        <time>2015-04-29T17:24:39Z</time>
      </trkpt>
      <trkpt lat="44.55382" lon="2.33208">
        <ele>293.9</ele>
        <time>2015-04-29T17:24:40Z</time>
      </trkpt>
      <trkpt lat="44.55372" lon="2.33203">
        <ele>292.6</ele>
        <time>2015-04-29T17:24:41Z</time>
      </trkpt>
      <trkpt lat="44.55362" lon="2.33199">
        <ele>291.6</ele>
        <time>2015-04-29T17:24:42Z</time>
      </trkpt>
      <trkpt lat="44.55351" lon="2.33194">
        <ele>290.9</ele>
        <time>2015-04-29T17:24:43Z</time>
      </trkpt>
      <trkpt lat="44.55341" lon="2.3319">
        <ele>289.7</ele>
        <time>2015-04-29T17:24:44Z</time>
      </trkpt>
      <trkpt lat="44.5533" lon="2.33185">
        <ele>288.8</ele>
        <time>2015-04-29T17:24:45Z</time>
      </trkpt>
      <trkpt lat="44.5532" lon="2.33181">
        <ele>288.2</ele>
        <time>2015-04-29T17:24:46Z</time>
      </trkpt>
      <trkpt lat="44.55309" lon="2.33176">
        <ele>286.7</ele>
        <time>2015-04-29T17:24:47Z</time>
      </trkpt>
      <trkpt lat="44.55299" lon="2.33172">
        <ele>285.5</ele>
        <time>2015-04-29T17:24:48Z</time>
      </trkpt>
      <trkpt lat="44.55289" lon="2.33167">
        <ele>284.7</ele>
        <time>2015-04-29T17:24:49Z</time>
      </trkpt>
      <trkpt lat="44.55278" lon="2.33163">
        <ele>283.4</ele>
        <time>2015-04-29T17:24:50Z</time>
      </trkpt>
      <trkpt lat="44.55268" lon="2.3316">
        <ele>282.5</ele>
        <time>2015-04-29T17:24:51Z</time>
      </trkpt>
      <trkpt lat="44.55258" lon="2.33158">
        <ele>281.8</ele>
        <time>2015-04-29T17:24:52Z</time>
      </trkpt>
      <trkpt lat="44.55249" lon="2.33155">
        <ele>281.3</ele>
        <time>2015-04-29T17:24:53Z</time>
      </trkpt>
      <trkpt lat="44.55235" lon="2.3315">
        <ele>281.2</ele>
        <time>2015-04-29T17:24:55Z</time>
      </trkpt>
      <trkpt lat="44.55227" lon="2.33141">
        <ele>282</ele>
        <time>2015-04-29T17:24:58Z</time>
      </trkpt>
      <trkpt lat="44.55223" lon="2.33111">
        <ele>283.3</ele>
        <time>2015-04-29T17:25:03Z</time>
      </trkpt>
      <trkpt lat="44.55221" lon="2.33098">
        <ele>283.2</ele>
        <time>2015-04-29T17:25:05Z</time>
      </trkpt>
      <trkpt lat="44.55219" lon="2.33084">
        <ele>283.1</ele>
        <time>2015-04-29T17:25:07Z</time>
      </trkpt>
      <trkpt lat="44.55217" lon="2.33069">
        <ele>282.8</ele>
        <time>2015-04-29T17:25:09Z</time>
      </trkpt>
      <trkpt lat="44.55214" lon="2.33054">
        <ele>282.4</ele>
        <time>2015-04-29T17:25:11Z</time>
      </trkpt>
      <trkpt lat="44.55211" lon="2.33037">
        <ele>282.3</ele>
        <time>2015-04-29T17:25:13Z</time>
      </trkpt>
      <trkpt lat="44.55208" lon="2.33021">
        <ele>282.4</ele>
        <time>2015-04-29T17:25:15Z</time>
      </trkpt>
      <trkpt lat="44.55204" lon="2.33004">
        <ele>282</ele>
        <time>2015-04-29T17:25:17Z</time>
      </trkpt>
      <trkpt lat="44.552" lon="2.32986">
        <ele>281.5</ele>
        <time>2015-04-29T17:25:19Z</time>
      </trkpt>
      <trkpt lat="44.55196" lon="2.32969">
        <ele>280.9</ele>
        <time>2015-04-29T17:25:21Z</time>
      </trkpt>
      <trkpt lat="44.55192" lon="2.32951">
        <ele>281</ele>
        <time>2015-04-29T17:25:23Z</time>
      </trkpt>
      <trkpt lat="44.5519" lon="2.32932">
        <ele>280.8</ele>
        <time>2015-04-29T17:25:25Z</time>
      </trkpt>
      <trkpt lat="44.55188" lon="2.32912">
        <ele>280.5</ele>
        <time>2015-04-29T17:25:27Z</time>
      </trkpt>
      <trkpt lat="44.55188" lon="2.32891">
        <ele>280</ele>
        <time>2015-04-29T17:25:29Z</time>
      </trkpt>
      <trkpt lat="44.55187" lon="2.3287">
        <ele>279.3</ele>
        <time>2015-04-29T17:25:31Z</time>
      </trkpt>
      <trkpt lat="44.55188" lon="2.32849">
        <ele>278.3</ele>
        <time>2015-04-29T17:25:33Z</time>
      </trkpt>
      <trkpt lat="44.55188" lon="2.32827">
        <ele>277.5</ele>
        <time>2015-04-29T17:25:35Z</time>
      </trkpt>
      <trkpt lat="44.55188" lon="2.32806">
        <ele>277</ele>
        <time>2015-04-29T17:25:37Z</time>
      </trkpt>
      <trkpt lat="44.55187" lon="2.32784">
        <ele>277</ele>
        <time>2015-04-29T17:25:39Z</time>
      </trkpt>
      <trkpt lat="44.55184" lon="2.32762">
        <ele>276.6</ele>
        <time>2015-04-29T17:25:41Z</time>
      </trkpt>
      <trkpt lat="44.55182" lon="2.32739">
        <ele>276</ele>
        <time>2015-04-29T17:25:43Z</time>
      </trkpt>
      <trkpt lat="44.55179" lon="2.32715">
        <ele>275.7</ele>
        <time>2015-04-29T17:25:45Z</time>
      </trkpt>
      <trkpt lat="44.55177" lon="2.3269">
        <ele>275.5</ele>
        <time>2015-04-29T17:25:47Z</time>
      </trkpt>
      <trkpt lat="44.55174" lon="2.32666">
        <ele>274.8</ele>
        <time>2015-04-29T17:25:49Z</time>
      </trkpt>
      <trkpt lat="44.55172" lon="2.32642">
        <ele>274.2</ele>
        <time>2015-04-29T17:25:51Z</time>
      </trkpt>
      <trkpt lat="44.55174" lon="2.32619">
        <ele>273.6</ele>
        <time>2015-04-29T17:25:53Z</time>
      </trkpt>
      <trkpt lat="44.55178" lon="2.32599">
        <ele>273.2</ele>
        <time>2015-04-29T17:25:55Z</time>
      </trkpt>
      <trkpt lat="44.5518" lon="2.32578">
        <ele>272.8</ele>
        <time>2015-04-29T17:25:57Z</time>
      </trkpt>
      <trkpt lat="44.5518" lon="2.32557">
        <ele>272.4</ele>
        <time>2015-04-29T17:25:59Z</time>
      </trkpt>
      <trkpt lat="44.55173" lon="2.32516">
        <ele>273.8</ele>
        <time>2015-04-29T17:26:03Z</time>
      </trkpt>
      <trkpt lat="44.55168" lon="2.32497">
        <ele>273.8</ele>
        <time>2015-04-29T17:26:05Z</time>
      </trkpt>
      <trkpt lat="44.55163" lon="2.32478">
        <ele>274</ele>
        <time>2015-04-29T17:26:07Z</time>
      </trkpt>
      <trkpt lat="44.55158" lon="2.32459">
        <ele>274.2</ele>
        <time>2015-04-29T17:26:09Z</time>
      </trkpt>
      <trkpt lat="44.55154" lon="2.3244">
        <ele>274.1</ele>
        <time>2015-04-29T17:26:11Z</time>
      </trkpt>
      <trkpt lat="44.55149" lon="2.32423">
        <ele>274</ele>
        <time>2015-04-29T17:26:13Z</time>
      </trkpt>
      <trkpt lat="44.55145" lon="2.32405">
        <ele>273.8</ele>
        <time>2015-04-29T17:26:15Z</time>
      </trkpt>
      <trkpt lat="44.5514" lon="2.32388">
        <ele>273.8</ele>
        <time>2015-04-29T17:26:17Z</time>
      </trkpt>
      <trkpt lat="44.55136" lon="2.32371">
        <ele>273.8</ele>
        <time>2015-04-29T17:26:19Z</time>
      </trkpt>
      <trkpt lat="44.55132" lon="2.32354">
        <ele>273.6</ele>
        <time>2015-04-29T17:26:21Z</time>
      </trkpt>
      <trkpt lat="44.55128" lon="2.32338">
        <ele>273.6</ele>
        <time>2015-04-29T17:26:23Z</time>
      </trkpt>
      <trkpt lat="44.55123" lon="2.32321">
        <ele>273.8</ele>
        <time>2015-04-29T17:26:25Z</time>
      </trkpt>
      <trkpt lat="44.5512" lon="2.32304">
        <ele>273.4</ele>
        <time>2015-04-29T17:26:27Z</time>
      </trkpt>
      <trkpt lat="44.55118" lon="2.32287">
        <ele>273.6</ele>
        <time>2015-04-29T17:26:29Z</time>
      </trkpt>
      <trkpt lat="44.55117" lon="2.32271">
        <ele>274</ele>
        <time>2015-04-29T17:26:31Z</time>
      </trkpt>
      <trkpt lat="44.55116" lon="2.32253">
        <ele>273.6</ele>
        <time>2015-04-29T17:26:33Z</time>
      </trkpt>
      <trkpt lat="44.55114" lon="2.32237">
        <ele>273.5</ele>
        <time>2015-04-29T17:26:35Z</time>
      </trkpt>
      <trkpt lat="44.5511" lon="2.32221">
        <ele>274.2</ele>
        <time>2015-04-29T17:26:37Z</time>
      </trkpt>
      <trkpt lat="44.55103" lon="2.32206">
        <ele>274.8</ele>
        <time>2015-04-29T17:26:39Z</time>
      </trkpt>
      <trkpt lat="44.55093" lon="2.32194">
        <ele>275.3</ele>
        <time>2015-04-29T17:26:41Z</time>
      </trkpt>
      <trkpt lat="44.5508" lon="2.32186">
        <ele>275</ele>
        <time>2015-04-29T17:26:43Z</time>
      </trkpt>
      <trkpt lat="44.55067" lon="2.32179">
        <ele>274.6</ele>
        <time>2015-04-29T17:26:45Z</time>
      </trkpt>
      <trkpt lat="44.55056" lon="2.32166">
        <ele>274.2</ele>
        <time>2015-04-29T17:26:47Z</time>
      </trkpt>
      <trkpt lat="44.55053" lon="2.32147">
        <ele>273</ele>
        <time>2015-04-29T17:26:49Z</time>
      </trkpt>
      <trkpt lat="44.55059" lon="2.32131">
        <ele>272.3</ele>
        <time>2015-04-29T17:26:51Z</time>
      </trkpt>
      <trkpt lat="44.55067" lon="2.32117">
        <ele>272.2</ele>
        <time>2015-04-29T17:26:53Z</time>
      </trkpt>
      <trkpt lat="44.55073" lon="2.32103">
        <ele>271.9</ele>
        <time>2015-04-29T17:26:55Z</time>
      </trkpt>
      <trkpt lat="44.55077" lon="2.32088">
        <ele>271.6</ele>
        <time>2015-04-29T17:26:57Z</time>
      </trkpt>
      <trkpt lat="44.5508" lon="2.32072">
        <ele>272.4</ele>
        <time>2015-04-29T17:26:59Z</time>
      </trkpt>
      <trkpt lat="44.55081" lon="2.32054">
        <ele>272.9</ele>
        <time>2015-04-29T17:27:01Z</time>
      </trkpt>
      <trkpt lat="44.55084" lon="2.32018">
        <ele>273.5</ele>
        <time>2015-04-29T17:27:05Z</time>
      </trkpt>
      <trkpt lat="44.55086" lon="2.32001">
        <ele>273.6</ele>
        <time>2015-04-29T17:27:07Z</time>
      </trkpt>
      <trkpt lat="44.55088" lon="2.31984">
        <ele>273.3</ele>
        <time>2015-04-29T17:27:09Z</time>
      </trkpt>
      <trkpt lat="44.55091" lon="2.31967">
        <ele>273.1</ele>
        <time>2015-04-29T17:27:11Z</time>
      </trkpt>
      <trkpt lat="44.55093" lon="2.3195">
        <ele>272.9</ele>
        <time>2015-04-29T17:27:13Z</time>
      </trkpt>
      <trkpt lat="44.55095" lon="2.31933">
        <ele>273.1</ele>
        <time>2015-04-29T17:27:15Z</time>
      </trkpt>
      <trkpt lat="44.55097" lon="2.31916">
        <ele>273.5</ele>
        <time>2015-04-29T17:27:17Z</time>
      </trkpt>
      <trkpt lat="44.55098" lon="2.319">
        <ele>273.8</ele>
        <time>2015-04-29T17:27:19Z</time>
      </trkpt>
      <trkpt lat="44.55099" lon="2.31884">
        <ele>273.5</ele>
        <time>2015-04-29T17:27:21Z</time>
      </trkpt>
      <trkpt lat="44.551" lon="2.31869">
        <ele>273.3</ele>
        <time>2015-04-29T17:27:23Z</time>
      </trkpt>
      <trkpt lat="44.551" lon="2.31853">
        <ele>273.4</ele>
        <time>2015-04-29T17:27:25Z</time>
      </trkpt>
      <trkpt lat="44.551" lon="2.31838">
        <ele>273.6</ele>
        <time>2015-04-29T17:27:27Z</time>
      </trkpt>
      <trkpt lat="44.551" lon="2.31822">
        <ele>273.7</ele>
        <time>2015-04-29T17:27:29Z</time>
      </trkpt>
      <trkpt lat="44.551" lon="2.31806">
        <ele>273.7</ele>
        <time>2015-04-29T17:27:31Z</time>
      </trkpt>
      <trkpt lat="44.551" lon="2.3179">
        <ele>273.6</ele>
        <time>2015-04-29T17:27:33Z</time>
      </trkpt>
      <trkpt lat="44.55099" lon="2.31775">
        <ele>273.6</ele>
        <time>2015-04-29T17:27:35Z</time>
      </trkpt>
      <trkpt lat="44.55096" lon="2.31761">
        <ele>273.3</ele>
        <time>2015-04-29T17:27:37Z</time>
      </trkpt>
      <trkpt lat="44.5509" lon="2.31747">
        <ele>273.1</ele>
        <time>2015-04-29T17:27:39Z</time>
      </trkpt>
      <trkpt lat="44.55084" lon="2.31734">
        <ele>273.3</ele>
        <time>2015-04-29T17:27:41Z</time>
      </trkpt>
      <trkpt lat="44.55076" lon="2.3172">
        <ele>272.8</ele>
        <time>2015-04-29T17:27:43Z</time>
      </trkpt>
      <trkpt lat="44.55068" lon="2.31705">
        <ele>272</ele>
        <time>2015-04-29T17:27:45Z</time>
      </trkpt>
      <trkpt lat="44.5506" lon="2.3169">
        <ele>271.7</ele>
        <time>2015-04-29T17:27:47Z</time>
      </trkpt>
      <trkpt lat="44.55052" lon="2.31674">
        <ele>270.8</ele>
        <time>2015-04-29T17:27:49Z</time>
      </trkpt>
      <trkpt lat="44.55046" lon="2.31657">
        <ele>269.8</ele>
        <time>2015-04-29T17:27:51Z</time>
      </trkpt>
      <trkpt lat="44.55042" lon="2.31638">
        <ele>270</ele>
        <time>2015-04-29T17:27:53Z</time>
      </trkpt>
      <trkpt lat="44.55041" lon="2.31618">
        <ele>269.7</ele>
        <time>2015-04-29T17:27:55Z</time>
      </trkpt>
      <trkpt lat="44.55042" lon="2.31598">
        <ele>269.2</ele>
        <time>2015-04-29T17:27:57Z</time>
      </trkpt>
      <trkpt lat="44.55042" lon="2.31577">
        <ele>268.7</ele>
        <time>2015-04-29T17:27:59Z</time>
      </trkpt>
      <trkpt lat="44.55042" lon="2.31556">
        <ele>268.4</ele>
        <time>2015-04-29T17:28:01Z</time>
      </trkpt>
      <trkpt lat="44.55041" lon="2.31536">
        <ele>268.1</ele>
        <time>2015-04-29T17:28:03Z</time>
      </trkpt>
      <trkpt lat="44.55034" lon="2.31491">
        <ele>266.1</ele>
        <time>2015-04-29T17:28:07Z</time>
      </trkpt>
      <trkpt lat="44.5503" lon="2.31468">
        <ele>265.8</ele>
        <time>2015-04-29T17:28:09Z</time>
      </trkpt>
      <trkpt lat="44.55024" lon="2.31446">
        <ele>265.2</ele>
        <time>2015-04-29T17:28:11Z</time>
      </trkpt>
      <trkpt lat="44.55019" lon="2.31425">
        <ele>264.6</ele>
        <time>2015-04-29T17:28:13Z</time>
      </trkpt>
      <trkpt lat="44.55013" lon="2.31403">
        <ele>264.1</ele>
        <time>2015-04-29T17:28:15Z</time>
      </trkpt>
      <trkpt lat="44.55007" lon="2.31382">
        <ele>263.7</ele>
        <time>2015-04-29T17:28:17Z</time>
      </trkpt>
      <trkpt lat="44.55" lon="2.31363">
        <ele>262.8</ele>
        <time>2015-04-29T17:28:19Z</time>
      </trkpt>
      <trkpt lat="44.54987" lon="2.31335">
        <ele>262.7</ele>
        <time>2015-04-29T17:28:22Z</time>
      </trkpt>
      <trkpt lat="44.5498" lon="2.31316">
        <ele>262.3</ele>
        <time>2015-04-29T17:28:24Z</time>
      </trkpt>
      <trkpt lat="44.54974" lon="2.31296">
        <ele>261.7</ele>
        <time>2015-04-29T17:28:26Z</time>
      </trkpt>
      <trkpt lat="44.5497" lon="2.31276">
        <ele>261.5</ele>
        <time>2015-04-29T17:28:28Z</time>
      </trkpt>
      <trkpt lat="44.54967" lon="2.31255">
        <ele>261.5</ele>
        <time>2015-04-29T17:28:30Z</time>
      </trkpt>
      <trkpt lat="44.54964" lon="2.31234">
        <ele>261.1</ele>
        <time>2015-04-29T17:28:32Z</time>
      </trkpt>
      <trkpt lat="44.54961" lon="2.31213">
        <ele>260.6</ele>
        <time>2015-04-29T17:28:34Z</time>
      </trkpt>
      <trkpt lat="44.54958" lon="2.31191">
        <ele>260.2</ele>
        <time>2015-04-29T17:28:36Z</time>
      </trkpt>
      <trkpt lat="44.54955" lon="2.3117">
        <ele>259.7</ele>
        <time>2015-04-29T17:28:38Z</time>
      </trkpt>
      <trkpt lat="44.54954" lon="2.31148">
        <ele>258.7</ele>
        <time>2015-04-29T17:28:40Z</time>
      </trkpt>
      <trkpt lat="44.54959" lon="2.31127">
        <ele>257.6</ele>
        <time>2015-04-29T17:28:42Z</time>
      </trkpt>
      <trkpt lat="44.54968" lon="2.31107">
        <ele>256.7</ele>
        <time>2015-04-29T17:28:44Z</time>
      </trkpt>
      <trkpt lat="44.54978" lon="2.31088">
        <ele>255.6</ele>
        <time>2015-04-29T17:28:46Z</time>
      </trkpt>
      <trkpt lat="44.54987" lon="2.31066">
        <ele>254.5</ele>
        <time>2015-04-29T17:28:48Z</time>
      </trkpt>
      <trkpt lat="44.5499" lon="2.31054">
        <ele>254.2</ele>
        <time>2015-04-29T17:28:49Z</time>
      </trkpt>
      <trkpt lat="44.54992" lon="2.31042">
        <ele>253.6</ele>
        <time>2015-04-29T17:28:50Z</time>
      </trkpt>
      <trkpt lat="44.54992" lon="2.31029">
        <ele>253.2</ele>
        <time>2015-04-29T17:28:51Z</time>
      </trkpt>
      <trkpt lat="44.54991" lon="2.31016">
        <ele>252.9</ele>
        <time>2015-04-29T17:28:52Z</time>
      </trkpt>
      <trkpt lat="44.54987" lon="2.31005">
        <ele>252.5</ele>
        <time>2015-04-29T17:28:53Z</time>
      </trkpt>
      <trkpt lat="44.54981" lon="2.30995">
        <ele>252.2</ele>
        <time>2015-04-29T17:28:54Z</time>
      </trkpt>
      <trkpt lat="44.54975" lon="2.30986">
        <ele>252</ele>
        <time>2015-04-29T17:28:55Z</time>
      </trkpt>
      <trkpt lat="44.54968" lon="2.30978">
        <ele>251.3</ele>
        <time>2015-04-29T17:28:56Z</time>
      </trkpt>
      <trkpt lat="44.5496" lon="2.30971">
        <ele>250.8</ele>
        <time>2015-04-29T17:28:57Z</time>
      </trkpt>
      <trkpt lat="44.54947" lon="2.30957">
        <ele>249.6</ele>
        <time>2015-04-29T17:28:59Z</time>
      </trkpt>
      <trkpt lat="44.54934" lon="2.30944">
        <ele>248.7</ele>
        <time>2015-04-29T17:29:01Z</time>
      </trkpt>
      <trkpt lat="44.54922" lon="2.3093">
        <ele>248.3</ele>
        <time>2015-04-29T17:29:03Z</time>
      </trkpt>
      <trkpt lat="44.5491" lon="2.30919">
        <ele>248.3</ele>
        <time>2015-04-29T17:29:05Z</time>
      </trkpt>
      <trkpt lat="44.54881" lon="2.30908">
        <ele>248.6</ele>
        <time>2015-04-29T17:29:09Z</time>
      </trkpt>
      <trkpt lat="44.54866" lon="2.30906">
        <ele>248.6</ele>
        <time>2015-04-29T17:29:11Z</time>
      </trkpt>
      <trkpt lat="44.54851" lon="2.30906">
        <ele>248.7</ele>
        <time>2015-04-29T17:29:13Z</time>
      </trkpt>
      <trkpt lat="44.54836" lon="2.30906">
        <ele>248.5</ele>
        <time>2015-04-29T17:29:15Z</time>
      </trkpt>
      <trkpt lat="44.54822" lon="2.30906">
        <ele>248.3</ele>
        <time>2015-04-29T17:29:17Z</time>
      </trkpt>
      <trkpt lat="44.54809" lon="2.30909">
        <ele>248.3</ele>
        <time>2015-04-29T17:29:19Z</time>
      </trkpt>
      <trkpt lat="44.54797" lon="2.30912">
        <ele>248.3</ele>
        <time>2015-04-29T17:29:21Z</time>
      </trkpt>
      <trkpt lat="44.54785" lon="2.30916">
        <ele>249.1</ele>
        <time>2015-04-29T17:29:23Z</time>
      </trkpt>
      <trkpt lat="44.54775" lon="2.30922">
        <ele>249.5</ele>
        <time>2015-04-29T17:29:25Z</time>
      </trkpt>
      <trkpt lat="44.54764" lon="2.30928">
        <ele>249.7</ele>
        <time>2015-04-29T17:29:27Z</time>
      </trkpt>
      <trkpt lat="44.54754" lon="2.30934">
        <ele>251.3</ele>
        <time>2015-04-29T17:29:29Z</time>
      </trkpt>
      <trkpt lat="44.54745" lon="2.30941">
        <ele>252.4</ele>
        <time>2015-04-29T17:29:31Z</time>
      </trkpt>
      <trkpt lat="44.54736" lon="2.30947">
        <ele>253.1</ele>
        <time>2015-04-29T17:29:33Z</time>
      </trkpt>
      <trkpt lat="44.54728" lon="2.30951">
        <ele>254.3</ele>
        <time>2015-04-29T17:29:35Z</time>
      </trkpt>
      <trkpt lat="44.54715" lon="2.30955">
        <ele>255.8</ele>
        <time>2015-04-29T17:29:38Z</time>
      </trkpt>
      <trkpt lat="44.54704" lon="2.30954">
        <ele>255.9</ele>
        <time>2015-04-29T17:29:40Z</time>
      </trkpt>
      <trkpt lat="44.54693" lon="2.30951">
        <ele>256</ele>
        <time>2015-04-29T17:29:42Z</time>
      </trkpt>
      <trkpt lat="44.54681" lon="2.30945">
        <ele>255.7</ele>
        <time>2015-04-29T17:29:44Z</time>
      </trkpt>
      <trkpt lat="44.54668" lon="2.30938">
        <ele>255.3</ele>
        <time>2015-04-29T17:29:46Z</time>
      </trkpt>
      <trkpt lat="44.54654" lon="2.30932">
        <ele>254.2</ele>
        <time>2015-04-29T17:29:48Z</time>
      </trkpt>
      <trkpt lat="44.54639" lon="2.30924">
        <ele>252.9</ele>
        <time>2015-04-29T17:29:50Z</time>
      </trkpt>
      <trkpt lat="44.54623" lon="2.30915">
        <ele>251.6</ele>
        <time>2015-04-29T17:29:52Z</time>
      </trkpt>
      <trkpt lat="44.54607" lon="2.30903">
        <ele>250.2</ele>
        <time>2015-04-29T17:29:54Z</time>
      </trkpt>
      <trkpt lat="44.54592" lon="2.30893">
        <ele>249</ele>
        <time>2015-04-29T17:29:56Z</time>
      </trkpt>
      <trkpt lat="44.54574" lon="2.30891">
        <ele>247.5</ele>
        <time>2015-04-29T17:29:58Z</time>
      </trkpt>
      <trkpt lat="44.54565" lon="2.3089">
        <ele>247.1</ele>
        <time>2015-04-29T17:29:59Z</time>
      </trkpt>
      <trkpt lat="44.54555" lon="2.30889">
        <ele>246.5</ele>
        <time>2015-04-29T17:30:00Z</time>
      </trkpt>
      <trkpt lat="44.54546" lon="2.30886">
        <ele>246.1</ele>
        <time>2015-04-29T17:30:01Z</time>
      </trkpt>
      <trkpt lat="44.54536" lon="2.30882">
        <ele>245.7</ele>
        <time>2015-04-29T17:30:02Z</time>
      </trkpt>
      <trkpt lat="44.54528" lon="2.30876">
        <ele>245.1</ele>
        <time>2015-04-29T17:30:03Z</time>
      </trkpt>
      <trkpt lat="44.5452" lon="2.30868">
        <ele>244.7</ele>
        <time>2015-04-29T17:30:04Z</time>
      </trkpt>
      <trkpt lat="44.54513" lon="2.30859">
        <ele>244.3</ele>
        <time>2015-04-29T17:30:05Z</time>
      </trkpt>
      <trkpt lat="44.54506" lon="2.3085">
        <ele>243.5</ele>
        <time>2015-04-29T17:30:06Z</time>
      </trkpt>
      <trkpt lat="44.54489" lon="2.30834">
        <ele>242.3</ele>
        <time>2015-04-29T17:30:08Z</time>
      </trkpt>
      <trkpt lat="44.54481" lon="2.30828">
        <ele>242</ele>
        <time>2015-04-29T17:30:09Z</time>
      </trkpt>
      <trkpt lat="44.54473" lon="2.30821">
        <ele>241.1</ele>
        <time>2015-04-29T17:30:10Z</time>
      </trkpt>
      <trkpt lat="44.54465" lon="2.30813">
        <ele>240.5</ele>
        <time>2015-04-29T17:30:11Z</time>
      </trkpt>
      <trkpt lat="44.54454" lon="2.30794">
        <ele>239.7</ele>
        <time>2015-04-29T17:30:13Z</time>
      </trkpt>
      <trkpt lat="44.54448" lon="2.30779">
        <ele>239.2</ele>
        <time>2015-04-29T17:30:15Z</time>
      </trkpt>
      <trkpt lat="44.54455" lon="2.30769">
        <ele>237.5</ele>
        <time>2015-04-29T17:30:18Z</time>
      </trkpt>
      <trkpt lat="44.54467" lon="2.30767">
        <ele>237</ele>
        <time>2015-04-29T17:30:20Z</time>
      </trkpt>
      <trkpt lat="44.54479" lon="2.30765">
        <ele>236.1</ele>
        <time>2015-04-29T17:30:22Z</time>
      </trkpt>
      <trkpt lat="44.54493" lon="2.30763">
        <ele>235</ele>
        <time>2015-04-29T17:30:24Z</time>
      </trkpt>
      <trkpt lat="44.54507" lon="2.30765">
        <ele>234.1</ele>
        <time>2015-04-29T17:30:26Z</time>
      </trkpt>
      <trkpt lat="44.54521" lon="2.30768">
        <ele>233.2</ele>
        <time>2015-04-29T17:30:28Z</time>
      </trkpt>
      <trkpt lat="44.54535" lon="2.3077">
        <ele>233.6</ele>
        <time>2015-04-29T17:30:30Z</time>
      </trkpt>
      <trkpt lat="44.5455" lon="2.30771">
        <ele>233.1</ele>
        <time>2015-04-29T17:30:32Z</time>
      </trkpt>
      <trkpt lat="44.54564" lon="2.30773">
        <ele>232.4</ele>
        <time>2015-04-29T17:30:34Z</time>
      </trkpt>
      <trkpt lat="44.54579" lon="2.30775">
        <ele>232.2</ele>
        <time>2015-04-29T17:30:36Z</time>
      </trkpt>
      <trkpt lat="44.54593" lon="2.30779">
        <ele>231.4</ele>
        <time>2015-04-29T17:30:38Z</time>
      </trkpt>
      <trkpt lat="44.54608" lon="2.30786">
        <ele>230.5</ele>
        <time>2015-04-29T17:30:40Z</time>
      </trkpt>
      <trkpt lat="44.5462" lon="2.30795">
        <ele>230.3</ele>
        <time>2015-04-29T17:30:42Z</time>
      </trkpt>
      <trkpt lat="44.54632" lon="2.30803">
        <ele>230.1</ele>
        <time>2015-04-29T17:30:44Z</time>
      </trkpt>
      <trkpt lat="44.54646" lon="2.3081">
        <ele>229.6</ele>
        <time>2015-04-29T17:30:46Z</time>
      </trkpt>
      <trkpt lat="44.54661" lon="2.30812">
        <ele>229.1</ele>
        <time>2015-04-29T17:30:48Z</time>
      </trkpt>
      <trkpt lat="44.54672" lon="2.30804">
        <ele>228.6</ele>
        <time>2015-04-29T17:30:50Z</time>
      </trkpt>
      <trkpt lat="44.54674" lon="2.3079">
        <ele>228.3</ele>
        <time>2015-04-29T17:30:52Z</time>
      </trkpt>
      <trkpt lat="44.54671" lon="2.30775">
        <ele>228.4</ele>
        <time>2015-04-29T17:30:54Z</time>
      </trkpt>
      <trkpt lat="44.54673" lon="2.30761">
        <ele>228.6</ele>
        <time>2015-04-29T17:30:56Z</time>
      </trkpt>
      <trkpt lat="44.54676" lon="2.30745">
        <ele>230.2</ele>
        <time>2015-04-29T17:30:59Z</time>
      </trkpt>
      <trkpt lat="44.54674" lon="2.3073">
        <ele>231.4</ele>
        <time>2015-04-29T17:31:02Z</time>
      </trkpt>
      <trkpt lat="44.5467" lon="2.30714">
        <ele>232.7</ele>
        <time>2015-04-29T17:31:05Z</time>
      </trkpt>
      <trkpt lat="44.54667" lon="2.30695">
        <ele>233.9</ele>
        <time>2015-04-29T17:31:08Z</time>
      </trkpt>
      <trkpt lat="44.54667" lon="2.30668">
        <ele>235.3</ele>
        <time>2015-04-29T17:31:12Z</time>
      </trkpt>
      <trkpt lat="44.54667" lon="2.30655">
        <ele>235.2</ele>
        <time>2015-04-29T17:31:14Z</time>
      </trkpt>
      <trkpt lat="44.54667" lon="2.30641">
        <ele>235.1</ele>
        <time>2015-04-29T17:31:16Z</time>
      </trkpt>
      <trkpt lat="44.54669" lon="2.30624">
        <ele>234.9</ele>
        <time>2015-04-29T17:31:19Z</time>
      </trkpt>
      <trkpt lat="44.54671" lon="2.30611">
        <ele>235.5</ele>
        <time>2015-04-29T17:31:21Z</time>
      </trkpt>
      <trkpt lat="44.54676" lon="2.30596">
        <ele>235</ele>
        <time>2015-04-29T17:31:23Z</time>
      </trkpt>
      <trkpt lat="44.54682" lon="2.30579">
        <ele>234.2</ele>
        <time>2015-04-29T17:31:25Z</time>
      </trkpt>
      <trkpt lat="44.5468" lon="2.30558">
        <ele>231.8</ele>
        <time>2015-04-29T17:31:27Z</time>
      </trkpt>
      <trkpt lat="44.54674" lon="2.30539">
        <ele>230.4</ele>
        <time>2015-04-29T17:31:29Z</time>
      </trkpt>
      <trkpt lat="44.54667" lon="2.30522">
        <ele>229.7</ele>
        <time>2015-04-29T17:31:31Z</time>
      </trkpt>
      <trkpt lat="44.5466" lon="2.30505">
        <ele>228.6</ele>
        <time>2015-04-29T17:31:33Z</time>
      </trkpt>
      <trkpt lat="44.54653" lon="2.30486">
        <ele>227.9</ele>
        <time>2015-04-29T17:31:35Z</time>
      </trkpt>
      <trkpt lat="44.5465" lon="2.30466">
        <ele>227.3</ele>
        <time>2015-04-29T17:31:37Z</time>
      </trkpt>
      <trkpt lat="44.54647" lon="2.30446">
        <ele>226.7</ele>
        <time>2015-04-29T17:31:39Z</time>
      </trkpt>
      <trkpt lat="44.54646" lon="2.30425">
        <ele>226.1</ele>
        <time>2015-04-29T17:31:41Z</time>
      </trkpt>
      <trkpt lat="44.54646" lon="2.30404">
        <ele>225</ele>
        <time>2015-04-29T17:31:43Z</time>
      </trkpt>
      <trkpt lat="44.54646" lon="2.30383">
        <ele>224.6</ele>
        <time>2015-04-29T17:31:45Z</time>
      </trkpt>
      <trkpt lat="44.54645" lon="2.30362">
        <ele>224.5</ele>
        <time>2015-04-29T17:31:47Z</time>
      </trkpt>
      <trkpt lat="44.54645" lon="2.30341">
        <ele>224.3</ele>
        <time>2015-04-29T17:31:49Z</time>
      </trkpt>
      <trkpt lat="44.54645" lon="2.3032">
        <ele>224.2</ele>
        <time>2015-04-29T17:31:51Z</time>
      </trkpt>
      <trkpt lat="44.54645" lon="2.303">
        <ele>223.9</ele>
        <time>2015-04-29T17:31:53Z</time>
      </trkpt>
      <trkpt lat="44.54646" lon="2.30279">
        <ele>223.5</ele>
        <time>2015-04-29T17:31:55Z</time>
      </trkpt>
      <trkpt lat="44.54648" lon="2.30259">
        <ele>223.2</ele>
        <time>2015-04-29T17:31:57Z</time>
      </trkpt>
      <trkpt lat="44.54651" lon="2.30239">
        <ele>222.9</ele>
        <time>2015-04-29T17:31:59Z</time>
      </trkpt>
      <trkpt lat="44.54656" lon="2.30221">
        <ele>223</ele>
        <time>2015-04-29T17:32:01Z</time>
      </trkpt>
      <trkpt lat="44.54662" lon="2.30204">
        <ele>223.2</ele>
        <time>2015-04-29T17:32:03Z</time>
      </trkpt>
      <trkpt lat="44.54669" lon="2.30188">
        <ele>223.7</ele>
        <time>2015-04-29T17:32:05Z</time>
      </trkpt>
      <trkpt lat="44.54676" lon="2.30172">
        <ele>223.9</ele>
        <time>2015-04-29T17:32:07Z</time>
      </trkpt>
      <trkpt lat="44.54684" lon="2.30159">
        <ele>224.5</ele>
        <time>2015-04-29T17:32:09Z</time>
      </trkpt>
      <trkpt lat="44.54693" lon="2.30146">
        <ele>224.6</ele>
        <time>2015-04-29T17:32:11Z</time>
      </trkpt>
      <trkpt lat="44.54694" lon="2.30116">
        <ele>224.2</ele>
        <time>2015-04-29T17:32:15Z</time>
      </trkpt>
      <trkpt lat="44.54688" lon="2.30104">
        <ele>222.9</ele>
        <time>2015-04-29T17:32:18Z</time>
      </trkpt>
      <trkpt lat="44.5468" lon="2.30092">
        <ele>222.5</ele>
        <time>2015-04-29T17:32:29Z</time>
      </trkpt>
      <trkpt lat="44.54671" lon="2.30081">
        <ele>223</ele>
        <time>2015-04-29T17:32:32Z</time>
      </trkpt>
      <trkpt lat="44.54666" lon="2.30065">
        <ele>222.1</ele>
        <time>2015-04-29T17:32:35Z</time>
      </trkpt>
      <trkpt lat="44.5467" lon="2.30049">
        <ele>221.1</ele>
        <time>2015-04-29T17:32:38Z</time>
      </trkpt>
      <trkpt lat="44.54675" lon="2.30035">
        <ele>220.7</ele>
        <time>2015-04-29T17:32:41Z</time>
      </trkpt>
      <trkpt lat="44.54684" lon="2.30022">
        <ele>220.9</ele>
        <time>2015-04-29T17:32:44Z</time>
      </trkpt>
      <trkpt lat="44.5469" lon="2.30012">
        <ele>221.2</ele>
        <time>2015-04-29T17:32:46Z</time>
      </trkpt>
      <trkpt lat="44.54697" lon="2.29998">
        <ele>221.1</ele>
        <time>2015-04-29T17:32:49Z</time>
      </trkpt>
      <trkpt lat="44.54688" lon="2.30005">
        <ele>221</ele>
        <time>2015-04-29T17:32:59Z</time>
      </trkpt>
      <trkpt lat="44.54683" lon="2.30018">
        <ele>221.2</ele>
        <time>2015-04-29T17:33:02Z</time>
      </trkpt>
      <trkpt lat="44.54675" lon="2.30026">
        <ele>221.2</ele>
        <time>2015-04-29T17:33:05Z</time>
      </trkpt>
      <trkpt lat="44.54666" lon="2.30031">
        <ele>221.4</ele>
        <time>2015-04-29T17:33:08Z</time>
      </trkpt>
      <trkpt lat="44.54657" lon="2.30035">
        <ele>221.5</ele>
        <time>2015-04-29T17:33:11Z</time>
      </trkpt>
      <trkpt lat="44.54649" lon="2.30044">
        <ele>220.8</ele>
        <time>2015-04-29T17:33:47Z</time>
      </trkpt>
      <trkpt lat="44.54646" lon="2.30067">
        <ele>221.4</ele>
        <time>2015-04-29T17:34:01Z</time>
      </trkpt>
      <trkpt lat="44.54648" lon="2.3008">
        <ele>221.8</ele>
        <time>2015-04-29T17:34:07Z</time>
      </trkpt>
      <trkpt lat="44.54639" lon="2.30076">
        <ele>221.6</ele>
        <time>2015-04-29T17:34:14Z</time>
      </trkpt>
      <trkpt lat="44.54641" lon="2.30064">
        <ele>220.8</ele>
        <time>2015-04-29T17:34:22Z</time>
      </trkpt>
      <trkpt lat="44.54648" lon="2.30052">
        <ele>221.8</ele>
        <time>2015-04-29T17:34:28Z</time>
      </trkpt>
      <trkpt lat="44.54652" lon="2.30041">
        <ele>222.1</ele>
        <time>2015-04-29T17:34:35Z</time>
      </trkpt>
      <trkpt lat="44.54661" lon="2.30039">
        <ele>222.7</ele>
        <time>2015-04-29T17:34:43Z</time>
      </trkpt>
      <trkpt lat="44.5467" lon="2.30045">
        <ele>222.2</ele>
        <time>2015-04-29T17:34:49Z</time>
      </trkpt>
      <trkpt lat="44.54653" lon="2.30044">
        <ele>223</ele>
        <time>2015-04-29T17:35:17Z</time>
      </trkpt>
      <trkpt lat="44.54662" lon="2.30041">
        <ele>222.6</ele>
        <time>2015-04-29T17:35:26Z</time>
      </trkpt>
      <trkpt lat="44.54671" lon="2.30038">
        <ele>223</ele>
        <time>2015-04-29T17:35:33Z</time>
      </trkpt>
      <trkpt lat="44.54662" lon="2.30035">
        <ele>223</ele>
        <time>2015-04-29T17:35:45Z</time>
      </trkpt>
      <trkpt lat="44.54653" lon="2.30044">
        <ele>222.9</ele>
        <time>2015-04-29T17:35:49Z</time>
      </trkpt>
      <trkpt lat="44.54647" lon="2.30053">
        <ele>222.7</ele>
        <time>2015-04-29T17:36:10Z</time>
      </trkpt>
      <trkpt lat="44.54636" lon="2.30079">
        <ele>222.5</ele>
        <time>2015-04-29T17:36:18Z</time>
      </trkpt>
      <trkpt lat="44.5463" lon="2.30093">
        <ele>222.8</ele>
        <time>2015-04-29T17:36:22Z</time>
      </trkpt>
      <trkpt lat="44.54624" lon="2.30109">
        <ele>222.5</ele>
        <time>2015-04-29T17:36:25Z</time>
      </trkpt>
      <trkpt lat="44.54619" lon="2.30123">
        <ele>222.4</ele>
        <time>2015-04-29T17:36:28Z</time>
      </trkpt>
      <trkpt lat="44.54615" lon="2.30137">
        <ele>221.7</ele>
        <time>2015-04-29T17:36:31Z</time>
      </trkpt>
      <trkpt lat="44.5461" lon="2.30151">
        <ele>221.9</ele>
        <time>2015-04-29T17:36:34Z</time>
      </trkpt>
      <trkpt lat="44.54605" lon="2.30166">
        <ele>222.6</ele>
        <time>2015-04-29T17:36:37Z</time>
      </trkpt>
      <trkpt lat="44.54599" lon="2.3018">
        <ele>222.5</ele>
        <time>2015-04-29T17:36:40Z</time>
      </trkpt>
      <trkpt lat="44.5459" lon="2.30192">
        <ele>222.5</ele>
        <time>2015-04-29T17:36:43Z</time>
      </trkpt>
      <trkpt lat="44.5458" lon="2.30201">
        <ele>222.8</ele>
        <time>2015-04-29T17:36:46Z</time>
      </trkpt>
      <trkpt lat="44.5457" lon="2.30208">
        <ele>223</ele>
        <time>2015-04-29T17:36:49Z</time>
      </trkpt>
      <trkpt lat="44.54558" lon="2.30215">
        <ele>222.8</ele>
        <time>2015-04-29T17:36:52Z</time>
      </trkpt>
      <trkpt lat="44.54547" lon="2.30222">
        <ele>223.1</ele>
        <time>2015-04-29T17:36:55Z</time>
      </trkpt>
      <trkpt lat="44.54535" lon="2.30228">
        <ele>223.2</ele>
        <time>2015-04-29T17:36:58Z</time>
      </trkpt>
      <trkpt lat="44.54524" lon="2.30232">
        <ele>222.7</ele>
        <time>2015-04-29T17:37:01Z</time>
      </trkpt>
      <trkpt lat="44.54513" lon="2.30234">
        <ele>222.6</ele>
        <time>2015-04-29T17:37:04Z</time>
      </trkpt>
      <trkpt lat="44.54504" lon="2.30234">
        <ele>222.5</ele>
        <time>2015-04-29T17:37:07Z</time>
      </trkpt>
      <trkpt lat="44.54494" lon="2.30235">
        <ele>223</ele>
        <time>2015-04-29T17:37:10Z</time>
      </trkpt>
      <trkpt lat="44.54484" lon="2.30237">
        <ele>223.2</ele>
        <time>2015-04-29T17:37:13Z</time>
      </trkpt>
      <trkpt lat="44.54463" lon="2.30249">
        <ele>223.2</ele>
        <time>2015-04-29T17:37:19Z</time>
      </trkpt>
      <trkpt lat="44.54455" lon="2.30259">
        <ele>223.8</ele>
        <time>2015-04-29T17:37:22Z</time>
      </trkpt>
      <trkpt lat="44.54447" lon="2.3027">
        <ele>223.9</ele>
        <time>2015-04-29T17:37:25Z</time>
      </trkpt>
      <trkpt lat="44.54439" lon="2.30281">
        <ele>223</ele>
        <time>2015-04-29T17:37:28Z</time>
      </trkpt>
      <trkpt lat="44.54433" lon="2.30293">
        <ele>222.2</ele>
        <time>2015-04-29T17:37:31Z</time>
      </trkpt>
      <trkpt lat="44.54427" lon="2.30303">
        <ele>222.7</ele>
        <time>2015-04-29T17:37:34Z</time>
      </trkpt>
      <trkpt lat="44.54421" lon="2.30314">
        <ele>222.9</ele>
        <time>2015-04-29T17:37:37Z</time>
      </trkpt>
      <trkpt lat="44.54415" lon="2.30327">
        <ele>223</ele>
        <time>2015-04-29T17:37:40Z</time>
      </trkpt>
      <trkpt lat="44.54409" lon="2.30338">
        <ele>223.3</ele>
        <time>2015-04-29T17:37:43Z</time>
      </trkpt>
      <trkpt lat="44.54404" lon="2.30351">
        <ele>224.1</ele>
        <time>2015-04-29T17:37:46Z</time>
      </trkpt>
      <trkpt lat="44.54397" lon="2.30362">
        <ele>225.2</ele>
        <time>2015-04-29T17:37:49Z</time>
      </trkpt>
      <trkpt lat="44.54391" lon="2.30373">
        <ele>226.2</ele>
        <time>2015-04-29T17:37:52Z</time>
      </trkpt>
      <trkpt lat="44.54385" lon="2.30385">
        <ele>227</ele>
        <time>2015-04-29T17:37:55Z</time>
      </trkpt>
      <trkpt lat="44.5438" lon="2.30398">
        <ele>227.4</ele>
        <time>2015-04-29T17:37:58Z</time>
      </trkpt>
      <trkpt lat="44.54379" lon="2.30412">
        <ele>228.3</ele>
        <time>2015-04-29T17:38:01Z</time>
      </trkpt>
      <trkpt lat="44.54385" lon="2.30425">
        <ele>227.8</ele>
        <time>2015-04-29T17:38:04Z</time>
      </trkpt>
      <trkpt lat="44.5439" lon="2.30441">
        <ele>227.9</ele>
        <time>2015-04-29T17:38:07Z</time>
      </trkpt>
      <trkpt lat="44.54388" lon="2.30456">
        <ele>227.2</ele>
        <time>2015-04-29T17:38:10Z</time>
      </trkpt>
      <trkpt lat="44.54382" lon="2.30469">
        <ele>226.9</ele>
        <time>2015-04-29T17:38:13Z</time>
      </trkpt>
      <trkpt lat="44.54375" lon="2.3048">
        <ele>227.5</ele>
        <time>2015-04-29T17:38:16Z</time>
      </trkpt>
      <trkpt lat="44.54359" lon="2.30505">
        <ele>228.3</ele>
        <time>2015-04-29T17:38:22Z</time>
      </trkpt>
      <trkpt lat="44.54351" lon="2.30517">
        <ele>228.5</ele>
        <time>2015-04-29T17:38:25Z</time>
      </trkpt>
      <trkpt lat="44.54342" lon="2.30531">
        <ele>228.2</ele>
        <time>2015-04-29T17:38:28Z</time>
      </trkpt>
      <trkpt lat="44.54334" lon="2.30545">
        <ele>228</ele>
        <time>2015-04-29T17:38:31Z</time>
      </trkpt>
      <trkpt lat="44.54327" lon="2.30561">
        <ele>227.9</ele>
        <time>2015-04-29T17:38:34Z</time>
      </trkpt>
      <trkpt lat="44.54325" lon="2.30573">
        <ele>227.7</ele>
        <time>2015-04-29T17:38:36Z</time>
      </trkpt>
      <trkpt lat="44.54326" lon="2.30592">
        <ele>228.1</ele>
        <time>2015-04-29T17:38:39Z</time>
      </trkpt>
      <trkpt lat="44.54328" lon="2.3061">
        <ele>229</ele>
        <time>2015-04-29T17:38:42Z</time>
      </trkpt>
      <trkpt lat="44.54327" lon="2.30628">
        <ele>228.5</ele>
        <time>2015-04-29T17:38:45Z</time>
      </trkpt>
      <trkpt lat="44.54322" lon="2.3064">
        <ele>228.3</ele>
        <time>2015-04-29T17:38:47Z</time>
      </trkpt>
      <trkpt lat="44.54317" lon="2.30651">
        <ele>228.1</ele>
        <time>2015-04-29T17:38:49Z</time>
      </trkpt>
      <trkpt lat="44.54312" lon="2.30662">
        <ele>228.4</ele>
        <time>2015-04-29T17:38:51Z</time>
      </trkpt>
      <trkpt lat="44.54308" lon="2.30673">
        <ele>228.6</ele>
        <time>2015-04-29T17:38:53Z</time>
      </trkpt>
      <trkpt lat="44.54303" lon="2.30684">
        <ele>228.8</ele>
        <time>2015-04-29T17:38:55Z</time>
      </trkpt>
      <trkpt lat="44.54297" lon="2.30693">
        <ele>229.3</ele>
        <time>2015-04-29T17:38:57Z</time>
      </trkpt>
      <trkpt lat="44.54288" lon="2.30696">
        <ele>229.2</ele>
        <time>2015-04-29T17:38:59Z</time>
      </trkpt>
      <trkpt lat="44.54279" lon="2.30697">
        <ele>228.9</ele>
        <time>2015-04-29T17:39:01Z</time>
      </trkpt>
      <trkpt lat="44.54267" lon="2.30704">
        <ele>229.3</ele>
        <time>2015-04-29T17:39:04Z</time>
      </trkpt>
      <trkpt lat="44.54262" lon="2.30715">
        <ele>229.3</ele>
        <time>2015-04-29T17:39:06Z</time>
      </trkpt>
      <trkpt lat="44.54257" lon="2.30726">
        <ele>229.3</ele>
        <time>2015-04-29T17:39:08Z</time>
      </trkpt>
      <trkpt lat="44.54252" lon="2.30737">
        <ele>229</ele>
        <time>2015-04-29T17:39:10Z</time>
      </trkpt>
      <trkpt lat="44.54245" lon="2.30751">
        <ele>228.5</ele>
        <time>2015-04-29T17:39:13Z</time>
      </trkpt>
      <trkpt lat="44.54241" lon="2.30764">
        <ele>228.2</ele>
        <time>2015-04-29T17:39:16Z</time>
      </trkpt>
      <trkpt lat="44.54242" lon="2.30778">
        <ele>228</ele>
        <time>2015-04-29T17:39:19Z</time>
      </trkpt>
      <trkpt lat="44.54261" lon="2.30791">
        <ele>227.7</ele>
        <time>2015-04-29T17:39:26Z</time>
      </trkpt>
      <trkpt lat="44.54273" lon="2.30805">
        <ele>226</ele>
        <time>2015-04-29T17:39:30Z</time>
      </trkpt>
      <trkpt lat="44.54274" lon="2.30821">
        <ele>226.2</ele>
        <time>2015-04-29T17:39:34Z</time>
      </trkpt>
      <trkpt lat="44.5428" lon="2.30832">
        <ele>226.7</ele>
        <time>2015-04-29T17:39:38Z</time>
      </trkpt>
      <trkpt lat="44.54282" lon="2.30849">
        <ele>228.3</ele>
        <time>2015-04-29T17:39:42Z</time>
      </trkpt>
      <trkpt lat="44.54283" lon="2.30865">
        <ele>229.2</ele>
        <time>2015-04-29T17:39:45Z</time>
      </trkpt>
      <trkpt lat="44.54283" lon="2.30882">
        <ele>229.7</ele>
        <time>2015-04-29T17:39:48Z</time>
      </trkpt>
      <trkpt lat="44.54283" lon="2.309">
        <ele>229.5</ele>
        <time>2015-04-29T17:39:51Z</time>
      </trkpt>
      <trkpt lat="44.54283" lon="2.30919">
        <ele>229.3</ele>
        <time>2015-04-29T17:39:54Z</time>
      </trkpt>
      <trkpt lat="44.54283" lon="2.30931">
        <ele>229.4</ele>
        <time>2015-04-29T17:39:56Z</time>
      </trkpt>
      <trkpt lat="44.54284" lon="2.30945">
        <ele>229.1</ele>
        <time>2015-04-29T17:39:58Z</time>
      </trkpt>
      <trkpt lat="44.54284" lon="2.30958">
        <ele>229.1</ele>
        <time>2015-04-29T17:40:00Z</time>
      </trkpt>
      <trkpt lat="44.54284" lon="2.30971">
        <ele>229.3</ele>
        <time>2015-04-29T17:40:02Z</time>
      </trkpt>
      <trkpt lat="44.54284" lon="2.30984">
        <ele>229</ele>
        <time>2015-04-29T17:40:04Z</time>
      </trkpt>
      <trkpt lat="44.54284" lon="2.30997">
        <ele>229</ele>
        <time>2015-04-29T17:40:06Z</time>
      </trkpt>
      <trkpt lat="44.54284" lon="2.3101">
        <ele>229.1</ele>
        <time>2015-04-29T17:40:08Z</time>
      </trkpt>
      <trkpt lat="44.54283" lon="2.31029">
        <ele>229.7</ele>
        <time>2015-04-29T17:40:11Z</time>
      </trkpt>
      <trkpt lat="44.54282" lon="2.31042">
        <ele>230.3</ele>
        <time>2015-04-29T17:40:13Z</time>
      </trkpt>
      <trkpt lat="44.5428" lon="2.31055">
        <ele>230.9</ele>
        <time>2015-04-29T17:40:15Z</time>
      </trkpt>
      <trkpt lat="44.54276" lon="2.31068">
        <ele>231.2</ele>
        <time>2015-04-29T17:40:17Z</time>
      </trkpt>
      <trkpt lat="44.54272" lon="2.31081">
        <ele>230.9</ele>
        <time>2015-04-29T17:40:19Z</time>
      </trkpt>
      <trkpt lat="44.54267" lon="2.31094">
        <ele>230.5</ele>
        <time>2015-04-29T17:40:21Z</time>
      </trkpt>
      <trkpt lat="44.54255" lon="2.31119">
        <ele>229.6</ele>
        <time>2015-04-29T17:40:25Z</time>
      </trkpt>
      <trkpt lat="44.54249" lon="2.31131">
        <ele>229.9</ele>
        <time>2015-04-29T17:40:27Z</time>
      </trkpt>
      <trkpt lat="44.54242" lon="2.31142">
        <ele>230.2</ele>
        <time>2015-04-29T17:40:29Z</time>
      </trkpt>
      <trkpt lat="44.54235" lon="2.31153">
        <ele>230.5</ele>
        <time>2015-04-29T17:40:31Z</time>
      </trkpt>
      <trkpt lat="44.54228" lon="2.31164">
        <ele>230.7</ele>
        <time>2015-04-29T17:40:33Z</time>
      </trkpt>
      <trkpt lat="44.5422" lon="2.31175">
        <ele>230.4</ele>
        <time>2015-04-29T17:40:35Z</time>
      </trkpt>
      <trkpt lat="44.54213" lon="2.31187">
        <ele>230</ele>
        <time>2015-04-29T17:40:37Z</time>
      </trkpt>
      <trkpt lat="44.54205" lon="2.31199">
        <ele>229.9</ele>
        <time>2015-04-29T17:40:39Z</time>
      </trkpt>
      <trkpt lat="44.54198" lon="2.31211">
        <ele>229.9</ele>
        <time>2015-04-29T17:40:41Z</time>
      </trkpt>
      <trkpt lat="44.5419" lon="2.31224">
        <ele>229.6</ele>
        <time>2015-04-29T17:40:43Z</time>
      </trkpt>
      <trkpt lat="44.54183" lon="2.31238">
        <ele>229.6</ele>
        <time>2015-04-29T17:40:45Z</time>
      </trkpt>
      <trkpt lat="44.54175" lon="2.31252">
        <ele>229.7</ele>
        <time>2015-04-29T17:40:47Z</time>
      </trkpt>
      <trkpt lat="44.54168" lon="2.31266">
        <ele>229.3</ele>
        <time>2015-04-29T17:40:49Z</time>
      </trkpt>
      <trkpt lat="44.5416" lon="2.31279">
        <ele>229.2</ele>
        <time>2015-04-29T17:40:51Z</time>
      </trkpt>
      <trkpt lat="44.54154" lon="2.31292">
        <ele>229.2</ele>
        <time>2015-04-29T17:40:53Z</time>
      </trkpt>
      <trkpt lat="44.54147" lon="2.31305">
        <ele>229.3</ele>
        <time>2015-04-29T17:40:55Z</time>
      </trkpt>
      <trkpt lat="44.5414" lon="2.31317">
        <ele>229.4</ele>
        <time>2015-04-29T17:40:57Z</time>
      </trkpt>
      <trkpt lat="44.54133" lon="2.3133">
        <ele>229.5</ele>
        <time>2015-04-29T17:40:59Z</time>
      </trkpt>
      <trkpt lat="44.54126" lon="2.31343">
        <ele>229.3</ele>
        <time>2015-04-29T17:41:01Z</time>
      </trkpt>
      <trkpt lat="44.54119" lon="2.31356">
        <ele>229</ele>
        <time>2015-04-29T17:41:03Z</time>
      </trkpt>
      <trkpt lat="44.54111" lon="2.31369">
        <ele>228.3</ele>
        <time>2015-04-29T17:41:05Z</time>
      </trkpt>
      <trkpt lat="44.54103" lon="2.31381">
        <ele>228.1</ele>
        <time>2015-04-29T17:41:07Z</time>
      </trkpt>
      <trkpt lat="44.54096" lon="2.31394">
        <ele>228</ele>
        <time>2015-04-29T17:41:09Z</time>
      </trkpt>
      <trkpt lat="44.54089" lon="2.31406">
        <ele>228.5</ele>
        <time>2015-04-29T17:41:11Z</time>
      </trkpt>
      <trkpt lat="44.54083" lon="2.31417">
        <ele>229.4</ele>
        <time>2015-04-29T17:41:13Z</time>
      </trkpt>
      <trkpt lat="44.54077" lon="2.31427">
        <ele>230.3</ele>
        <time>2015-04-29T17:41:15Z</time>
      </trkpt>
      <trkpt lat="44.54071" lon="2.31437">
        <ele>230.9</ele>
        <time>2015-04-29T17:41:17Z</time>
      </trkpt>
      <trkpt lat="44.54064" lon="2.31447">
        <ele>231.4</ele>
        <time>2015-04-29T17:41:19Z</time>
      </trkpt>
      <trkpt lat="44.54058" lon="2.31457">
        <ele>231.8</ele>
        <time>2015-04-29T17:41:21Z</time>
      </trkpt>
      <trkpt lat="44.54052" lon="2.31467">
        <ele>232.3</ele>
        <time>2015-04-29T17:41:23Z</time>
      </trkpt>
      <trkpt lat="44.54039" lon="2.31489">
        <ele>233.1</ele>
        <time>2015-04-29T17:41:27Z</time>
      </trkpt>
      <trkpt lat="44.54033" lon="2.31499">
        <ele>233.3</ele>
        <time>2015-04-29T17:41:29Z</time>
      </trkpt>
      <trkpt lat="44.54026" lon="2.3151">
        <ele>233.3</ele>
        <time>2015-04-29T17:41:31Z</time>
      </trkpt>
      <trkpt lat="44.54019" lon="2.31525">
        <ele>234</ele>
        <time>2015-04-29T17:41:34Z</time>
      </trkpt>
      <trkpt lat="44.54013" lon="2.31535">
        <ele>234.1</ele>
        <time>2015-04-29T17:41:36Z</time>
      </trkpt>
      <trkpt lat="44.54007" lon="2.31547">
        <ele>234.1</ele>
        <time>2015-04-29T17:41:38Z</time>
      </trkpt>
      <trkpt lat="44.54" lon="2.31558">
        <ele>233.7</ele>
        <time>2015-04-29T17:41:40Z</time>
      </trkpt>
      <trkpt lat="44.53992" lon="2.3157">
        <ele>233.5</ele>
        <time>2015-04-29T17:41:42Z</time>
      </trkpt>
      <trkpt lat="44.53985" lon="2.31581">
        <ele>233.3</ele>
        <time>2015-04-29T17:41:44Z</time>
      </trkpt>
      <trkpt lat="44.53977" lon="2.31594">
        <ele>234</ele>
        <time>2015-04-29T17:41:46Z</time>
      </trkpt>
      <trkpt lat="44.5397" lon="2.31606">
        <ele>234.4</ele>
        <time>2015-04-29T17:41:48Z</time>
      </trkpt>
      <trkpt lat="44.53962" lon="2.31618">
        <ele>234</ele>
        <time>2015-04-29T17:41:50Z</time>
      </trkpt>
      <trkpt lat="44.53955" lon="2.3163">
        <ele>234.1</ele>
        <time>2015-04-29T17:41:52Z</time>
      </trkpt>
      <trkpt lat="44.53947" lon="2.31643">
        <ele>234.4</ele>
        <time>2015-04-29T17:41:54Z</time>
      </trkpt>
      <trkpt lat="44.53939" lon="2.31655">
        <ele>234.3</ele>
        <time>2015-04-29T17:41:56Z</time>
      </trkpt>
      <trkpt lat="44.53931" lon="2.31668">
        <ele>234.3</ele>
        <time>2015-04-29T17:41:58Z</time>
      </trkpt>
      <trkpt lat="44.53924" lon="2.3168">
        <ele>234.4</ele>
        <time>2015-04-29T17:42:00Z</time>
      </trkpt>
      <trkpt lat="44.53917" lon="2.31692">
        <ele>234.3</ele>
        <time>2015-04-29T17:42:02Z</time>
      </trkpt>
      <trkpt lat="44.53909" lon="2.31705">
        <ele>234.3</ele>
        <time>2015-04-29T17:42:04Z</time>
      </trkpt>
      <trkpt lat="44.53902" lon="2.31717">
        <ele>234.8</ele>
        <time>2015-04-29T17:42:06Z</time>
      </trkpt>
      <trkpt lat="44.53894" lon="2.31729">
        <ele>235</ele>
        <time>2015-04-29T17:42:08Z</time>
      </trkpt>
      <trkpt lat="44.53886" lon="2.31741">
        <ele>235.2</ele>
        <time>2015-04-29T17:42:10Z</time>
      </trkpt>
      <trkpt lat="44.53879" lon="2.31752">
        <ele>235.2</ele>
        <time>2015-04-29T17:42:12Z</time>
      </trkpt>
      <trkpt lat="44.5387" lon="2.31764">
        <ele>235.1</ele>
        <time>2015-04-29T17:42:14Z</time>
      </trkpt>
      <trkpt lat="44.53862" lon="2.31775">
        <ele>235.1</ele>
        <time>2015-04-29T17:42:16Z</time>
      </trkpt>
      <trkpt lat="44.53853" lon="2.31785">
        <ele>234.8</ele>
        <time>2015-04-29T17:42:18Z</time>
      </trkpt>
      <trkpt lat="44.53845" lon="2.31794">
        <ele>235.2</ele>
        <time>2015-04-29T17:42:20Z</time>
      </trkpt>
      <trkpt lat="44.53835" lon="2.31803">
        <ele>235.9</ele>
        <time>2015-04-29T17:42:22Z</time>
      </trkpt>
      <trkpt lat="44.53826" lon="2.31811">
        <ele>236</ele>
        <time>2015-04-29T17:42:24Z</time>
      </trkpt>
      <trkpt lat="44.53806" lon="2.31826">
        <ele>235.7</ele>
        <time>2015-04-29T17:42:28Z</time>
      </trkpt>
      <trkpt lat="44.53796" lon="2.31833">
        <ele>235.8</ele>
        <time>2015-04-29T17:42:30Z</time>
      </trkpt>
      <trkpt lat="44.53786" lon="2.31841">
        <ele>235.9</ele>
        <time>2015-04-29T17:42:32Z</time>
      </trkpt>
      <trkpt lat="44.53776" lon="2.3185">
        <ele>235.8</ele>
        <time>2015-04-29T17:42:34Z</time>
      </trkpt>
      <trkpt lat="44.53768" lon="2.3186">
        <ele>235.9</ele>
        <time>2015-04-29T17:42:36Z</time>
      </trkpt>
      <trkpt lat="44.5376" lon="2.31871">
        <ele>236</ele>
        <time>2015-04-29T17:42:38Z</time>
      </trkpt>
      <trkpt lat="44.53753" lon="2.31884">
        <ele>236.1</ele>
        <time>2015-04-29T17:42:40Z</time>
      </trkpt>
      <trkpt lat="44.53747" lon="2.31897">
        <ele>236.1</ele>
        <time>2015-04-29T17:42:42Z</time>
      </trkpt>
      <trkpt lat="44.53742" lon="2.31911">
        <ele>235.8</ele>
        <time>2015-04-29T17:42:44Z</time>
      </trkpt>
      <trkpt lat="44.53738" lon="2.31926">
        <ele>236</ele>
        <time>2015-04-29T17:42:46Z</time>
      </trkpt>
      <trkpt lat="44.53734" lon="2.31941">
        <ele>236.2</ele>
        <time>2015-04-29T17:42:48Z</time>
      </trkpt>
      <trkpt lat="44.53731" lon="2.31956">
        <ele>236.2</ele>
        <time>2015-04-29T17:42:50Z</time>
      </trkpt>
      <trkpt lat="44.53728" lon="2.3197">
        <ele>236.4</ele>
        <time>2015-04-29T17:42:52Z</time>
      </trkpt>
      <trkpt lat="44.53724" lon="2.31983">
        <ele>236.5</ele>
        <time>2015-04-29T17:42:54Z</time>
      </trkpt>
      <trkpt lat="44.53713" lon="2.3199">
        <ele>236.3</ele>
        <time>2015-04-29T17:42:57Z</time>
      </trkpt>
      <trkpt lat="44.53704" lon="2.31989">
        <ele>236.5</ele>
        <time>2015-04-29T17:42:59Z</time>
      </trkpt>
      <trkpt lat="44.53694" lon="2.31987">
        <ele>236.9</ele>
        <time>2015-04-29T17:43:01Z</time>
      </trkpt>
      <trkpt lat="44.53683" lon="2.31985">
        <ele>237.3</ele>
        <time>2015-04-29T17:43:03Z</time>
      </trkpt>
      <trkpt lat="44.53673" lon="2.31983">
        <ele>237.4</ele>
        <time>2015-04-29T17:43:05Z</time>
      </trkpt>
      <trkpt lat="44.53663" lon="2.31981">
        <ele>237.3</ele>
        <time>2015-04-29T17:43:07Z</time>
      </trkpt>
      <trkpt lat="44.53653" lon="2.31977">
        <ele>236.9</ele>
        <time>2015-04-29T17:43:09Z</time>
      </trkpt>
      <trkpt lat="44.53645" lon="2.31969">
        <ele>236.6</ele>
        <time>2015-04-29T17:43:11Z</time>
      </trkpt>
      <trkpt lat="44.53638" lon="2.31961">
        <ele>237</ele>
        <time>2015-04-29T17:43:13Z</time>
      </trkpt>
      <trkpt lat="44.5363" lon="2.31953">
        <ele>237.4</ele>
        <time>2015-04-29T17:43:15Z</time>
      </trkpt>
      <trkpt lat="44.53622" lon="2.31945">
        <ele>237.7</ele>
        <time>2015-04-29T17:43:17Z</time>
      </trkpt>
      <trkpt lat="44.53613" lon="2.31938">
        <ele>237.4</ele>
        <time>2015-04-29T17:43:19Z</time>
      </trkpt>
      <trkpt lat="44.53605" lon="2.31931">
        <ele>237.2</ele>
        <time>2015-04-29T17:43:21Z</time>
      </trkpt>
      <trkpt lat="44.53597" lon="2.31924">
        <ele>237.1</ele>
        <time>2015-04-29T17:43:23Z</time>
      </trkpt>
      <trkpt lat="44.53589" lon="2.31915">
        <ele>237.1</ele>
        <time>2015-04-29T17:43:25Z</time>
      </trkpt>
      <trkpt lat="44.53581" lon="2.31907">
        <ele>237.1</ele>
        <time>2015-04-29T17:43:27Z</time>
      </trkpt>
      <trkpt lat="44.53566" lon="2.31892">
        <ele>237.8</ele>
        <time>2015-04-29T17:43:31Z</time>
      </trkpt>
      <trkpt lat="44.53555" lon="2.31881">
        <ele>237.9</ele>
        <time>2015-04-29T17:43:34Z</time>
      </trkpt>
      <trkpt lat="44.53547" lon="2.3187">
        <ele>237.9</ele>
        <time>2015-04-29T17:43:37Z</time>
      </trkpt>
      <trkpt lat="44.53543" lon="2.31858">
        <ele>238.4</ele>
        <time>2015-04-29T17:43:40Z</time>
      </trkpt>
      <trkpt lat="44.5354" lon="2.31846">
        <ele>239</ele>
        <time>2015-04-29T17:44:01Z</time>
      </trkpt>
      <trkpt lat="44.53542" lon="2.31832">
        <ele>239.4</ele>
        <time>2015-04-29T17:44:08Z</time>
      </trkpt>
      <trkpt lat="44.53541" lon="2.31817">
        <ele>239.1</ele>
        <time>2015-04-29T17:44:11Z</time>
      </trkpt>
      <trkpt lat="44.53533" lon="2.31804">
        <ele>238.7</ele>
        <time>2015-04-29T17:44:14Z</time>
      </trkpt>
      <trkpt lat="44.53525" lon="2.31793">
        <ele>239</ele>
        <time>2015-04-29T17:44:17Z</time>
      </trkpt>
      <trkpt lat="44.53517" lon="2.31782">
        <ele>239.7</ele>
        <time>2015-04-29T17:44:20Z</time>
      </trkpt>
      <trkpt lat="44.53509" lon="2.31771">
        <ele>239.8</ele>
        <time>2015-04-29T17:44:23Z</time>
      </trkpt>
      <trkpt lat="44.53501" lon="2.31761">
        <ele>240.9</ele>
        <time>2015-04-29T17:44:26Z</time>
      </trkpt>
      <trkpt lat="44.53493" lon="2.31751">
        <ele>241.4</ele>
        <time>2015-04-29T17:44:29Z</time>
      </trkpt>
      <trkpt lat="44.53478" lon="2.31733">
        <ele>242.4</ele>
        <time>2015-04-29T17:44:35Z</time>
      </trkpt>
      <trkpt lat="44.53469" lon="2.31723">
        <ele>242.6</ele>
        <time>2015-04-29T17:44:39Z</time>
      </trkpt>
      <trkpt lat="44.53469" lon="2.3171">
        <ele>243.5</ele>
        <time>2015-04-29T17:44:43Z</time>
      </trkpt>
      <trkpt lat="44.53475" lon="2.317">
        <ele>244</ele>
        <time>2015-04-29T17:44:47Z</time>
      </trkpt>
      <trkpt lat="44.53483" lon="2.31691">
        <ele>244.2</ele>
        <time>2015-04-29T17:44:51Z</time>
      </trkpt>
      <trkpt lat="44.5349" lon="2.31683">
        <ele>245.5</ele>
        <time>2015-04-29T17:44:55Z</time>
      </trkpt>
      <trkpt lat="44.53499" lon="2.31677">
        <ele>246.5</ele>
        <time>2015-04-29T17:44:59Z</time>
      </trkpt>
      <trkpt lat="44.53508" lon="2.31676">
        <ele>247.7</ele>
        <time>2015-04-29T17:45:03Z</time>
      </trkpt>
      <trkpt lat="44.53517" lon="2.31679">
        <ele>248.5</ele>
        <time>2015-04-29T17:45:07Z</time>
      </trkpt>
      <trkpt lat="44.53526" lon="2.31683">
        <ele>249.7</ele>
        <time>2015-04-29T17:45:11Z</time>
      </trkpt>
      <trkpt lat="44.53535" lon="2.31688">
        <ele>250.4</ele>
        <time>2015-04-29T17:45:15Z</time>
      </trkpt>
      <trkpt lat="44.53543" lon="2.31691">
        <ele>251.3</ele>
        <time>2015-04-29T17:45:19Z</time>
      </trkpt>
      <trkpt lat="44.53553" lon="2.31692">
        <ele>252.9</ele>
        <time>2015-04-29T17:45:24Z</time>
      </trkpt>
      <trkpt lat="44.53562" lon="2.31689">
        <ele>253.8</ele>
        <time>2015-04-29T17:45:29Z</time>
      </trkpt>
      <trkpt lat="44.5357" lon="2.3168">
        <ele>255.9</ele>
        <time>2015-04-29T17:45:35Z</time>
      </trkpt>
      <trkpt lat="44.53581" lon="2.31655">
        <ele>257.7</ele>
        <time>2015-04-29T17:45:47Z</time>
      </trkpt>
      <trkpt lat="44.53584" lon="2.31643">
        <ele>258.9</ele>
        <time>2015-04-29T17:45:52Z</time>
      </trkpt>
      <trkpt lat="44.53589" lon="2.31631">
        <ele>260.1</ele>
        <time>2015-04-29T17:45:58Z</time>
      </trkpt>
      <trkpt lat="44.53595" lon="2.31619">
        <ele>261.5</ele>
        <time>2015-04-29T17:46:04Z</time>
      </trkpt>
      <trkpt lat="44.53602" lon="2.31608">
        <ele>262.4</ele>
        <time>2015-04-29T17:46:10Z</time>
      </trkpt>
      <trkpt lat="44.53609" lon="2.31596">
        <ele>263.6</ele>
        <time>2015-04-29T17:46:16Z</time>
      </trkpt>
      <trkpt lat="44.53614" lon="2.31584">
        <ele>265.6</ele>
        <time>2015-04-29T17:46:22Z</time>
      </trkpt>
      <trkpt lat="44.53618" lon="2.31571">
        <ele>266.7</ele>
        <time>2015-04-29T17:46:27Z</time>
      </trkpt>
      <trkpt lat="44.5362" lon="2.31557">
        <ele>266.9</ele>
        <time>2015-04-29T17:46:32Z</time>
      </trkpt>
      <trkpt lat="44.53621" lon="2.31543">
        <ele>268.4</ele>
        <time>2015-04-29T17:46:37Z</time>
      </trkpt>
      <trkpt lat="44.53617" lon="2.31516">
        <ele>270.8</ele>
        <time>2015-04-29T17:46:47Z</time>
      </trkpt>
      <trkpt lat="44.53613" lon="2.31505">
        <ele>271.9</ele>
        <time>2015-04-29T17:46:52Z</time>
      </trkpt>
      <trkpt lat="44.53607" lon="2.31495">
        <ele>272.9</ele>
        <time>2015-04-29T17:46:57Z</time>
      </trkpt>
      <trkpt lat="44.536" lon="2.31487">
        <ele>273.6</ele>
        <time>2015-04-29T17:47:02Z</time>
      </trkpt>
      <trkpt lat="44.53592" lon="2.3148">
        <ele>274.5</ele>
        <time>2015-04-29T17:47:07Z</time>
      </trkpt>
      <trkpt lat="44.53583" lon="2.31475">
        <ele>275.4</ele>
        <time>2015-04-29T17:47:12Z</time>
      </trkpt>
      <trkpt lat="44.53574" lon="2.31472">
        <ele>276.2</ele>
        <time>2015-04-29T17:47:17Z</time>
      </trkpt>
      <trkpt lat="44.53564" lon="2.31469">
        <ele>276</ele>
        <time>2015-04-29T17:47:23Z</time>
      </trkpt>
      <trkpt lat="44.53555" lon="2.31464">
        <ele>277.8</ele>
        <time>2015-04-29T17:47:28Z</time>
      </trkpt>
      <trkpt lat="44.53545" lon="2.31459">
        <ele>278.6</ele>
        <time>2015-04-29T17:47:33Z</time>
      </trkpt>
      <trkpt lat="44.53535" lon="2.31454">
        <ele>278.9</ele>
        <time>2015-04-29T17:47:38Z</time>
      </trkpt>
      <trkpt lat="44.53515" lon="2.31443">
        <ele>280.3</ele>
        <time>2015-04-29T17:47:48Z</time>
      </trkpt>
      <trkpt lat="44.53507" lon="2.31439">
        <ele>280.5</ele>
        <time>2015-04-29T17:47:52Z</time>
      </trkpt>
      <trkpt lat="44.53498" lon="2.31433">
        <ele>280.8</ele>
        <time>2015-04-29T17:47:56Z</time>
      </trkpt>
      <trkpt lat="44.53489" lon="2.31426">
        <ele>280.9</ele>
        <time>2015-04-29T17:48:00Z</time>
      </trkpt>
      <trkpt lat="44.53479" lon="2.31419">
        <ele>279.6</ele>
        <time>2015-04-29T17:48:04Z</time>
      </trkpt>
      <trkpt lat="44.53468" lon="2.31412">
        <ele>279.7</ele>
        <time>2015-04-29T17:48:08Z</time>
      </trkpt>
      <trkpt lat="44.53458" lon="2.31408">
        <ele>280.6</ele>
        <time>2015-04-29T17:48:12Z</time>
      </trkpt>
      <trkpt lat="44.53448" lon="2.31405">
        <ele>281.5</ele>
        <time>2015-04-29T17:48:16Z</time>
      </trkpt>
      <trkpt lat="44.53439" lon="2.31401">
        <ele>283</ele>
        <time>2015-04-29T17:48:20Z</time>
      </trkpt>
      <trkpt lat="44.5343" lon="2.31397">
        <ele>283.6</ele>
        <time>2015-04-29T17:48:24Z</time>
      </trkpt>
      <trkpt lat="44.53421" lon="2.31392">
        <ele>284.4</ele>
        <time>2015-04-29T17:48:29Z</time>
      </trkpt>
      <trkpt lat="44.53412" lon="2.31388">
        <ele>285.8</ele>
        <time>2015-04-29T17:48:34Z</time>
      </trkpt>
      <trkpt lat="44.53403" lon="2.31383">
        <ele>286.7</ele>
        <time>2015-04-29T17:48:39Z</time>
      </trkpt>
      <trkpt lat="44.53384" lon="2.31378">
        <ele>289.9</ele>
        <time>2015-04-29T17:48:50Z</time>
      </trkpt>
      <trkpt lat="44.53375" lon="2.31375">
        <ele>290.9</ele>
        <time>2015-04-29T17:48:55Z</time>
      </trkpt>
      <trkpt lat="44.53366" lon="2.31372">
        <ele>293</ele>
        <time>2015-04-29T17:49:01Z</time>
      </trkpt>
      <trkpt lat="44.53356" lon="2.31371">
        <ele>293.6</ele>
        <time>2015-04-29T17:49:07Z</time>
      </trkpt>
      <trkpt lat="44.53346" lon="2.31372">
        <ele>295.3</ele>
        <time>2015-04-29T17:49:13Z</time>
      </trkpt>
      <trkpt lat="44.53336" lon="2.31373">
        <ele>295.6</ele>
        <time>2015-04-29T17:49:19Z</time>
      </trkpt>
      <trkpt lat="44.53327" lon="2.3137">
        <ele>297.1</ele>
        <time>2015-04-29T17:49:25Z</time>
      </trkpt>
      <trkpt lat="44.53322" lon="2.31358">
        <ele>297.7</ele>
        <time>2015-04-29T17:49:31Z</time>
      </trkpt>
      <trkpt lat="44.53322" lon="2.31344">
        <ele>298.5</ele>
        <time>2015-04-29T17:49:37Z</time>
      </trkpt>
      <trkpt lat="44.53324" lon="2.31331">
        <ele>299.6</ele>
        <time>2015-04-29T17:49:43Z</time>
      </trkpt>
      <trkpt lat="44.53331" lon="2.31305">
        <ele>302.6</ele>
        <time>2015-04-29T17:49:57Z</time>
      </trkpt>
      <trkpt lat="44.53334" lon="2.31292">
        <ele>304.3</ele>
        <time>2015-04-29T17:50:04Z</time>
      </trkpt>
      <trkpt lat="44.53336" lon="2.31278">
        <ele>305.8</ele>
        <time>2015-04-29T17:50:11Z</time>
      </trkpt>
      <trkpt lat="44.53339" lon="2.31266">
        <ele>306</ele>
        <time>2015-04-29T17:50:17Z</time>
      </trkpt>
      <trkpt lat="44.5334" lon="2.31253">
        <ele>307.5</ele>
        <time>2015-04-29T17:50:23Z</time>
      </trkpt>
      <trkpt lat="44.53341" lon="2.3124">
        <ele>308.9</ele>
        <time>2015-04-29T17:50:29Z</time>
      </trkpt>
      <trkpt lat="44.53343" lon="2.31227">
        <ele>310.5</ele>
        <time>2015-04-29T17:50:35Z</time>
      </trkpt>
      <trkpt lat="44.53345" lon="2.31212">
        <ele>311.1</ele>
        <time>2015-04-29T17:50:41Z</time>
      </trkpt>
      <trkpt lat="44.53346" lon="2.312">
        <ele>312.6</ele>
        <time>2015-04-29T17:50:46Z</time>
      </trkpt>
      <trkpt lat="44.53348" lon="2.31172">
        <ele>314.5</ele>
        <time>2015-04-29T17:50:58Z</time>
      </trkpt>
      <trkpt lat="44.53351" lon="2.3116">
        <ele>316.1</ele>
        <time>2015-04-29T17:51:10Z</time>
      </trkpt>
      <trkpt lat="44.53343" lon="2.31151">
        <ele>316.9</ele>
        <time>2015-04-29T17:51:48Z</time>
      </trkpt>
      <trkpt lat="44.5333" lon="2.3113">
        <ele>318.9</ele>
        <time>2015-04-29T17:52:00Z</time>
      </trkpt>
      <trkpt lat="44.53321" lon="2.31122">
        <ele>318.6</ele>
        <time>2015-04-29T17:52:06Z</time>
      </trkpt>
      <trkpt lat="44.53311" lon="2.31118">
        <ele>320</ele>
        <time>2015-04-29T17:52:12Z</time>
      </trkpt>
      <trkpt lat="44.53301" lon="2.31116">
        <ele>321.7</ele>
        <time>2015-04-29T17:52:18Z</time>
      </trkpt>
      <trkpt lat="44.53292" lon="2.31114">
        <ele>323.1</ele>
        <time>2015-04-29T17:52:24Z</time>
      </trkpt>
      <trkpt lat="44.53282" lon="2.31114">
        <ele>324.4</ele>
        <time>2015-04-29T17:52:30Z</time>
      </trkpt>
      <trkpt lat="44.53273" lon="2.31116">
        <ele>325.3</ele>
        <time>2015-04-29T17:52:36Z</time>
      </trkpt>
      <trkpt lat="44.53263" lon="2.3112">
        <ele>327.3</ele>
        <time>2015-04-29T17:52:43Z</time>
      </trkpt>
      <trkpt lat="44.53253" lon="2.31124">
        <ele>328.7</ele>
        <time>2015-04-29T17:52:50Z</time>
      </trkpt>
      <trkpt lat="44.53234" lon="2.31124">
        <ele>331.5</ele>
        <time>2015-04-29T17:53:04Z</time>
      </trkpt>
      <trkpt lat="44.53232" lon="2.31112">
        <ele>333</ele>
        <time>2015-04-29T17:53:12Z</time>
      </trkpt>
      <trkpt lat="44.53226" lon="2.31103">
        <ele>336.9</ele>
        <time>2015-04-29T17:54:32Z</time>
      </trkpt>
      <trkpt lat="44.53225" lon="2.31064">
        <ele>338.2</ele>
        <time>2015-04-29T17:58:02Z</time>
      </trkpt>
      <trkpt lat="44.53216" lon="2.31059">
        <ele>339.4</ele>
        <time>2015-04-29T17:58:08Z</time>
      </trkpt>
      <trkpt lat="44.53206" lon="2.3106">
        <ele>339.9</ele>
        <time>2015-04-29T17:58:14Z</time>
      </trkpt>
      <trkpt lat="44.53187" lon="2.31064">
        <ele>344.1</ele>
        <time>2015-04-29T17:58:25Z</time>
      </trkpt>
      <trkpt lat="44.53178" lon="2.31072">
        <ele>345.9</ele>
        <time>2015-04-29T17:58:32Z</time>
      </trkpt>
      <trkpt lat="44.53168" lon="2.31077">
        <ele>348.3</ele>
        <time>2015-04-29T17:58:39Z</time>
      </trkpt>
      <trkpt lat="44.53158" lon="2.3108">
        <ele>349</ele>
        <time>2015-04-29T17:58:47Z</time>
      </trkpt>
      <trkpt lat="44.5315" lon="2.31084">
        <ele>350.2</ele>
        <time>2015-04-29T17:58:53Z</time>
      </trkpt>
      <trkpt lat="44.53141" lon="2.3109">
        <ele>352.2</ele>
        <time>2015-04-29T17:59:00Z</time>
      </trkpt>
      <trkpt lat="44.53133" lon="2.31097">
        <ele>354.4</ele>
        <time>2015-04-29T17:59:07Z</time>
      </trkpt>
      <trkpt lat="44.53126" lon="2.31104">
        <ele>356.3</ele>
        <time>2015-04-29T17:59:23Z</time>
      </trkpt>
      <trkpt lat="44.53107" lon="2.31105">
        <ele>359.4</ele>
        <time>2015-04-29T17:59:55Z</time>
      </trkpt>
      <trkpt lat="44.53097" lon="2.31101">
        <ele>361.8</ele>
        <time>2015-04-29T18:00:03Z</time>
      </trkpt>
      <trkpt lat="44.53088" lon="2.31099">
        <ele>362.4</ele>
        <time>2015-04-29T18:00:11Z</time>
      </trkpt>
      <trkpt lat="44.53078" lon="2.31101">
        <ele>364.2</ele>
        <time>2015-04-29T18:00:20Z</time>
      </trkpt>
      <trkpt lat="44.53069" lon="2.31099">
        <ele>364.6</ele>
        <time>2015-04-29T18:00:28Z</time>
      </trkpt>
      <trkpt lat="44.53051" lon="2.31093">
        <ele>365</ele>
        <time>2015-04-29T18:00:41Z</time>
      </trkpt>
      <trkpt lat="44.53041" lon="2.31094">
        <ele>365.1</ele>
        <time>2015-04-29T18:00:46Z</time>
      </trkpt>
      <trkpt lat="44.53031" lon="2.31095">
        <ele>364.8</ele>
        <time>2015-04-29T18:00:52Z</time>
      </trkpt>
      <trkpt lat="44.53022" lon="2.311">
        <ele>364.8</ele>
        <time>2015-04-29T18:00:58Z</time>
      </trkpt>
      <trkpt lat="44.53013" lon="2.31104">
        <ele>365.2</ele>
        <time>2015-04-29T18:01:06Z</time>
      </trkpt>
      <trkpt lat="44.53003" lon="2.31101">
        <ele>366</ele>
        <time>2015-04-29T18:01:13Z</time>
      </trkpt>
      <trkpt lat="44.52995" lon="2.31094">
        <ele>366.2</ele>
        <time>2015-04-29T18:01:19Z</time>
      </trkpt>
      <trkpt lat="44.52986" lon="2.31093">
        <ele>366.3</ele>
        <time>2015-04-29T18:01:23Z</time>
      </trkpt>
      <trkpt lat="44.52976" lon="2.31097">
        <ele>367.4</ele>
        <time>2015-04-29T18:01:28Z</time>
      </trkpt>
      <trkpt lat="44.52966" lon="2.311">
        <ele>368.5</ele>
        <time>2015-04-29T18:01:34Z</time>
      </trkpt>
      <trkpt lat="44.52947" lon="2.31101">
        <ele>373.6</ele>
        <time>2015-04-29T18:01:47Z</time>
      </trkpt>
      <trkpt lat="44.52937" lon="2.31101">
        <ele>376.6</ele>
        <time>2015-04-29T18:01:54Z</time>
      </trkpt>
      <trkpt lat="44.52928" lon="2.31096">
        <ele>379.3</ele>
        <time>2015-04-29T18:02:02Z</time>
      </trkpt>
      <trkpt lat="44.5292" lon="2.31092">
        <ele>381.4</ele>
        <time>2015-04-29T18:02:10Z</time>
      </trkpt>
      <trkpt lat="44.5291" lon="2.31089">
        <ele>383.1</ele>
        <time>2015-04-29T18:02:18Z</time>
      </trkpt>
      <trkpt lat="44.52901" lon="2.31085">
        <ele>384.6</ele>
        <time>2015-04-29T18:02:29Z</time>
      </trkpt>
      <trkpt lat="44.52893" lon="2.31093">
        <ele>384</ele>
        <time>2015-04-29T18:04:59Z</time>
      </trkpt>
      <trkpt lat="44.52891" lon="2.3108">
        <ele>384.3</ele>
        <time>2015-04-29T18:07:34Z</time>
      </trkpt>
      <trkpt lat="44.52906" lon="2.31061">
        <ele>378</ele>
        <time>2015-04-29T18:07:46Z</time>
      </trkpt>
      <trkpt lat="44.52913" lon="2.31054">
        <ele>376.2</ele>
        <time>2015-04-29T18:07:48Z</time>
      </trkpt>
      <trkpt lat="44.52924" lon="2.31048">
        <ele>372.8</ele>
        <time>2015-04-29T18:07:50Z</time>
      </trkpt>
      <trkpt lat="44.52935" lon="2.31047">
        <ele>368.8</ele>
        <time>2015-04-29T18:07:53Z</time>
      </trkpt>
      <trkpt lat="44.52944" lon="2.31044">
        <ele>364</ele>
        <time>2015-04-29T18:08:00Z</time>
      </trkpt>
      <trkpt lat="44.52956" lon="2.31039">
        <ele>362.3</ele>
        <time>2015-04-29T18:08:03Z</time>
      </trkpt>
      <trkpt lat="44.52966" lon="2.3103">
        <ele>360.2</ele>
        <time>2015-04-29T18:08:05Z</time>
      </trkpt>
      <trkpt lat="44.52977" lon="2.31024">
        <ele>358</ele>
        <time>2015-04-29T18:08:07Z</time>
      </trkpt>
      <trkpt lat="44.52986" lon="2.31018">
        <ele>353.9</ele>
        <time>2015-04-29T18:08:10Z</time>
      </trkpt>
      <trkpt lat="44.52996" lon="2.31015">
        <ele>350.7</ele>
        <time>2015-04-29T18:08:15Z</time>
      </trkpt>
      <trkpt lat="44.53004" lon="2.31009">
        <ele>347.8</ele>
        <time>2015-04-29T18:08:19Z</time>
      </trkpt>
      <trkpt lat="44.53011" lon="2.30999">
        <ele>345.1</ele>
        <time>2015-04-29T18:08:22Z</time>
      </trkpt>
      <trkpt lat="44.53019" lon="2.30985">
        <ele>341.1</ele>
        <time>2015-04-29T18:08:26Z</time>
      </trkpt>
      <trkpt lat="44.53025" lon="2.30973">
        <ele>339.2</ele>
        <time>2015-04-29T18:08:28Z</time>
      </trkpt>
      <trkpt lat="44.53031" lon="2.30961">
        <ele>337.4</ele>
        <time>2015-04-29T18:08:30Z</time>
      </trkpt>
      <trkpt lat="44.53044" lon="2.30952">
        <ele>331.7</ele>
        <time>2015-04-29T18:08:33Z</time>
      </trkpt>
      <trkpt lat="44.53055" lon="2.30948">
        <ele>328.5</ele>
        <time>2015-04-29T18:08:35Z</time>
      </trkpt>
      <trkpt lat="44.53065" lon="2.30943">
        <ele>325.9</ele>
        <time>2015-04-29T18:08:37Z</time>
      </trkpt>
      <trkpt lat="44.53086" lon="2.30936">
        <ele>321.2</ele>
        <time>2015-04-29T18:08:41Z</time>
      </trkpt>
      <trkpt lat="44.53096" lon="2.30932">
        <ele>317.2</ele>
        <time>2015-04-29T18:08:44Z</time>
      </trkpt>
      <trkpt lat="44.53108" lon="2.30932">
        <ele>312.7</ele>
        <time>2015-04-29T18:08:48Z</time>
      </trkpt>
      <trkpt lat="44.53119" lon="2.30922">
        <ele>310.9</ele>
        <time>2015-04-29T18:08:51Z</time>
      </trkpt>
      <trkpt lat="44.53131" lon="2.30915">
        <ele>309.5</ele>
        <time>2015-04-29T18:08:54Z</time>
      </trkpt>
      <trkpt lat="44.53139" lon="2.30907">
        <ele>308.7</ele>
        <time>2015-04-29T18:08:56Z</time>
      </trkpt>
      <trkpt lat="44.5315" lon="2.30903">
        <ele>307.9</ele>
        <time>2015-04-29T18:08:58Z</time>
      </trkpt>
      <trkpt lat="44.5316" lon="2.309">
        <ele>306.8</ele>
        <time>2015-04-29T18:09:00Z</time>
      </trkpt>
      <trkpt lat="44.5317" lon="2.30896">
        <ele>306.1</ele>
        <time>2015-04-29T18:09:03Z</time>
      </trkpt>
      <trkpt lat="44.53173" lon="2.30883">
        <ele>305.3</ele>
        <time>2015-04-29T18:09:06Z</time>
      </trkpt>
      <trkpt lat="44.53179" lon="2.3087">
        <ele>302.8</ele>
        <time>2015-04-29T18:09:09Z</time>
      </trkpt>
      <trkpt lat="44.53187" lon="2.30863">
        <ele>300.7</ele>
        <time>2015-04-29T18:09:11Z</time>
      </trkpt>
      <trkpt lat="44.53199" lon="2.30857">
        <ele>297.5</ele>
        <time>2015-04-29T18:09:14Z</time>
      </trkpt>
      <trkpt lat="44.5321" lon="2.30852">
        <ele>295.5</ele>
        <time>2015-04-29T18:09:17Z</time>
      </trkpt>
      <trkpt lat="44.53219" lon="2.30851">
        <ele>294.8</ele>
        <time>2015-04-29T18:09:21Z</time>
      </trkpt>
      <trkpt lat="44.53229" lon="2.30849">
        <ele>295.6</ele>
        <time>2015-04-29T18:09:25Z</time>
      </trkpt>
      <trkpt lat="44.53239" lon="2.30843">
        <ele>296.4</ele>
        <time>2015-04-29T18:09:29Z</time>
      </trkpt>
      <trkpt lat="44.53247" lon="2.30835">
        <ele>297.2</ele>
        <time>2015-04-29T18:09:33Z</time>
      </trkpt>
      <trkpt lat="44.53252" lon="2.30824">
        <ele>299.1</ele>
        <time>2015-04-29T18:09:47Z</time>
      </trkpt>
      <trkpt lat="44.5325" lon="2.30816">
        <ele>298.7</ele>
        <time>2015-04-29T18:10:40Z</time>
      </trkpt>
      <trkpt lat="44.53239" lon="2.30815">
        <ele>298.4</ele>
        <time>2015-04-29T18:10:47Z</time>
      </trkpt>
      <trkpt lat="44.53229" lon="2.30814">
        <ele>300.1</ele>
        <time>2015-04-29T18:10:53Z</time>
      </trkpt>
      <trkpt lat="44.53217" lon="2.30797">
        <ele>302.5</ele>
        <time>2015-04-29T18:11:03Z</time>
      </trkpt>
      <trkpt lat="44.53222" lon="2.30785">
        <ele>302.9</ele>
        <time>2015-04-29T18:11:09Z</time>
      </trkpt>
      <trkpt lat="44.53231" lon="2.30777">
        <ele>305.4</ele>
        <time>2015-04-29T18:11:15Z</time>
      </trkpt>
      <trkpt lat="44.53239" lon="2.30769">
        <ele>305.1</ele>
        <time>2015-04-29T18:11:20Z</time>
      </trkpt>
      <trkpt lat="44.53248" lon="2.30761">
        <ele>306.5</ele>
        <time>2015-04-29T18:11:25Z</time>
      </trkpt>
      <trkpt lat="44.53257" lon="2.30752">
        <ele>307.1</ele>
        <time>2015-04-29T18:11:30Z</time>
      </trkpt>
      <trkpt lat="44.53264" lon="2.30744">
        <ele>307.6</ele>
        <time>2015-04-29T18:11:34Z</time>
      </trkpt>
      <trkpt lat="44.5327" lon="2.30734">
        <ele>307.4</ele>
        <time>2015-04-29T18:11:38Z</time>
      </trkpt>
      <trkpt lat="44.53276" lon="2.30724">
        <ele>308.8</ele>
        <time>2015-04-29T18:11:42Z</time>
      </trkpt>
      <trkpt lat="44.5328" lon="2.30713">
        <ele>309.4</ele>
        <time>2015-04-29T18:11:46Z</time>
      </trkpt>
      <trkpt lat="44.53286" lon="2.30702">
        <ele>310.4</ele>
        <time>2015-04-29T18:11:50Z</time>
      </trkpt>
      <trkpt lat="44.53293" lon="2.30692">
        <ele>310.9</ele>
        <time>2015-04-29T18:11:54Z</time>
      </trkpt>
      <trkpt lat="44.53302" lon="2.30683">
        <ele>311.3</ele>
        <time>2015-04-29T18:11:59Z</time>
      </trkpt>
      <trkpt lat="44.53321" lon="2.3067">
        <ele>313.9</ele>
        <time>2015-04-29T18:12:09Z</time>
      </trkpt>
      <trkpt lat="44.5333" lon="2.30666">
        <ele>314.2</ele>
        <time>2015-04-29T18:12:13Z</time>
      </trkpt>
      <trkpt lat="44.5334" lon="2.30662">
        <ele>315.2</ele>
        <time>2015-04-29T18:12:17Z</time>
      </trkpt>
      <trkpt lat="44.53349" lon="2.30661">
        <ele>315.5</ele>
        <time>2015-04-29T18:12:21Z</time>
      </trkpt>
      <trkpt lat="44.53359" lon="2.30663">
        <ele>316.3</ele>
        <time>2015-04-29T18:12:25Z</time>
      </trkpt>
      <trkpt lat="44.53368" lon="2.30667">
        <ele>316.9</ele>
        <time>2015-04-29T18:12:29Z</time>
      </trkpt>
      <trkpt lat="44.53377" lon="2.30672">
        <ele>317.4</ele>
        <time>2015-04-29T18:12:33Z</time>
      </trkpt>
      <trkpt lat="44.53385" lon="2.30678">
        <ele>318.2</ele>
        <time>2015-04-29T18:12:37Z</time>
      </trkpt>
      <trkpt lat="44.53395" lon="2.30685">
        <ele>318.9</ele>
        <time>2015-04-29T18:12:42Z</time>
      </trkpt>
      <trkpt lat="44.53404" lon="2.30688">
        <ele>320.1</ele>
        <time>2015-04-29T18:12:46Z</time>
      </trkpt>
      <trkpt lat="44.53415" lon="2.30685">
        <ele>321</ele>
        <time>2015-04-29T18:12:51Z</time>
      </trkpt>
      <trkpt lat="44.53424" lon="2.30677">
        <ele>322</ele>
        <time>2015-04-29T18:12:56Z</time>
      </trkpt>
      <trkpt lat="44.53427" lon="2.30663">
        <ele>322.7</ele>
        <time>2015-04-29T18:13:01Z</time>
      </trkpt>
      <trkpt lat="44.53421" lon="2.30637">
        <ele>325.3</ele>
        <time>2015-04-29T18:13:11Z</time>
      </trkpt>
      <trkpt lat="44.53413" lon="2.30627">
        <ele>325.5</ele>
        <time>2015-04-29T18:13:16Z</time>
      </trkpt>
      <trkpt lat="44.53406" lon="2.30619">
        <ele>325.8</ele>
        <time>2015-04-29T18:13:20Z</time>
      </trkpt>
      <trkpt lat="44.53399" lon="2.30612">
        <ele>327.1</ele>
        <time>2015-04-29T18:13:24Z</time>
      </trkpt>
      <trkpt lat="44.53388" lon="2.30605">
        <ele>327.9</ele>
        <time>2015-04-29T18:13:29Z</time>
      </trkpt>
      <trkpt lat="44.53379" lon="2.30599">
        <ele>328.4</ele>
        <time>2015-04-29T18:13:34Z</time>
      </trkpt>
      <trkpt lat="44.53371" lon="2.30592">
        <ele>329</ele>
        <time>2015-04-29T18:13:39Z</time>
      </trkpt>
      <trkpt lat="44.53362" lon="2.30584">
        <ele>329.2</ele>
        <time>2015-04-29T18:13:44Z</time>
      </trkpt>
      <trkpt lat="44.53355" lon="2.30574">
        <ele>330.4</ele>
        <time>2015-04-29T18:13:49Z</time>
      </trkpt>
      <trkpt lat="44.53347" lon="2.30564">
        <ele>332.3</ele>
        <time>2015-04-29T18:13:54Z</time>
      </trkpt>
      <trkpt lat="44.53339" lon="2.30556">
        <ele>332.6</ele>
        <time>2015-04-29T18:13:59Z</time>
      </trkpt>
      <trkpt lat="44.53329" lon="2.30557">
        <ele>334.8</ele>
        <time>2015-04-29T18:14:05Z</time>
      </trkpt>
      <trkpt lat="44.53315" lon="2.30575">
        <ele>336.6</ele>
        <time>2015-04-29T18:14:15Z</time>
      </trkpt>
      <trkpt lat="44.53309" lon="2.30587">
        <ele>337.8</ele>
        <time>2015-04-29T18:14:21Z</time>
      </trkpt>
      <trkpt lat="44.533" lon="2.30593">
        <ele>338.5</ele>
        <time>2015-04-29T18:14:27Z</time>
      </trkpt>
      <trkpt lat="44.5329" lon="2.30591">
        <ele>339.8</ele>
        <time>2015-04-29T18:14:33Z</time>
      </trkpt>
      <trkpt lat="44.53281" lon="2.30586">
        <ele>341.2</ele>
        <time>2015-04-29T18:14:40Z</time>
      </trkpt>
      <trkpt lat="44.53279" lon="2.30574">
        <ele>343.5</ele>
        <time>2015-04-29T18:14:47Z</time>
      </trkpt>
      <trkpt lat="44.53276" lon="2.30561">
        <ele>344.4</ele>
        <time>2015-04-29T18:14:54Z</time>
      </trkpt>
      <trkpt lat="44.53274" lon="2.30548">
        <ele>345.8</ele>
        <time>2015-04-29T18:15:01Z</time>
      </trkpt>
      <trkpt lat="44.53271" lon="2.30535">
        <ele>346.6</ele>
        <time>2015-04-29T18:15:09Z</time>
      </trkpt>
      <trkpt lat="44.53266" lon="2.30507">
        <ele>348.7</ele>
        <time>2015-04-29T18:15:24Z</time>
      </trkpt>
      <trkpt lat="44.53263" lon="2.30493">
        <ele>349.2</ele>
        <time>2015-04-29T18:15:31Z</time>
      </trkpt>
      <trkpt lat="44.53261" lon="2.3048">
        <ele>349.3</ele>
        <time>2015-04-29T18:15:37Z</time>
      </trkpt>
      <trkpt lat="44.53261" lon="2.30466">
        <ele>351.3</ele>
        <time>2015-04-29T18:15:43Z</time>
      </trkpt>
      <trkpt lat="44.53261" lon="2.30452">
        <ele>352.4</ele>
        <time>2015-04-29T18:15:48Z</time>
      </trkpt>
      <trkpt lat="44.53261" lon="2.3044">
        <ele>353.6</ele>
        <time>2015-04-29T18:15:53Z</time>
      </trkpt>
      <trkpt lat="44.5326" lon="2.30427">
        <ele>354.3</ele>
        <time>2015-04-29T18:15:59Z</time>
      </trkpt>
      <trkpt lat="44.53258" lon="2.30413">
        <ele>355.1</ele>
        <time>2015-04-29T18:16:18Z</time>
      </trkpt>
      <trkpt lat="44.53259" lon="2.30386">
        <ele>355.7</ele>
        <time>2015-04-29T18:16:30Z</time>
      </trkpt>
      <trkpt lat="44.53261" lon="2.30372">
        <ele>357.1</ele>
        <time>2015-04-29T18:16:36Z</time>
      </trkpt>
      <trkpt lat="44.53261" lon="2.30358">
        <ele>357.7</ele>
        <time>2015-04-29T18:16:42Z</time>
      </trkpt>
      <trkpt lat="44.53262" lon="2.30342">
        <ele>358.5</ele>
        <time>2015-04-29T18:16:47Z</time>
      </trkpt>
      <trkpt lat="44.53264" lon="2.3033">
        <ele>358.6</ele>
        <time>2015-04-29T18:16:51Z</time>
      </trkpt>
      <trkpt lat="44.53265" lon="2.30316">
        <ele>361.3</ele>
        <time>2015-04-29T18:16:55Z</time>
      </trkpt>
      <trkpt lat="44.53266" lon="2.30301">
        <ele>362</ele>
        <time>2015-04-29T18:17:00Z</time>
      </trkpt>
      <trkpt lat="44.53268" lon="2.30285">
        <ele>362.3</ele>
        <time>2015-04-29T18:17:05Z</time>
      </trkpt>
      <trkpt lat="44.53269" lon="2.3027">
        <ele>362.7</ele>
        <time>2015-04-29T18:17:10Z</time>
      </trkpt>
      <trkpt lat="44.5327" lon="2.30255">
        <ele>363.8</ele>
        <time>2015-04-29T18:17:15Z</time>
      </trkpt>
      <trkpt lat="44.53271" lon="2.30241">
        <ele>365.1</ele>
        <time>2015-04-29T18:17:20Z</time>
      </trkpt>
      <trkpt lat="44.53272" lon="2.30211">
        <ele>366.7</ele>
        <time>2015-04-29T18:17:30Z</time>
      </trkpt>
      <trkpt lat="44.53272" lon="2.30197">
        <ele>366.9</ele>
        <time>2015-04-29T18:17:35Z</time>
      </trkpt>
      <trkpt lat="44.53274" lon="2.30183">
        <ele>368.4</ele>
        <time>2015-04-29T18:17:40Z</time>
      </trkpt>
      <trkpt lat="44.53275" lon="2.30169">
        <ele>369.3</ele>
        <time>2015-04-29T18:17:45Z</time>
      </trkpt>
      <trkpt lat="44.5328" lon="2.30156">
        <ele>369.8</ele>
        <time>2015-04-29T18:17:51Z</time>
      </trkpt>
      <trkpt lat="44.53281" lon="2.30142">
        <ele>370.6</ele>
        <time>2015-04-29T18:17:55Z</time>
      </trkpt>
      <trkpt lat="44.53281" lon="2.30129">
        <ele>371.8</ele>
        <time>2015-04-29T18:17:59Z</time>
      </trkpt>
      <trkpt lat="44.53282" lon="2.30117">
        <ele>373.6</ele>
        <time>2015-04-29T18:18:16Z</time>
      </trkpt>
      <trkpt lat="44.53292" lon="2.30111">
        <ele>373.3</ele>
        <time>2015-04-29T18:18:23Z</time>
      </trkpt>
      <trkpt lat="44.53312" lon="2.30104">
        <ele>373.5</ele>
        <time>2015-04-29T18:18:33Z</time>
      </trkpt>
      <trkpt lat="44.53322" lon="2.30101">
        <ele>374.3</ele>
        <time>2015-04-29T18:18:37Z</time>
      </trkpt>
      <trkpt lat="44.53333" lon="2.301">
        <ele>374.9</ele>
        <time>2015-04-29T18:18:41Z</time>
      </trkpt>
      <trkpt lat="44.53343" lon="2.30099">
        <ele>374.8</ele>
        <time>2015-04-29T18:18:45Z</time>
      </trkpt>
      <trkpt lat="44.53353" lon="2.30099">
        <ele>374.6</ele>
        <time>2015-04-29T18:18:49Z</time>
      </trkpt>
      <trkpt lat="44.53365" lon="2.30098">
        <ele>375.4</ele>
        <time>2015-04-29T18:18:53Z</time>
      </trkpt>
      <trkpt lat="44.53374" lon="2.30097">
        <ele>375.5</ele>
        <time>2015-04-29T18:18:56Z</time>
      </trkpt>
      <trkpt lat="44.53385" lon="2.30096">
        <ele>375.3</ele>
        <time>2015-04-29T18:19:00Z</time>
      </trkpt>
      <trkpt lat="44.53397" lon="2.30095">
        <ele>375.3</ele>
        <time>2015-04-29T18:19:04Z</time>
      </trkpt>
      <trkpt lat="44.53409" lon="2.30093">
        <ele>375.4</ele>
        <time>2015-04-29T18:19:08Z</time>
      </trkpt>
      <trkpt lat="44.53418" lon="2.30093">
        <ele>375.5</ele>
        <time>2015-04-29T18:19:11Z</time>
      </trkpt>
      <trkpt lat="44.53428" lon="2.30092">
        <ele>376.3</ele>
        <time>2015-04-29T18:19:14Z</time>
      </trkpt>
      <trkpt lat="44.53437" lon="2.30091">
        <ele>376.8</ele>
        <time>2015-04-29T18:19:17Z</time>
      </trkpt>
      <trkpt lat="44.53447" lon="2.3009">
        <ele>376.5</ele>
        <time>2015-04-29T18:19:20Z</time>
      </trkpt>
      <trkpt lat="44.53457" lon="2.30089">
        <ele>376.6</ele>
        <time>2015-04-29T18:19:23Z</time>
      </trkpt>
      <trkpt lat="44.53466" lon="2.30088">
        <ele>376.7</ele>
        <time>2015-04-29T18:19:26Z</time>
      </trkpt>
      <trkpt lat="44.53485" lon="2.30078">
        <ele>377.2</ele>
        <time>2015-04-29T18:19:32Z</time>
      </trkpt>
      <trkpt lat="44.53494" lon="2.3007">
        <ele>377.3</ele>
        <time>2015-04-29T18:19:35Z</time>
      </trkpt>
      <trkpt lat="44.53503" lon="2.30061">
        <ele>377</ele>
        <time>2015-04-29T18:19:38Z</time>
      </trkpt>
      <trkpt lat="44.53511" lon="2.3005">
        <ele>376.3</ele>
        <time>2015-04-29T18:19:41Z</time>
      </trkpt>
      <trkpt lat="44.53518" lon="2.30037">
        <ele>376</ele>
        <time>2015-04-29T18:19:44Z</time>
      </trkpt>
      <trkpt lat="44.53525" lon="2.30022">
        <ele>376.1</ele>
        <time>2015-04-29T18:19:47Z</time>
      </trkpt>
      <trkpt lat="44.53532" lon="2.30006">
        <ele>376.2</ele>
        <time>2015-04-29T18:19:50Z</time>
      </trkpt>
      <trkpt lat="44.53538" lon="2.29995">
        <ele>376</ele>
        <time>2015-04-29T18:19:52Z</time>
      </trkpt>
      <trkpt lat="44.53544" lon="2.29984">
        <ele>375.5</ele>
        <time>2015-04-29T18:19:54Z</time>
      </trkpt>
      <trkpt lat="44.53551" lon="2.29974">
        <ele>374.9</ele>
        <time>2015-04-29T18:19:56Z</time>
      </trkpt>
      <trkpt lat="44.53558" lon="2.29965">
        <ele>374.8</ele>
        <time>2015-04-29T18:19:58Z</time>
      </trkpt>
      <trkpt lat="44.53566" lon="2.29956">
        <ele>374.9</ele>
        <time>2015-04-29T18:20:00Z</time>
      </trkpt>
      <trkpt lat="44.53576" lon="2.29945">
        <ele>374.8</ele>
        <time>2015-04-29T18:20:03Z</time>
      </trkpt>
      <trkpt lat="44.53587" lon="2.29935">
        <ele>374.4</ele>
        <time>2015-04-29T18:20:06Z</time>
      </trkpt>
      <trkpt lat="44.53597" lon="2.29926">
        <ele>374.9</ele>
        <time>2015-04-29T18:20:09Z</time>
      </trkpt>
      <trkpt lat="44.53609" lon="2.29915">
        <ele>374.2</ele>
        <time>2015-04-29T18:20:12Z</time>
      </trkpt>
      <trkpt lat="44.53616" lon="2.29907">
        <ele>374.5</ele>
        <time>2015-04-29T18:20:14Z</time>
      </trkpt>
      <trkpt lat="44.53623" lon="2.29899">
        <ele>374.4</ele>
        <time>2015-04-29T18:20:16Z</time>
      </trkpt>
      <trkpt lat="44.53629" lon="2.2989">
        <ele>374.1</ele>
        <time>2015-04-29T18:20:18Z</time>
      </trkpt>
      <trkpt lat="44.53636" lon="2.29881">
        <ele>374.1</ele>
        <time>2015-04-29T18:20:20Z</time>
      </trkpt>
      <trkpt lat="44.53643" lon="2.29871">
        <ele>373.8</ele>
        <time>2015-04-29T18:20:22Z</time>
      </trkpt>
      <trkpt lat="44.5365" lon="2.29862">
        <ele>373.2</ele>
        <time>2015-04-29T18:20:24Z</time>
      </trkpt>
      <trkpt lat="44.5366" lon="2.29852">
        <ele>374</ele>
        <time>2015-04-29T18:20:27Z</time>
      </trkpt>
      <trkpt lat="44.53684" lon="2.29862">
        <ele>372.5</ele>
        <time>2015-04-29T18:20:33Z</time>
      </trkpt>
      <trkpt lat="44.53695" lon="2.2986">
        <ele>371.4</ele>
        <time>2015-04-29T18:20:35Z</time>
      </trkpt>
      <trkpt lat="44.53709" lon="2.29852">
        <ele>370.4</ele>
        <time>2015-04-29T18:20:37Z</time>
      </trkpt>
      <trkpt lat="44.53727" lon="2.29842">
        <ele>368.7</ele>
        <time>2015-04-29T18:20:39Z</time>
      </trkpt>
      <trkpt lat="44.53737" lon="2.29837">
        <ele>368.2</ele>
        <time>2015-04-29T18:20:40Z</time>
      </trkpt>
      <trkpt lat="44.53748" lon="2.29833">
        <ele>367.8</ele>
        <time>2015-04-29T18:20:41Z</time>
      </trkpt>
      <trkpt lat="44.53758" lon="2.29829">
        <ele>366.1</ele>
        <time>2015-04-29T18:20:42Z</time>
      </trkpt>
      <trkpt lat="44.53767" lon="2.29825">
        <ele>364.8</ele>
        <time>2015-04-29T18:20:43Z</time>
      </trkpt>
      <trkpt lat="44.53776" lon="2.29821">
        <ele>363.9</ele>
        <time>2015-04-29T18:20:44Z</time>
      </trkpt>
      <trkpt lat="44.53789" lon="2.29816">
        <ele>359.8</ele>
        <time>2015-04-29T18:20:46Z</time>
      </trkpt>
      <trkpt lat="44.53789" lon="2.29829">
        <ele>353.6</ele>
        <time>2015-04-29T18:20:52Z</time>
      </trkpt>
      <trkpt lat="44.53782" lon="2.29837">
        <ele>353.2</ele>
        <time>2015-04-29T18:20:55Z</time>
      </trkpt>
      <trkpt lat="44.53774" lon="2.29846">
        <ele>353.2</ele>
        <time>2015-04-29T18:20:58Z</time>
      </trkpt>
      <trkpt lat="44.53764" lon="2.29857">
        <ele>353.2</ele>
        <time>2015-04-29T18:21:01Z</time>
      </trkpt>
      <trkpt lat="44.53755" lon="2.29868">
        <ele>353.2</ele>
        <time>2015-04-29T18:21:04Z</time>
      </trkpt>
      <trkpt lat="44.53746" lon="2.29879">
        <ele>353</ele>
        <time>2015-04-29T18:21:07Z</time>
      </trkpt>
      <trkpt lat="44.53738" lon="2.29891">
        <ele>352.6</ele>
        <time>2015-04-29T18:21:10Z</time>
      </trkpt>
      <trkpt lat="44.5373" lon="2.29904">
        <ele>352.4</ele>
        <time>2015-04-29T18:21:13Z</time>
      </trkpt>
      <trkpt lat="44.53724" lon="2.29915">
        <ele>352.8</ele>
        <time>2015-04-29T18:21:15Z</time>
      </trkpt>
      <trkpt lat="44.53717" lon="2.29928">
        <ele>352.3</ele>
        <time>2015-04-29T18:21:17Z</time>
      </trkpt>
      <trkpt lat="44.5371" lon="2.29941">
        <ele>351.5</ele>
        <time>2015-04-29T18:21:19Z</time>
      </trkpt>
      <trkpt lat="44.53701" lon="2.29952">
        <ele>350.7</ele>
        <time>2015-04-29T18:21:21Z</time>
      </trkpt>
      <trkpt lat="44.53692" lon="2.29958">
        <ele>349.7</ele>
        <time>2015-04-29T18:21:25Z</time>
      </trkpt>
      <trkpt lat="44.53702" lon="2.29952">
        <ele>347.8</ele>
        <time>2015-04-29T18:21:32Z</time>
      </trkpt>
      <trkpt lat="44.5369" lon="2.29974">
        <ele>346.6</ele>
        <time>2015-04-29T18:22:02Z</time>
      </trkpt>
      <trkpt lat="44.53682" lon="2.2998">
        <ele>346.6</ele>
        <time>2015-04-29T18:22:04Z</time>
      </trkpt>
      <trkpt lat="44.53671" lon="2.29989">
        <ele>345.1</ele>
        <time>2015-04-29T18:22:06Z</time>
      </trkpt>
      <trkpt lat="44.53662" lon="2.29999">
        <ele>343.2</ele>
        <time>2015-04-29T18:22:08Z</time>
      </trkpt>
      <trkpt lat="44.53656" lon="2.30016">
        <ele>339.8</ele>
        <time>2015-04-29T18:22:11Z</time>
      </trkpt>
      <trkpt lat="44.53654" lon="2.30031">
        <ele>337.8</ele>
        <time>2015-04-29T18:22:13Z</time>
      </trkpt>
      <trkpt lat="44.53653" lon="2.30051">
        <ele>336.1</ele>
        <time>2015-04-29T18:22:15Z</time>
      </trkpt>
      <trkpt lat="44.53659" lon="2.30072">
        <ele>334</ele>
        <time>2015-04-29T18:22:17Z</time>
      </trkpt>
      <trkpt lat="44.53663" lon="2.30096">
        <ele>332.1</ele>
        <time>2015-04-29T18:22:19Z</time>
      </trkpt>
      <trkpt lat="44.53669" lon="2.3012">
        <ele>330.1</ele>
        <time>2015-04-29T18:22:21Z</time>
      </trkpt>
      <trkpt lat="44.53674" lon="2.30131">
        <ele>329.1</ele>
        <time>2015-04-29T18:22:22Z</time>
      </trkpt>
      <trkpt lat="44.53687" lon="2.30145">
        <ele>327</ele>
        <time>2015-04-29T18:22:24Z</time>
      </trkpt>
      <trkpt lat="44.53702" lon="2.30157">
        <ele>325.4</ele>
        <time>2015-04-29T18:22:26Z</time>
      </trkpt>
      <trkpt lat="44.5371" lon="2.30177">
        <ele>322.6</ele>
        <time>2015-04-29T18:22:28Z</time>
      </trkpt>
      <trkpt lat="44.53713" lon="2.30202">
        <ele>319.8</ele>
        <time>2015-04-29T18:22:30Z</time>
      </trkpt>
      <trkpt lat="44.53716" lon="2.30225">
        <ele>317.2</ele>
        <time>2015-04-29T18:22:32Z</time>
      </trkpt>
      <trkpt lat="44.53723" lon="2.30247">
        <ele>314.1</ele>
        <time>2015-04-29T18:22:34Z</time>
      </trkpt>
      <trkpt lat="44.53733" lon="2.30269">
        <ele>312.4</ele>
        <time>2015-04-29T18:22:36Z</time>
      </trkpt>
      <trkpt lat="44.53738" lon="2.30281">
        <ele>310.6</ele>
        <time>2015-04-29T18:22:37Z</time>
      </trkpt>
      <trkpt lat="44.53741" lon="2.30293">
        <ele>309.3</ele>
        <time>2015-04-29T18:22:38Z</time>
      </trkpt>
      <trkpt lat="44.53743" lon="2.30307">
        <ele>308.3</ele>
        <time>2015-04-29T18:22:39Z</time>
      </trkpt>
      <trkpt lat="44.53744" lon="2.3032">
        <ele>306.6</ele>
        <time>2015-04-29T18:22:40Z</time>
      </trkpt>
      <trkpt lat="44.5375" lon="2.30337">
        <ele>304.4</ele>
        <time>2015-04-29T18:22:42Z</time>
      </trkpt>
      <trkpt lat="44.53762" lon="2.30338">
        <ele>301.5</ele>
        <time>2015-04-29T18:22:44Z</time>
      </trkpt>
      <trkpt lat="44.53775" lon="2.30329">
        <ele>299.2</ele>
        <time>2015-04-29T18:22:46Z</time>
      </trkpt>
      <trkpt lat="44.53785" lon="2.30331">
        <ele>297.4</ele>
        <time>2015-04-29T18:22:48Z</time>
      </trkpt>
      <trkpt lat="44.53783" lon="2.30349">
        <ele>294.7</ele>
        <time>2015-04-29T18:22:51Z</time>
      </trkpt>
      <trkpt lat="44.53774" lon="2.30364">
        <ele>292.7</ele>
        <time>2015-04-29T18:22:53Z</time>
      </trkpt>
      <trkpt lat="44.53765" lon="2.30384">
        <ele>291.5</ele>
        <time>2015-04-29T18:22:55Z</time>
      </trkpt>
      <trkpt lat="44.53761" lon="2.30408">
        <ele>289.9</ele>
        <time>2015-04-29T18:22:57Z</time>
      </trkpt>
      <trkpt lat="44.5376" lon="2.30421">
        <ele>289.4</ele>
        <time>2015-04-29T18:22:58Z</time>
      </trkpt>
      <trkpt lat="44.53758" lon="2.30435">
        <ele>288</ele>
        <time>2015-04-29T18:22:59Z</time>
      </trkpt>
      <trkpt lat="44.53756" lon="2.30448">
        <ele>287</ele>
        <time>2015-04-29T18:23:00Z</time>
      </trkpt>
      <trkpt lat="44.53753" lon="2.30461">
        <ele>286.2</ele>
        <time>2015-04-29T18:23:01Z</time>
      </trkpt>
      <trkpt lat="44.53751" lon="2.30474">
        <ele>284.8</ele>
        <time>2015-04-29T18:23:02Z</time>
      </trkpt>
      <trkpt lat="44.5375" lon="2.30499">
        <ele>282.9</ele>
        <time>2015-04-29T18:23:04Z</time>
      </trkpt>
      <trkpt lat="44.53752" lon="2.30511">
        <ele>281</ele>
        <time>2015-04-29T18:23:05Z</time>
      </trkpt>
      <trkpt lat="44.53756" lon="2.30523">
        <ele>279.6</ele>
        <time>2015-04-29T18:23:06Z</time>
      </trkpt>
      <trkpt lat="44.5376" lon="2.30534">
        <ele>278.5</ele>
        <time>2015-04-29T18:23:07Z</time>
      </trkpt>
      <trkpt lat="44.53764" lon="2.30545">
        <ele>277.5</ele>
        <time>2015-04-29T18:23:08Z</time>
      </trkpt>
      <trkpt lat="44.53769" lon="2.30556">
        <ele>276.7</ele>
        <time>2015-04-29T18:23:09Z</time>
      </trkpt>
      <trkpt lat="44.53773" lon="2.30568">
        <ele>276.1</ele>
        <time>2015-04-29T18:23:10Z</time>
      </trkpt>
      <trkpt lat="44.53777" lon="2.3058">
        <ele>275.7</ele>
        <time>2015-04-29T18:23:11Z</time>
      </trkpt>
      <trkpt lat="44.53781" lon="2.30591">
        <ele>275</ele>
        <time>2015-04-29T18:23:12Z</time>
      </trkpt>
      <trkpt lat="44.53785" lon="2.30613">
        <ele>274.1</ele>
        <time>2015-04-29T18:23:14Z</time>
      </trkpt>
      <trkpt lat="44.53786" lon="2.30629">
        <ele>272.5</ele>
        <time>2015-04-29T18:23:16Z</time>
      </trkpt>
      <trkpt lat="44.53795" lon="2.30635">
        <ele>270.7</ele>
        <time>2015-04-29T18:23:19Z</time>
      </trkpt>
      <trkpt lat="44.53807" lon="2.3063">
        <ele>269.4</ele>
        <time>2015-04-29T18:23:21Z</time>
      </trkpt>
      <trkpt lat="44.53821" lon="2.30623">
        <ele>268</ele>
        <time>2015-04-29T18:23:23Z</time>
      </trkpt>
      <trkpt lat="44.53835" lon="2.30614">
        <ele>266.5</ele>
        <time>2015-04-29T18:23:25Z</time>
      </trkpt>
      <trkpt lat="44.53848" lon="2.30607">
        <ele>265.6</ele>
        <time>2015-04-29T18:23:27Z</time>
      </trkpt>
      <trkpt lat="44.53862" lon="2.30607">
        <ele>264.5</ele>
        <time>2015-04-29T18:23:29Z</time>
      </trkpt>
      <trkpt lat="44.53871" lon="2.30616">
        <ele>264.2</ele>
        <time>2015-04-29T18:23:31Z</time>
      </trkpt>
      <trkpt lat="44.53878" lon="2.30629">
        <ele>264.3</ele>
        <time>2015-04-29T18:23:33Z</time>
      </trkpt>
      <trkpt lat="44.5388" lon="2.30643">
        <ele>263.9</ele>
        <time>2015-04-29T18:23:35Z</time>
      </trkpt>
      <trkpt lat="44.53868" lon="2.3067">
        <ele>260.6</ele>
        <time>2015-04-29T18:23:39Z</time>
      </trkpt>
      <trkpt lat="44.5387" lon="2.30686">
        <ele>256.3</ele>
        <time>2015-04-29T18:23:42Z</time>
      </trkpt>
      <trkpt lat="44.53881" lon="2.30687">
        <ele>253.9</ele>
        <time>2015-04-29T18:23:45Z</time>
      </trkpt>
      <trkpt lat="44.53893" lon="2.30686">
        <ele>252.7</ele>
        <time>2015-04-29T18:23:48Z</time>
      </trkpt>
      <trkpt lat="44.53905" lon="2.30688">
        <ele>252.4</ele>
        <time>2015-04-29T18:23:51Z</time>
      </trkpt>
      <trkpt lat="44.53917" lon="2.30687">
        <ele>251.9</ele>
        <time>2015-04-29T18:23:54Z</time>
      </trkpt>
      <trkpt lat="44.53927" lon="2.30692">
        <ele>251.6</ele>
        <time>2015-04-29T18:23:57Z</time>
      </trkpt>
      <trkpt lat="44.53934" lon="2.30708">
        <ele>251</ele>
        <time>2015-04-29T18:24:00Z</time>
      </trkpt>
      <trkpt lat="44.5394" lon="2.30718">
        <ele>250.2</ele>
        <time>2015-04-29T18:24:03Z</time>
      </trkpt>
      <trkpt lat="44.53951" lon="2.30718">
        <ele>249.8</ele>
        <time>2015-04-29T18:24:06Z</time>
      </trkpt>
      <trkpt lat="44.5396" lon="2.30715">
        <ele>249.4</ele>
        <time>2015-04-29T18:24:08Z</time>
      </trkpt>
      <trkpt lat="44.53971" lon="2.30713">
        <ele>248.2</ele>
        <time>2015-04-29T18:24:10Z</time>
      </trkpt>
      <trkpt lat="44.53985" lon="2.30711">
        <ele>246.5</ele>
        <time>2015-04-29T18:24:12Z</time>
      </trkpt>
      <trkpt lat="44.54001" lon="2.3071">
        <ele>244.8</ele>
        <time>2015-04-29T18:24:14Z</time>
      </trkpt>
      <trkpt lat="44.54019" lon="2.30708">
        <ele>242.2</ele>
        <time>2015-04-29T18:24:16Z</time>
      </trkpt>
      <trkpt lat="44.54035" lon="2.30708">
        <ele>240.7</ele>
        <time>2015-04-29T18:24:18Z</time>
      </trkpt>
      <trkpt lat="44.54052" lon="2.3071">
        <ele>239.4</ele>
        <time>2015-04-29T18:24:20Z</time>
      </trkpt>
      <trkpt lat="44.54067" lon="2.30704">
        <ele>239.5</ele>
        <time>2015-04-29T18:24:22Z</time>
      </trkpt>
      <trkpt lat="44.5408" lon="2.30694">
        <ele>240.1</ele>
        <time>2015-04-29T18:24:24Z</time>
      </trkpt>
      <trkpt lat="44.54093" lon="2.30686">
        <ele>239.4</ele>
        <time>2015-04-29T18:24:26Z</time>
      </trkpt>
      <trkpt lat="44.54105" lon="2.30678">
        <ele>239</ele>
        <time>2015-04-29T18:24:28Z</time>
      </trkpt>
      <trkpt lat="44.54115" lon="2.30672">
        <ele>238.8</ele>
        <time>2015-04-29T18:24:30Z</time>
      </trkpt>
      <trkpt lat="44.54124" lon="2.30671">
        <ele>239.4</ele>
        <time>2015-04-29T18:24:32Z</time>
      </trkpt>
      <trkpt lat="44.54133" lon="2.30678">
        <ele>239.7</ele>
        <time>2015-04-29T18:24:34Z</time>
      </trkpt>
      <trkpt lat="44.54144" lon="2.30688">
        <ele>238.9</ele>
        <time>2015-04-29T18:24:36Z</time>
      </trkpt>
      <trkpt lat="44.54169" lon="2.30706">
        <ele>238.1</ele>
        <time>2015-04-29T18:24:40Z</time>
      </trkpt>
      <trkpt lat="44.54181" lon="2.30716">
        <ele>237.9</ele>
        <time>2015-04-29T18:24:42Z</time>
      </trkpt>
      <trkpt lat="44.54192" lon="2.30728">
        <ele>238</ele>
        <time>2015-04-29T18:24:44Z</time>
      </trkpt>
      <trkpt lat="44.54202" lon="2.30739">
        <ele>238.1</ele>
        <time>2015-04-29T18:24:46Z</time>
      </trkpt>
      <trkpt lat="44.54211" lon="2.30751">
        <ele>238.8</ele>
        <time>2015-04-29T18:24:48Z</time>
      </trkpt>
      <trkpt lat="44.54221" lon="2.30763">
        <ele>239.2</ele>
        <time>2015-04-29T18:24:50Z</time>
      </trkpt>
      <trkpt lat="44.54229" lon="2.30775">
        <ele>238.3</ele>
        <time>2015-04-29T18:24:52Z</time>
      </trkpt>
      <trkpt lat="44.54238" lon="2.30784">
        <ele>237.9</ele>
        <time>2015-04-29T18:24:54Z</time>
      </trkpt>
      <trkpt lat="44.54249" lon="2.30791">
        <ele>237.9</ele>
        <time>2015-04-29T18:24:57Z</time>
      </trkpt>
      <trkpt lat="44.5426" lon="2.30789">
        <ele>237.7</ele>
        <time>2015-04-29T18:25:00Z</time>
      </trkpt>
      <trkpt lat="44.54275" lon="2.30823">
        <ele>236</ele>
        <time>2015-04-29T18:25:06Z</time>
      </trkpt>
      <trkpt lat="44.54282" lon="2.30835">
        <ele>237.3</ele>
        <time>2015-04-29T18:25:10Z</time>
      </trkpt>
      <trkpt lat="44.54294" lon="2.30833">
        <ele>238.1</ele>
        <time>2015-04-29T18:25:13Z</time>
      </trkpt>
      <trkpt lat="44.54305" lon="2.30828">
        <ele>238.7</ele>
        <time>2015-04-29T18:25:16Z</time>
      </trkpt>
      <trkpt lat="44.54315" lon="2.30819">
        <ele>238.9</ele>
        <time>2015-04-29T18:25:19Z</time>
      </trkpt>
      <trkpt lat="44.54324" lon="2.30809">
        <ele>238.7</ele>
        <time>2015-04-29T18:25:22Z</time>
      </trkpt>
      <trkpt lat="44.54331" lon="2.30798">
        <ele>238.9</ele>
        <time>2015-04-29T18:25:25Z</time>
      </trkpt>
      <trkpt lat="44.54338" lon="2.30788">
        <ele>239.1</ele>
        <time>2015-04-29T18:25:28Z</time>
      </trkpt>
      <trkpt lat="44.54344" lon="2.30778">
        <ele>239.5</ele>
        <time>2015-04-29T18:25:31Z</time>
      </trkpt>
      <trkpt lat="44.54352" lon="2.30769">
        <ele>240.8</ele>
        <time>2015-04-29T18:25:35Z</time>
      </trkpt>
      <trkpt lat="44.5436" lon="2.30763">
        <ele>242.4</ele>
        <time>2015-04-29T18:25:39Z</time>
      </trkpt>
      <trkpt lat="44.54381" lon="2.30759">
        <ele>243.8</ele>
        <time>2015-04-29T18:25:47Z</time>
      </trkpt>
      <trkpt lat="44.54392" lon="2.30761">
        <ele>245.5</ele>
        <time>2015-04-29T18:25:51Z</time>
      </trkpt>
      <trkpt lat="44.54402" lon="2.30764">
        <ele>246.4</ele>
        <time>2015-04-29T18:25:55Z</time>
      </trkpt>
      <trkpt lat="44.54413" lon="2.30766">
        <ele>246.7</ele>
        <time>2015-04-29T18:25:59Z</time>
      </trkpt>
      <trkpt lat="44.54423" lon="2.30769">
        <ele>247.9</ele>
        <time>2015-04-29T18:26:03Z</time>
      </trkpt>
      <trkpt lat="44.54432" lon="2.30772">
        <ele>249</ele>
        <time>2015-04-29T18:26:07Z</time>
      </trkpt>
      <trkpt lat="44.54441" lon="2.30779">
        <ele>249.6</ele>
        <time>2015-04-29T18:26:11Z</time>
      </trkpt>
      <trkpt lat="44.54447" lon="2.30792">
        <ele>250</ele>
        <time>2015-04-29T18:26:16Z</time>
      </trkpt>
      <trkpt lat="44.54453" lon="2.30804">
        <ele>251.8</ele>
        <time>2015-04-29T18:26:20Z</time>
      </trkpt>
      <trkpt lat="44.54461" lon="2.30816">
        <ele>252.5</ele>
        <time>2015-04-29T18:26:24Z</time>
      </trkpt>
      <trkpt lat="44.5447" lon="2.30825">
        <ele>252.9</ele>
        <time>2015-04-29T18:26:28Z</time>
      </trkpt>
      <trkpt lat="44.54479" lon="2.30832">
        <ele>253.2</ele>
        <time>2015-04-29T18:26:32Z</time>
      </trkpt>
      <trkpt lat="44.54488" lon="2.30841">
        <ele>253.6</ele>
        <time>2015-04-29T18:26:36Z</time>
      </trkpt>
      <trkpt lat="44.54497" lon="2.3085">
        <ele>254.2</ele>
        <time>2015-04-29T18:26:40Z</time>
      </trkpt>
      <trkpt lat="44.54513" lon="2.30871">
        <ele>256</ele>
        <time>2015-04-29T18:26:48Z</time>
      </trkpt>
      <trkpt lat="44.54521" lon="2.3088">
        <ele>256.5</ele>
        <time>2015-04-29T18:26:52Z</time>
      </trkpt>
      <trkpt lat="44.54531" lon="2.30887">
        <ele>257.1</ele>
        <time>2015-04-29T18:26:56Z</time>
      </trkpt>
      <trkpt lat="44.54541" lon="2.3089">
        <ele>257.8</ele>
        <time>2015-04-29T18:27:00Z</time>
      </trkpt>
      <trkpt lat="44.54552" lon="2.30893">
        <ele>258.5</ele>
        <time>2015-04-29T18:27:04Z</time>
      </trkpt>
      <trkpt lat="44.54561" lon="2.30894">
        <ele>259.4</ele>
        <time>2015-04-29T18:27:08Z</time>
      </trkpt>
      <trkpt lat="44.54571" lon="2.30897">
        <ele>260.4</ele>
        <time>2015-04-29T18:27:12Z</time>
      </trkpt>
      <trkpt lat="44.54581" lon="2.30898">
        <ele>261.3</ele>
        <time>2015-04-29T18:27:16Z</time>
      </trkpt>
      <trkpt lat="44.5459" lon="2.30902">
        <ele>261</ele>
        <time>2015-04-29T18:27:20Z</time>
      </trkpt>
      <trkpt lat="44.54598" lon="2.30908">
        <ele>262.3</ele>
        <time>2015-04-29T18:27:24Z</time>
      </trkpt>
      <trkpt lat="44.54608" lon="2.30915">
        <ele>262.5</ele>
        <time>2015-04-29T18:27:28Z</time>
      </trkpt>
      <trkpt lat="44.54617" lon="2.30921">
        <ele>263.1</ele>
        <time>2015-04-29T18:27:32Z</time>
      </trkpt>
      <trkpt lat="44.54626" lon="2.30926">
        <ele>264.5</ele>
        <time>2015-04-29T18:27:36Z</time>
      </trkpt>
      <trkpt lat="44.54636" lon="2.30931">
        <ele>264.7</ele>
        <time>2015-04-29T18:27:40Z</time>
      </trkpt>
      <trkpt lat="44.54647" lon="2.30936">
        <ele>266.2</ele>
        <time>2015-04-29T18:27:45Z</time>
      </trkpt>
      <trkpt lat="44.54666" lon="2.30945">
        <ele>267.1</ele>
        <time>2015-04-29T18:27:53Z</time>
      </trkpt>
      <trkpt lat="44.54676" lon="2.30949">
        <ele>267.1</ele>
        <time>2015-04-29T18:27:57Z</time>
      </trkpt>
      <trkpt lat="44.54686" lon="2.30954">
        <ele>268.4</ele>
        <time>2015-04-29T18:28:01Z</time>
      </trkpt>
      <trkpt lat="44.54696" lon="2.30957">
        <ele>268.6</ele>
        <time>2015-04-29T18:28:05Z</time>
      </trkpt>
      <trkpt lat="44.54705" lon="2.3096">
        <ele>269.6</ele>
        <time>2015-04-29T18:28:09Z</time>
      </trkpt>
      <trkpt lat="44.54715" lon="2.3096">
        <ele>270.5</ele>
        <time>2015-04-29T18:28:13Z</time>
      </trkpt>
      <trkpt lat="44.54725" lon="2.30961">
        <ele>271.5</ele>
        <time>2015-04-29T18:28:17Z</time>
      </trkpt>
      <trkpt lat="44.54734" lon="2.30961">
        <ele>271.8</ele>
        <time>2015-04-29T18:28:21Z</time>
      </trkpt>
      <trkpt lat="44.54745" lon="2.3096">
        <ele>271.3</ele>
        <time>2015-04-29T18:28:26Z</time>
      </trkpt>
      <trkpt lat="44.54754" lon="2.30959">
        <ele>272.6</ele>
        <time>2015-04-29T18:28:30Z</time>
      </trkpt>
      <trkpt lat="44.54764" lon="2.30954">
        <ele>273.4</ele>
        <time>2015-04-29T18:28:34Z</time>
      </trkpt>
      <trkpt lat="44.54773" lon="2.3095">
        <ele>274.3</ele>
        <time>2015-04-29T18:28:38Z</time>
      </trkpt>
      <trkpt lat="44.54782" lon="2.30946">
        <ele>274.5</ele>
        <time>2015-04-29T18:28:42Z</time>
      </trkpt>
      <trkpt lat="44.54791" lon="2.30947">
        <ele>274.8</ele>
        <time>2015-04-29T18:28:46Z</time>
      </trkpt>
      <trkpt lat="44.54778" lon="2.30965">
        <ele>277.1</ele>
        <time>2015-04-29T18:28:55Z</time>
      </trkpt>
      <trkpt lat="44.5477" lon="2.30973">
        <ele>277.5</ele>
        <time>2015-04-29T18:28:59Z</time>
      </trkpt>
      <trkpt lat="44.54763" lon="2.30982">
        <ele>278.6</ele>
        <time>2015-04-29T18:29:03Z</time>
      </trkpt>
      <trkpt lat="44.54756" lon="2.30993">
        <ele>279.3</ele>
        <time>2015-04-29T18:29:07Z</time>
      </trkpt>
      <trkpt lat="44.54749" lon="2.31002">
        <ele>279.7</ele>
        <time>2015-04-29T18:29:11Z</time>
      </trkpt>
      <trkpt lat="44.54741" lon="2.31011">
        <ele>281.1</ele>
        <time>2015-04-29T18:29:15Z</time>
      </trkpt>
      <trkpt lat="44.54732" lon="2.31017">
        <ele>281.8</ele>
        <time>2015-04-29T18:29:19Z</time>
      </trkpt>
      <trkpt lat="44.54722" lon="2.31024">
        <ele>283.1</ele>
        <time>2015-04-29T18:29:24Z</time>
      </trkpt>
      <trkpt lat="44.54713" lon="2.31029">
        <ele>283.4</ele>
        <time>2015-04-29T18:29:28Z</time>
      </trkpt>
      <trkpt lat="44.54703" lon="2.31033">
        <ele>284</ele>
        <time>2015-04-29T18:29:33Z</time>
      </trkpt>
      <trkpt lat="44.54693" lon="2.31032">
        <ele>285.5</ele>
        <time>2015-04-29T18:29:38Z</time>
      </trkpt>
      <trkpt lat="44.54683" lon="2.31031">
        <ele>286.2</ele>
        <time>2015-04-29T18:29:42Z</time>
      </trkpt>
      <trkpt lat="44.54673" lon="2.3103">
        <ele>286.8</ele>
        <time>2015-04-29T18:29:47Z</time>
      </trkpt>
      <trkpt lat="44.54679" lon="2.31052">
        <ele>289.7</ele>
        <time>2015-04-29T18:29:59Z</time>
      </trkpt>
      <trkpt lat="44.54688" lon="2.3106">
        <ele>291.5</ele>
        <time>2015-04-29T18:30:04Z</time>
      </trkpt>
      <trkpt lat="44.54696" lon="2.31068">
        <ele>292.7</ele>
        <time>2015-04-29T18:30:09Z</time>
      </trkpt>
      <trkpt lat="44.54706" lon="2.31073">
        <ele>293</ele>
        <time>2015-04-29T18:30:14Z</time>
      </trkpt>
      <trkpt lat="44.54715" lon="2.31078">
        <ele>293.5</ele>
        <time>2015-04-29T18:30:19Z</time>
      </trkpt>
      <trkpt lat="44.54726" lon="2.31078">
        <ele>294.7</ele>
        <time>2015-04-29T18:30:24Z</time>
      </trkpt>
      <trkpt lat="44.54735" lon="2.31078">
        <ele>295.2</ele>
        <time>2015-04-29T18:30:28Z</time>
      </trkpt>
      <trkpt lat="44.54744" lon="2.31078">
        <ele>296.1</ele>
        <time>2015-04-29T18:30:32Z</time>
      </trkpt>
      <trkpt lat="44.54755" lon="2.31078">
        <ele>296.8</ele>
        <time>2015-04-29T18:30:37Z</time>
      </trkpt>
      <trkpt lat="44.54766" lon="2.31078">
        <ele>297.8</ele>
        <time>2015-04-29T18:30:42Z</time>
      </trkpt>
      <trkpt lat="44.54775" lon="2.31079">
        <ele>298.6</ele>
        <time>2015-04-29T18:30:46Z</time>
      </trkpt>
      <trkpt lat="44.54784" lon="2.3108">
        <ele>300.6</ele>
        <time>2015-04-29T18:30:50Z</time>
      </trkpt>
      <trkpt lat="44.54804" lon="2.31085">
        <ele>302.5</ele>
        <time>2015-04-29T18:31:00Z</time>
      </trkpt>
      <trkpt lat="44.54813" lon="2.31092">
        <ele>303.1</ele>
        <time>2015-04-29T18:31:05Z</time>
      </trkpt>
      <trkpt lat="44.54821" lon="2.31098">
        <ele>303.9</ele>
        <time>2015-04-29T18:31:10Z</time>
      </trkpt>
      <trkpt lat="44.5483" lon="2.31101">
        <ele>305.5</ele>
        <time>2015-04-29T18:31:18Z</time>
      </trkpt>
      <trkpt lat="44.54839" lon="2.31106">
        <ele>306.4</ele>
        <time>2015-04-29T18:31:30Z</time>
      </trkpt>
      <trkpt lat="44.54848" lon="2.3111">
        <ele>308.3</ele>
        <time>2015-04-29T18:31:39Z</time>
      </trkpt>
      <trkpt lat="44.54856" lon="2.31103">
        <ele>309.4</ele>
        <time>2015-04-29T18:31:48Z</time>
      </trkpt>
      <trkpt lat="44.54858" lon="2.3109">
        <ele>311.8</ele>
        <time>2015-04-29T18:31:57Z</time>
      </trkpt>
      <trkpt lat="44.54871" lon="2.3107">
        <ele>315.1</ele>
        <time>2015-04-29T18:32:12Z</time>
      </trkpt>
      <trkpt lat="44.54874" lon="2.31058">
        <ele>316.2</ele>
        <time>2015-04-29T18:36:13Z</time>
      </trkpt>
      <trkpt lat="44.54888" lon="2.31041">
        <ele>314.2</ele>
        <time>2015-04-29T18:37:09Z</time>
      </trkpt>
      <trkpt lat="44.54896" lon="2.31034">
        <ele>312.2</ele>
        <time>2015-04-29T18:37:14Z</time>
      </trkpt>
      <trkpt lat="44.54912" lon="2.31028">
        <ele>305</ele>
        <time>2015-04-29T18:37:26Z</time>
      </trkpt>
      <trkpt lat="44.54917" lon="2.3104">
        <ele>302.8</ele>
        <time>2015-04-29T18:37:40Z</time>
      </trkpt>
      <trkpt lat="44.54922" lon="2.31051">
        <ele>298.7</ele>
        <time>2015-04-29T18:38:16Z</time>
      </trkpt>
      <trkpt lat="44.54925" lon="2.31077">
        <ele>292.2</ele>
        <time>2015-04-29T18:38:30Z</time>
      </trkpt>
      <trkpt lat="44.54923" lon="2.31092">
        <ele>288.2</ele>
        <time>2015-04-29T18:38:36Z</time>
      </trkpt>
      <trkpt lat="44.54923" lon="2.31106">
        <ele>284.6</ele>
        <time>2015-04-29T18:39:02Z</time>
      </trkpt>
      <trkpt lat="44.54923" lon="2.31121">
        <ele>284</ele>
        <time>2015-04-29T18:39:06Z</time>
      </trkpt>
      <trkpt lat="44.5492" lon="2.31135">
        <ele>282.6</ele>
        <time>2015-04-29T18:39:11Z</time>
      </trkpt>
      <trkpt lat="44.54921" lon="2.3115">
        <ele>283</ele>
        <time>2015-04-29T18:39:16Z</time>
      </trkpt>
      <trkpt lat="44.54922" lon="2.31163">
        <ele>283</ele>
        <time>2015-04-29T18:39:19Z</time>
      </trkpt>
      <trkpt lat="44.54938" lon="2.3118">
        <ele>281.8</ele>
        <time>2015-04-29T18:39:27Z</time>
      </trkpt>
      <trkpt lat="44.54943" lon="2.31169">
        <ele>274</ele>
        <time>2015-04-29T18:39:37Z</time>
      </trkpt>
      <trkpt lat="44.5495" lon="2.31178">
        <ele>272.8</ele>
        <time>2015-04-29T18:39:50Z</time>
      </trkpt>
      <trkpt lat="44.5496" lon="2.31178">
        <ele>273.8</ele>
        <time>2015-04-29T18:40:07Z</time>
      </trkpt>
      <trkpt lat="44.54965" lon="2.31189">
        <ele>272</ele>
        <time>2015-04-29T18:40:12Z</time>
      </trkpt>
      <trkpt lat="44.54975" lon="2.31184">
        <ele>270.6</ele>
        <time>2015-04-29T18:40:16Z</time>
      </trkpt>
      <trkpt lat="44.54973" lon="2.31169">
        <ele>268.9</ele>
        <time>2015-04-29T18:40:21Z</time>
      </trkpt>
      <trkpt lat="44.54969" lon="2.31141">
        <ele>269.3</ele>
        <time>2015-04-29T18:40:29Z</time>
      </trkpt>
      <trkpt lat="44.54974" lon="2.31128">
        <ele>268.9</ele>
        <time>2015-04-29T18:40:33Z</time>
      </trkpt>
      <trkpt lat="44.54981" lon="2.31116">
        <ele>268.7</ele>
        <time>2015-04-29T18:40:37Z</time>
      </trkpt>
      <trkpt lat="44.54988" lon="2.31105">
        <ele>268.9</ele>
        <time>2015-04-29T18:40:40Z</time>
      </trkpt>
      <trkpt lat="44.54994" lon="2.31096">
        <ele>268.7</ele>
        <time>2015-04-29T18:40:43Z</time>
      </trkpt>
      <trkpt lat="44.54999" lon="2.31082">
        <ele>267.6</ele>
        <time>2015-04-29T18:40:47Z</time>
      </trkpt>
      <trkpt lat="44.55001" lon="2.31069">
        <ele>268.3</ele>
        <time>2015-04-29T18:40:50Z</time>
      </trkpt>
      <trkpt lat="44.55004" lon="2.31054">
        <ele>267.7</ele>
        <time>2015-04-29T18:40:53Z</time>
      </trkpt>
      <trkpt lat="44.55004" lon="2.31042">
        <ele>268.1</ele>
        <time>2015-04-29T18:40:56Z</time>
      </trkpt>
      <trkpt lat="44.55007" lon="2.31026">
        <ele>267.9</ele>
        <time>2015-04-29T18:41:00Z</time>
      </trkpt>
      <trkpt lat="44.5501" lon="2.31011">
        <ele>267.8</ele>
        <time>2015-04-29T18:41:04Z</time>
      </trkpt>
      <trkpt lat="44.55008" lon="2.30997">
        <ele>267.4</ele>
        <time>2015-04-29T18:41:08Z</time>
      </trkpt>
      <trkpt lat="44.55005" lon="2.30982">
        <ele>267.4</ele>
        <time>2015-04-29T18:41:12Z</time>
      </trkpt>
      <trkpt lat="44.55" lon="2.30969">
        <ele>266.4</ele>
        <time>2015-04-29T18:41:16Z</time>
      </trkpt>
      <trkpt lat="44.54993" lon="2.30961">
        <ele>265.4</ele>
        <time>2015-04-29T18:41:20Z</time>
      </trkpt>
      <trkpt lat="44.54984" lon="2.30956">
        <ele>265.1</ele>
        <time>2015-04-29T18:41:25Z</time>
      </trkpt>
      <trkpt lat="44.54968" lon="2.30941">
        <ele>264.1</ele>
        <time>2015-04-29T18:41:36Z</time>
      </trkpt>
      <trkpt lat="44.54959" lon="2.30932">
        <ele>263.4</ele>
        <time>2015-04-29T18:41:42Z</time>
      </trkpt>
      <trkpt lat="44.54951" lon="2.30923">
        <ele>263.8</ele>
        <time>2015-04-29T18:41:48Z</time>
      </trkpt>
      <trkpt lat="44.54945" lon="2.30912">
        <ele>262.5</ele>
        <time>2015-04-29T18:42:41Z</time>
      </trkpt>
      <trkpt lat="44.5493" lon="2.30894">
        <ele>262.2</ele>
        <time>2015-04-29T18:42:50Z</time>
      </trkpt>
      <trkpt lat="44.54923" lon="2.30884">
        <ele>261.9</ele>
        <time>2015-04-29T18:42:54Z</time>
      </trkpt>
      <trkpt lat="44.54916" lon="2.30876">
        <ele>262</ele>
        <time>2015-04-29T18:42:58Z</time>
      </trkpt>
      <trkpt lat="44.54907" lon="2.30876">
        <ele>261.3</ele>
        <time>2015-04-29T18:43:04Z</time>
      </trkpt>
      <trkpt lat="44.54898" lon="2.3087">
        <ele>257.8</ele>
        <time>2015-04-29T18:43:10Z</time>
      </trkpt>
      <trkpt lat="44.54886" lon="2.30869">
        <ele>257.7</ele>
        <time>2015-04-29T18:43:15Z</time>
      </trkpt>
      <trkpt lat="44.54876" lon="2.30866">
        <ele>257.4</ele>
        <time>2015-04-29T18:43:19Z</time>
      </trkpt>
      <trkpt lat="44.54866" lon="2.30866">
        <ele>257.2</ele>
        <time>2015-04-29T18:43:23Z</time>
      </trkpt>
      <trkpt lat="44.54866" lon="2.30854">
        <ele>261.3</ele>
        <time>2015-04-29T18:43:36Z</time>
      </trkpt>
      <trkpt lat="44.54859" lon="2.30846">
        <ele>264.2</ele>
        <time>2015-04-29T18:43:48Z</time>
      </trkpt>
      <trkpt lat="44.5484" lon="2.30837">
        <ele>263.6</ele>
        <time>2015-04-29T18:44:08Z</time>
      </trkpt>
      <trkpt lat="44.54831" lon="2.30833">
        <ele>263.3</ele>
        <time>2015-04-29T18:44:14Z</time>
      </trkpt>
      <trkpt lat="44.54822" lon="2.30827">
        <ele>263.6</ele>
        <time>2015-04-29T18:44:20Z</time>
      </trkpt>
      <trkpt lat="44.54812" lon="2.30822">
        <ele>265</ele>
        <time>2015-04-29T18:44:26Z</time>
      </trkpt>
      <trkpt lat="44.54802" lon="2.30819">
        <ele>266.8</ele>
        <time>2015-04-29T18:44:33Z</time>
      </trkpt>
      <trkpt lat="44.54793" lon="2.30814">
        <ele>267.2</ele>
        <time>2015-04-29T18:45:21Z</time>
      </trkpt>
      <trkpt lat="44.54779" lon="2.30792">
        <ele>265.3</ele>
        <time>2015-04-29T18:45:26Z</time>
      </trkpt>
      <trkpt lat="44.5478" lon="2.30779">
        <ele>265.4</ele>
        <time>2015-04-29T18:45:47Z</time>
      </trkpt>
      <trkpt lat="44.54784" lon="2.30767">
        <ele>269</ele>
        <time>2015-04-29T18:46:01Z</time>
      </trkpt>
      <trkpt lat="44.54787" lon="2.30755">
        <ele>271.2</ele>
        <time>2015-04-29T18:46:16Z</time>
      </trkpt>
      <trkpt lat="44.54792" lon="2.30744">
        <ele>273.2</ele>
        <time>2015-04-29T18:46:41Z</time>
      </trkpt>
      <trkpt lat="44.54803" lon="2.30724">
        <ele>275.6</ele>
        <time>2015-04-29T18:46:56Z</time>
      </trkpt>
      <trkpt lat="44.54806" lon="2.30712">
        <ele>276.9</ele>
        <time>2015-04-29T18:47:03Z</time>
      </trkpt>
      <trkpt lat="44.54808" lon="2.30699">
        <ele>277.5</ele>
        <time>2015-04-29T18:47:10Z</time>
      </trkpt>
      <trkpt lat="44.54808" lon="2.30686">
        <ele>277.6</ele>
        <time>2015-04-29T18:47:15Z</time>
      </trkpt>
      <trkpt lat="44.54806" lon="2.30673">
        <ele>277.2</ele>
        <time>2015-04-29T18:47:19Z</time>
      </trkpt>
      <trkpt lat="44.54804" lon="2.3066">
        <ele>276.1</ele>
        <time>2015-04-29T18:47:23Z</time>
      </trkpt>
      <trkpt lat="44.54793" lon="2.30654">
        <ele>274.7</ele>
        <time>2015-04-29T18:47:27Z</time>
      </trkpt>
      <trkpt lat="44.54783" lon="2.30649">
        <ele>273.4</ele>
        <time>2015-04-29T18:47:30Z</time>
      </trkpt>
      <trkpt lat="44.54773" lon="2.30639">
        <ele>270.1</ele>
        <time>2015-04-29T18:47:34Z</time>
      </trkpt>
      <trkpt lat="44.5477" lon="2.30626">
        <ele>268.3</ele>
        <time>2015-04-29T18:47:37Z</time>
      </trkpt>
      <trkpt lat="44.54761" lon="2.30617">
        <ele>267</ele>
        <time>2015-04-29T18:47:40Z</time>
      </trkpt>
      <trkpt lat="44.54756" lon="2.30604">
        <ele>265.6</ele>
        <time>2015-04-29T18:47:43Z</time>
      </trkpt>
      <trkpt lat="44.54735" lon="2.30592">
        <ele>263.5</ele>
        <time>2015-04-29T18:47:48Z</time>
      </trkpt>
      <trkpt lat="44.54726" lon="2.30589">
        <ele>261.3</ele>
        <time>2015-04-29T18:47:50Z</time>
      </trkpt>
      <trkpt lat="44.54716" lon="2.30583">
        <ele>258.5</ele>
        <time>2015-04-29T18:47:53Z</time>
      </trkpt>
      <trkpt lat="44.54706" lon="2.30585">
        <ele>253.9</ele>
        <time>2015-04-29T18:47:57Z</time>
      </trkpt>
      <trkpt lat="44.54696" lon="2.30586">
        <ele>250.2</ele>
        <time>2015-04-29T18:48:04Z</time>
      </trkpt>
      <trkpt lat="44.54689" lon="2.30573">
        <ele>248.9</ele>
        <time>2015-04-29T18:48:09Z</time>
      </trkpt>
      <trkpt lat="44.54683" lon="2.30562">
        <ele>247.1</ele>
        <time>2015-04-29T18:48:12Z</time>
      </trkpt>
      <trkpt lat="44.54677" lon="2.30549">
        <ele>244.7</ele>
        <time>2015-04-29T18:48:15Z</time>
      </trkpt>
      <trkpt lat="44.54673" lon="2.30537">
        <ele>243.7</ele>
        <time>2015-04-29T18:48:17Z</time>
      </trkpt>
      <trkpt lat="44.54669" lon="2.30525">
        <ele>242.8</ele>
        <time>2015-04-29T18:48:19Z</time>
      </trkpt>
      <trkpt lat="44.54663" lon="2.30514">
        <ele>242</ele>
        <time>2015-04-29T18:48:21Z</time>
      </trkpt>
      <trkpt lat="44.54657" lon="2.30502">
        <ele>241.3</ele>
        <time>2015-04-29T18:48:23Z</time>
      </trkpt>
      <trkpt lat="44.54652" lon="2.30489">
        <ele>240.6</ele>
        <time>2015-04-29T18:48:25Z</time>
      </trkpt>
      <trkpt lat="44.54649" lon="2.30475">
        <ele>240.3</ele>
        <time>2015-04-29T18:48:27Z</time>
      </trkpt>
      <trkpt lat="44.54647" lon="2.30462">
        <ele>240.4</ele>
        <time>2015-04-29T18:48:29Z</time>
      </trkpt>
      <trkpt lat="44.54645" lon="2.30448">
        <ele>239.9</ele>
        <time>2015-04-29T18:48:31Z</time>
      </trkpt>
      <trkpt lat="44.54644" lon="2.30434">
        <ele>239.2</ele>
        <time>2015-04-29T18:48:33Z</time>
      </trkpt>
      <trkpt lat="44.54643" lon="2.30419">
        <ele>239.1</ele>
        <time>2015-04-29T18:48:35Z</time>
      </trkpt>
      <trkpt lat="44.54643" lon="2.30404">
        <ele>238.9</ele>
        <time>2015-04-29T18:48:37Z</time>
      </trkpt>
      <trkpt lat="44.54642" lon="2.3039">
        <ele>238.6</ele>
        <time>2015-04-29T18:48:39Z</time>
      </trkpt>
      <trkpt lat="44.54642" lon="2.30377">
        <ele>238.3</ele>
        <time>2015-04-29T18:48:42Z</time>
      </trkpt>
      <trkpt lat="44.54637" lon="2.3039">
        <ele>238.6</ele>
        <time>2015-04-29T18:48:48Z</time>
      </trkpt>
      <trkpt lat="44.54613" lon="2.30394">
        <ele>238</ele>
        <time>2015-04-29T18:48:55Z</time>
      </trkpt>
      <trkpt lat="44.54604" lon="2.30393">
        <ele>237.2</ele>
        <time>2015-04-29T18:48:57Z</time>
      </trkpt>
      <trkpt lat="44.54594" lon="2.30389">
        <ele>236.7</ele>
        <time>2015-04-29T18:48:59Z</time>
      </trkpt>
      <trkpt lat="44.54586" lon="2.30377">
        <ele>235.6</ele>
        <time>2015-04-29T18:49:01Z</time>
      </trkpt>
      <trkpt lat="44.54584" lon="2.30361">
        <ele>234.3</ele>
        <time>2015-04-29T18:49:03Z</time>
      </trkpt>
      <trkpt lat="44.54584" lon="2.30346">
        <ele>233.1</ele>
        <time>2015-04-29T18:49:05Z</time>
      </trkpt>
      <trkpt lat="44.54575" lon="2.30331">
        <ele>232</ele>
        <time>2015-04-29T18:49:10Z</time>
      </trkpt>
      <trkpt lat="44.54568" lon="2.30322">
        <ele>232.7</ele>
        <time>2015-04-29T18:49:14Z</time>
      </trkpt>
      <trkpt lat="44.54573" lon="2.30307">
        <ele>233.3</ele>
        <time>2015-04-29T18:49:19Z</time>
      </trkpt>
      <trkpt lat="44.54578" lon="2.30297">
        <ele>233.3</ele>
        <time>2015-04-29T18:49:22Z</time>
      </trkpt>
      <trkpt lat="44.54584" lon="2.30287">
        <ele>233.7</ele>
        <time>2015-04-29T18:49:25Z</time>
      </trkpt>
      <trkpt lat="44.5459" lon="2.30277">
        <ele>234.3</ele>
        <time>2015-04-29T18:49:28Z</time>
      </trkpt>
      <trkpt lat="44.54596" lon="2.30265">
        <ele>234.1</ele>
        <time>2015-04-29T18:49:31Z</time>
      </trkpt>
      <trkpt lat="44.54602" lon="2.30254">
        <ele>233.4</ele>
        <time>2015-04-29T18:49:34Z</time>
      </trkpt>
      <trkpt lat="44.54608" lon="2.30243">
        <ele>234</ele>
        <time>2015-04-29T18:49:37Z</time>
      </trkpt>
      <trkpt lat="44.54614" lon="2.30231">
        <ele>233.7</ele>
        <time>2015-04-29T18:49:40Z</time>
      </trkpt>
      <trkpt lat="44.54619" lon="2.30219">
        <ele>233.4</ele>
        <time>2015-04-29T18:49:43Z</time>
      </trkpt>
      <trkpt lat="44.54625" lon="2.30206">
        <ele>233.3</ele>
        <time>2015-04-29T18:49:46Z</time>
      </trkpt>
      <trkpt lat="44.5463" lon="2.30191">
        <ele>232.9</ele>
        <time>2015-04-29T18:49:49Z</time>
      </trkpt>
      <trkpt lat="44.54641" lon="2.30161">
        <ele>233.6</ele>
        <time>2015-04-29T18:49:55Z</time>
      </trkpt>
      <trkpt lat="44.54645" lon="2.30149">
        <ele>233.4</ele>
        <time>2015-04-29T18:49:57Z</time>
      </trkpt>
      <trkpt lat="44.5465" lon="2.30137">
        <ele>233.3</ele>
        <time>2015-04-29T18:49:59Z</time>
      </trkpt>
      <trkpt lat="44.54655" lon="2.30125">
        <ele>234</ele>
        <time>2015-04-29T18:50:01Z</time>
      </trkpt>
      <trkpt lat="44.54659" lon="2.30112">
        <ele>234.3</ele>
        <time>2015-04-29T18:50:03Z</time>
      </trkpt>
      <trkpt lat="44.54654" lon="2.30095">
        <ele>234.5</ele>
        <time>2015-04-29T18:50:06Z</time>
      </trkpt>
      <trkpt lat="44.54648" lon="2.30079">
        <ele>233.7</ele>
        <time>2015-04-29T18:50:09Z</time>
      </trkpt>
      <trkpt lat="44.54646" lon="2.30064">
        <ele>232.7</ele>
        <time>2015-04-29T18:50:12Z</time>
      </trkpt>
      <trkpt lat="44.54649" lon="2.3005">
        <ele>233.1</ele>
        <time>2015-04-29T18:50:16Z</time>
      </trkpt>
      <trkpt lat="44.54657" lon="2.30042">
        <ele>234.3</ele>
        <time>2015-04-29T18:50:22Z</time>
      </trkpt>
      <trkpt lat="44.54655" lon="2.30035">
        <ele>234</ele>
        <time>2015-04-29T18:51:04Z</time>
      </trkpt>
    </trkseg>
  </trk>
</gpx>